[[{"header":{"parameterUnit":"m.s-1","parameterCategory":1,"la1":30.6,"la2":28.766,"lo1":-90.7593,"lo2":-88.6598,"dy":0.0162,"dx":0.0183,"nx":116,"ny":114,"refTime":"2023-06-11T12:00:00:Z","depth":0,"parameterNumber":2,"parameterNumberName":"U-component_of_WINDS"},"data":[0.0,0.0,0.0,0.0,0.0,0.0,0.0,0.0,0.0,0.0,0.0,0.0,0.0,0.0,0.0,0.0,0.0,0.0,0.0,0.0,0.0,0.0,0.0,0.0,0.0,0.0,0.0,0.0,0.0,0.0,0.0,0.0,0.0,0.0,0.0,0.0,0.0,0.0,0.0,0.0,0.0,0.0,0.0,0.0,0.0,0.0,0.0,0.0,0.0,0.0,0.0,0.0,0.0,0.0,0.0,0.0,0.0,0.0,0.0,0.0,0.0,0.0,0.0,0.0,0.0,0.0,0.0,0.0,0.0,0.0,0.0,0.0,0.0,0.0,0.0,0.0,0.0,0.0,0.0,0.0,0.0,0.0,0.0,0.0,0.0,0.0,0.0,0.0,0.0,0.0,0.0,0.0,0.0,0.0,0.0,0.0,0.0,0.0,0.0,0.0,0.0,0.0,0.0,0.0,0.0,0.0,0.0,0.0,0.0,0.0,0.0,0.0,0.0,0.0,0.0,0.0,0.0,0.0,0.0,0.0,0.0,0.0,0.0,0.0,0.0,0.0,0.0,0.0,0.0,0.0,0.0,0.0,0.0,0.0,0.0,0.0,0.0,0.0,0.0,0.0,0.0,0.0,0.0,0.0,0.0,0.0,0.0,0.0,0.0,0.0,0.0,0.0,0.0,0.0,0.0,0.0,0.0,0.0,0.0,0.0,0.0,0.0,0.0,0.0,0.0,0.0,0.0,0.0,0.0,0.0,0.0,0.0,0.0,0.0,0.0,0.0,0.0,0.0,0.0,0.0,0.0,0.0,0.0,0.0,0.0,0.0,0.0,0.0,0.0,0.0,0.0,0.0,0.0,0.0,0.0,0.0,0.0,0.0,0.0,0.0,0.0,0.0,0.0,0.0,0.0,0.0,0.0,0.0,0.0,0.0,0.0,0.0,0.0,0.0,0.0,0.0,0.0,0.0,0.0,0.0,0.0,0.0,0.0,0.0,0.0,0.0,0.0,0.0,0.0,0.0,0.0,0.0,0.0,0.0,0.0,0.0,0.0,0.0,0.0,0.0,0.0,0.0,0.0,0.0,0.0,0.0,0.0,0.0,0.0,0.0,0.0,0.0,0.0,0.0,0.0,0.0,0.0,0.0,0.0,0.0,0.0,0.0,0.0,0.0,0.0,0.0,0.0,0.0,0.0,0.0,0.0,0.0,0.0,0.0,0.0,0.0,0.0,0.0,0.0,0.0,0.0,0.0,0.0,0.0,0.0,0.0,0.0,0.0,0.0,0.0,0.0,0.0,0.0,0.0,0.0,0.0,0.0,0.0,0.0,0.0,0.0,0.0,0.0,0.0,0.0,0.0,0.0,0.0,0.0,0.0,0.0,0.0,0.0,0.0,0.0,0.0,0.0,0.0,0.0,0.0,0.0,0.0,0.0,0.0,0.0,0.0,0.0,0.0,0.0,0.0,0.0,0.0,0.0,0.0,0.0,0.0,0.0,0.0,0.0,0.0,0.0,0.0,0.0,0.0,0.0,0.0,0.0,0.0,0.0,0.0,0.0,0.0,0.0,0.0,0.0,0.0,0.0,0.0,0.0,0.0,0.0,0.0,0.0,0.0,0.0,0.0,0.0,0.0,0.0,0.0,0.0,0.0,0.0,0.0,0.0,0.0,0.0,0.0,0.0,0.0,0.0,0.0,0.0,0.0,0.0,0.0,0.0,0.0,0.0,0.0,0.0,0.0,0.0,0.0,0.0,0.0,0.0,0.0,0.0,0.0,0.0,0.0,0.0,0.0,0.0,0.0,0.0,0.0,0.0,0.0,0.0,0.0,0.0,0.0,0.0,0.0,0.0,0.0,0.0,0.0,0.0,0.0,0.0,0.0,0.0,0.0,0.0,0.0,0.0,0.0,0.0,0.0,0.0,0.0,0.0,0.0,0.0,0.0,0.0,0.0,0.0,0.0,0.0,0.0,0.0,0.0,0.0,0.0,0.0,0.0,0.0,0.0,0.0,0.0,0.0,0.0,0.0,0.0,0.0,0.0,0.0,0.0,0.0,0.0,0.0,0.0,0.0,0.0,0.0,0.0,0.0,0.0,0.0,0.0,0.0,0.0,0.0,0.0,0.0,0.0,0.0,0.0,0.0,0.0,0.0,0.0,0.0,0.0,0.0,0.0,0.0,0.0,0.0,0.0,0.0,0.0,0.0,0.0,0.0,0.0,0.0,0.0,0.0,0.0,0.0,0.0,0.0,0.0,0.0,0.0,0.0,0.0,0.0,0.0,0.0,0.0,0.0,0.0,0.0,0.0,0.0,0.0,0.0,0.0,0.0,0.0,0.0,0.0,0.0,0.0,0.0,0.0,0.0,0.0,0.0,0.0,0.0,0.0,0.0,0.0,0.0,0.0,0.0,0.0,0.0,0.0,0.0,0.0,0.0,0.0,0.0,0.0,0.0,0.0,0.0,0.0,0.0,0.0,0.0,0.0,0.0,0.0,0.0,0.0,0.0,0.0,0.0,0.0,0.0,0.0,0.0,0.0,0.0,0.0,0.0,0.0,0.0,0.0,0.0,0.0,0.0,0.0,0.0,0.0,0.0,0.0,0.0,0.0,0.0,0.0,0.0,0.0,0.0,0.0,0.0,0.0,0.0,0.0,0.0,0.0,0.0,0.0,0.0,0.0,0.0,0.0,0.0,0.0,0.0,0.0,0.0,0.0,0.0,0.0,0.0,0.0,0.0,0.0,0.0,0.0,0.0,0.0,0.0,0.0,0.0,0.0,0.0,0.0,0.0,0.0,0.0,0.0,0.0,0.0,0.0,0.0,0.0,0.0,0.0,0.0,0.0,0.0,0.0,0.0,0.0,0.0,0.0,0.0,0.0,0.0,0.0,0.0,0.0,0.0,0.0,0.0,0.0,0.0,0.0,0.0,0.0,0.0,0.0,0.0,0.0,0.0,0.0,0.0,0.0,0.0,0.0,0.0,0.0,0.0,0.0,0.0,0.0,0.0,0.0,0.0,0.0,0.0,0.0,0.0,0.0,0.0,0.0,0.0,0.0,0.0,0.0,0.0,0.0,0.0,0.0,0.0,0.0,0.0,0.0,0.0,0.0,0.0,0.0,0.0,0.0,0.0,0.0,0.0,0.0,0.0,0.0,0.0,0.0,0.0,0.0,0.0,0.0,0.0,0.0,0.0,0.0,0.0,0.0,0.0,0.0,0.0,0.0,0.0,0.0,0.0,0.0,0.0,0.0,0.0,0.0,0.0,0.0,0.0,0.0,0.0,0.0,0.0,0.0,0.0,0.0,0.0,0.0,0.0,0.0,0.0,0.0,0.0,0.0,0.0,0.0,0.0,0.0,0.0,0.0,0.0,0.0,0.0,0.0,0.0,0.0,0.0,0.0,0.0,0.0,0.0,0.0,0.0,0.0,0.0,0.0,0.0,0.0,0.0,0.0,0.0,0.0,0.0,0.0,0.0,0.0,0.0,0.0,0.0,0.0,0.0,0.0,0.0,0.0,0.0,0.0,0.0,0.0,0.0,0.0,0.0,0.0,0.0,0.0,0.0,0.0,0.0,0.0,0.0,0.0,0.0,0.0,0.0,0.0,0.0,0.0,0.0,0.0,0.0,0.0,0.0,0.0,0.0,0.0,0.0,0.0,0.0,0.0,0.0,0.0,0.0,0.0,0.0,0.0,0.0,0.0,0.0,0.0,0.0,0.0,0.0,0.0,0.0,0.0,0.0,0.0,0.0,0.0,0.0,0.0,0.0,0.0,0.0,0.0,0.0,0.0,0.0,0.0,0.0,0.0,0.0,0.0,0.0,0.0,0.0,0.0,0.0,0.0,0.0,0.0,0.0,0.0,0.0,0.0,0.0,0.0,0.0,0.0,0.0,0.0,0.0,0.0,0.0,0.0,0.0,0.0,0.0,0.0,0.0,0.0,0.0,0.0,0.0,0.0,0.0,0.0,0.0,0.0,0.0,0.0,0.0,0.0,0.0,0.0,0.0,0.0,0.0,0.0,0.0,0.0,0.0,0.0,0.0,0.0,0.0,0.0,0.0,0.0,0.0,0.0,0.0,0.0,0.0,0.0,0.0,0.0,0.0,0.0,0.0,0.0,0.0,0.0,0.0,0.0,0.0,0.0,0.0,0.0,0.0,0.0,0.0,0.0,0.0,0.0,0.0,0.0,0.0,0.0,0.0,0.0,0.0,0.0,0.0,0.0,0.0,0.0,0.0,0.0,0.0,0.0,0.0,0.0,0.0,0.0,0.0,0.0,0.0,0.0,0.0,0.0,0.0,0.0,0.0,0.0,0.0,0.0,0.0,0.0,0.0,0.0,0.0,0.0,0.0,0.0,0.0,0.0,0.0,0.0,0.0,0.0,0.0,0.0,0.0,0.0,0.0,0.0,0.0,0.0,0.0,0.0,0.0,0.0,0.0,0.0,0.0,0.0,0.0,0.0,0.0,0.0,0.0,0.0,0.0,0.0,0.0,0.0,0.0,0.0,0.0,0.0,0.0,0.0,0.0,0.0,0.0,0.0,0.0,0.0,0.0,0.0,0.0,0.0,0.0,0.0,0.0,0.0,0.0,0.0,0.0,0.0,0.0,0.0,0.0,0.0,0.0,0.0,0.0,0.0,0.0,0.0,0.0,0.0,0.0,0.0,0.0,0.0,0.0,0.0,0.0,0.0,0.0,0.0,0.0,0.0,0.0,0.0,0.0,0.0,0.0,0.0,0.0,0.0,0.0,0.0,0.0,0.0,0.0,0.0,0.0,0.0,0.0,0.0,0.0,0.0,0.0,0.0,0.0,0.0,0.0,0.0,0.0,0.0,0.0,0.0,0.0,0.0,0.0,0.0,0.0,0.0,0.0,0.0,0.0,0.0,0.0,0.0,0.0,0.0,0.0,0.0,0.0,0.0,0.0,0.0,0.0,0.0,0.0,0.0,0.0,0.0,0.0,0.0,0.0,0.0,0.0,0.0,0.0,0.0,0.0,0.0,0.0,0.0,0.0,0.0,0.0,0.0,0.0,0.0,0.0,0.0,0.0,0.0,0.0,0.0,0.0,0.0,0.0,0.0,0.0,0.0,0.0,0.0,0.0,0.0,0.0,0.0,0.0,0.0,0.0,0.0,0.0,0.0,0.0,0.0,0.0,0.0,0.0,0.0,0.0,0.0,0.0,0.0,0.0,0.0,0.0,0.0,0.0,0.0,0.0,0.0,0.0,0.0,0.0,0.0,0.0,0.0,0.0,0.0,0.0,0.0,0.0,0.0,0.0,0.0,0.0,0.0,0.0,0.0,0.0,0.0,0.0,0.0,0.0,0.0,0.0,0.0,0.0,0.0,0.0,0.0,0.0,0.0,0.0,0.0,0.0,0.0,0.0,0.0,0.0,0.0,0.0,0.0,0.0,0.0,0.0,0.0,0.0,0.0,0.0,0.0,0.0,0.0,0.0,0.0,0.0,0.0,0.0,0.0,0.0,0.0,0.0,0.0,0.0,0.0,0.0,0.0,0.0,0.0,0.0,0.0,0.0,0.0,0.0,0.0,0.0,0.0,0.0,0.0,0.0,0.0,0.0,0.0,0.0,0.0,0.0,0.0,0.0,0.0,0.0,0.0,0.0,0.0,0.0,0.0,0.0,0.0,0.0,0.0,0.0,0.0,0.0,0.0,0.0,0.0,0.0,0.0,0.0,0.0,0.0,0.0,0.0,0.0,0.0,0.0,0.0,0.0,0.0,0.0,0.0,0.0,0.0,0.0,0.0,0.0,0.0,0.0,0.0,0.0,0.0,0.0,0.0,0.0,0.0,0.0,0.0,0.0,0.0,0.0,0.0,0.0,0.0,0.0,0.0,0.0,0.0,0.0,0.0,0.0,0.0,0.0,0.0,0.0,0.0,0.0,0.0,0.0,0.0,0.0,0.0,0.0,0.0,0.0,0.0,0.0,0.0,0.0,0.0,0.0,0.0,0.0,0.0,0.0,0.0,0.0,0.0,0.0,0.0,0.0,0.0,0.0,0.0,0.0,0.0,0.0,0.0,0.0,0.0,0.0,0.0,0.0,0.0,0.0,0.0,0.0,0.0,0.0,0.0,0.0,0.0,0.0,0.0,-2.8056,0.0,0.0,0.0,0.0,0.0,0.0,0.0,0.0,0.0,0.0,0.0,0.0,0.0,0.0,0.0,0.0,0.0,0.0,0.0,0.0,0.0,0.0,0.0,0.0,0.0,0.0,0.0,0.0,0.0,0.0,0.0,0.0,0.0,0.0,0.0,0.0,0.0,0.0,0.0,0.0,0.0,0.0,0.0,0.0,0.0,0.0,0.0,0.0,0.0,0.0,0.0,0.0,0.0,0.0,0.0,0.0,0.0,0.0,0.0,0.0,0.0,0.0,0.0,0.0,0.0,0.0,0.0,0.0,0.0,0.0,0.0,0.0,0.0,0.0,0.0,0.0,0.0,0.0,0.0,0.0,0.0,0.0,0.0,0.0,0.0,0.0,0.0,0.0,0.0,0.0,0.0,0.0,0.0,0.0,0.0,0.0,0.0,0.0,0.0,0.0,0.0,0.0,0.0,0.0,0.0,0.0,0.0,0.0,0.0,0.0,0.0,0.0,0.0,0.0,0.0,0.0,-2.7914,0.0,0.0,0.0,0.0,0.0,0.0,0.0,0.0,0.0,0.0,0.0,0.0,0.0,0.0,0.0,0.0,0.0,0.0,0.0,0.0,0.0,0.0,0.0,0.0,0.0,0.0,0.0,0.0,0.0,0.0,0.0,0.0,0.0,0.0,0.0,0.0,0.0,0.0,0.0,0.0,0.0,0.0,0.0,0.0,0.0,0.0,0.0,0.0,0.0,0.0,0.0,0.0,0.0,0.0,0.0,0.0,0.0,0.0,0.0,0.0,0.0,0.0,0.0,0.0,0.0,0.0,0.0,0.0,0.0,0.0,0.0,0.0,0.0,0.0,0.0,0.0,0.0,0.0,0.0,0.0,0.0,0.0,0.0,0.0,0.0,0.0,0.0,0.0,0.0,0.0,0.0,0.0,0.0,0.0,0.0,0.0,0.0,0.0,0.0,0.0,0.0,0.0,0.0,0.0,0.0,0.0,0.0,0.0,-2.9351,-2.9612,-2.9448,-2.9893,-3.0086,-3.0031,-2.8587,-2.796,-2.796,-2.796,0.0,0.0,0.0,0.0,0.0,0.0,0.0,0.0,0.0,0.0,0.0,0.0,0.0,0.0,0.0,0.0,0.0,0.0,0.0,0.0,0.0,0.0,0.0,0.0,0.0,0.0,0.0,0.0,0.0,0.0,0.0,0.0,0.0,0.0,0.0,0.0,0.0,0.0,0.0,-3.2247,-3.1996,-3.1898,0.0,0.0,0.0,0.0,0.0,0.0,0.0,0.0,0.0,0.0,0.0,0.0,0.0,0.0,0.0,0.0,0.0,0.0,0.0,0.0,0.0,0.0,0.0,0.0,0.0,0.0,0.0,0.0,0.0,0.0,0.0,0.0,0.0,0.0,0.0,0.0,0.0,0.0,0.0,0.0,0.0,0.0,0.0,0.0,-2.8898,-2.8949,0.0,0.0,0.0,0.0,0.0,0.0,0.0,0.0,0.0,0.0,0.0,0.0,0.0,-2.8921,-2.969,-2.9536,-2.9707,-3.0117,-3.0042,-3.0031,-2.9989,-3.0062,-3.0086,-3.0074,-2.988,0.0,-2.976,-2.976,0.0,0.0,0.0,0.0,0.0,0.0,0.0,0.0,0.0,0.0,0.0,0.0,0.0,0.0,0.0,0.0,0.0,0.0,0.0,0.0,0.0,0.0,0.0,0.0,0.0,0.0,0.0,0.0,0.0,0.0,0.0,0.0,0.0,0.0,0.0,0.0,0.0,0.0,0.0,0.0,0.0,-3.1883,-3.1697,-3.1582,-3.1511,-3.1351,0.0,0.0,0.0,0.0,0.0,0.0,0.0,0.0,0.0,0.0,0.0,0.0,0.0,0.0,0.0,0.0,0.0,0.0,0.0,0.0,0.0,0.0,0.0,0.0,0.0,0.0,0.0,0.0,0.0,0.0,0.0,0.0,0.0,0.0,0.0,0.0,0.0,0.0,0.0,-2.918,-2.876,-2.8942,-2.8552,-2.8497,0.0,0.0,0.0,0.0,0.0,0.0,0.0,0.0,0.0,-2.9111,-2.9417,-2.9862,-3.0464,-3.0652,-3.1033,-3.1588,-3.1789,-3.1889,-3.1889,-3.1889,-3.1889,-3.1889,-3.1889,-3.1889,-3.1793,-3.0591,-3.014,-3.0224,0.0,0.0,0.0,0.0,-3.0295,-3.0224,0.0,0.0,0.0,0.0,0.0,0.0,0.0,0.0,0.0,0.0,0.0,0.0,0.0,0.0,0.0,0.0,0.0,0.0,0.0,0.0,0.0,0.0,0.0,0.0,0.0,0.0,0.0,0.0,0.0,0.0,0.0,0.0,0.0,0.0,0.0,-3.1575,-3.1292,-3.1102,-3.1014,0.0,0.0,0.0,0.0,0.0,0.0,0.0,0.0,0.0,0.0,0.0,0.0,0.0,0.0,0.0,0.0,0.0,0.0,0.0,0.0,0.0,0.0,0.0,0.0,0.0,0.0,0.0,0.0,0.0,0.0,0.0,0.0,0.0,0.0,0.0,0.0,0.0,0.0,-2.9063,-2.8724,-2.9085,-2.8782,-2.8776,0.0,0.0,0.0,0.0,0.0,0.0,-2.8883,-2.971,-3.0133,-3.0126,-3.0658,-3.1136,-3.1492,-3.1934,-3.2286,-3.2707,-3.3104,-3.3284,-3.3284,-3.3284,-3.3284,-3.3284,-3.3284,-3.3284,-3.3164,-3.1565,-3.0903,-3.0903,-3.0903,-3.0903,-3.0903,-3.0903,-3.0903,-3.0903,0.0,0.0,0.0,0.0,0.0,0.0,0.0,0.0,0.0,0.0,0.0,0.0,0.0,0.0,0.0,0.0,0.0,0.0,0.0,0.0,0.0,0.0,0.0,0.0,0.0,0.0,0.0,0.0,0.0,0.0,0.0,0.0,0.0,0.0,0.0,0.0,-3.1292,-3.094,-3.0821,-3.0791,0.0,0.0,0.0,0.0,0.0,0.0,0.0,0.0,0.0,0.0,0.0,0.0,0.0,0.0,0.0,0.0,0.0,0.0,0.0,0.0,0.0,0.0,0.0,0.0,0.0,0.0,0.0,0.0,0.0,0.0,0.0,0.0,0.0,0.0,0.0,0.0,0.0,0.0,0.0,-2.9153,-2.916,0.0,0.0,0.0,0.0,-3.0114,-2.9747,-2.9694,-2.9983,-3.0537,-3.1067,-3.1573,-3.2126,-3.2635,-3.3164,-3.32,-3.3224,-3.3248,-3.3272,-3.3284,-3.3284,-3.3284,-3.3284,-3.3284,-3.3284,-3.3284,-3.3284,-3.3176,-3.3128,-3.3128,-3.3128,-3.3128,-3.3128,-3.3128,-3.3128,-3.3128,0.0,0.0,0.0,0.0,0.0,0.0,0.0,0.0,0.0,0.0,0.0,0.0,0.0,0.0,0.0,0.0,0.0,0.0,0.0,0.0,0.0,0.0,0.0,0.0,0.0,0.0,0.0,0.0,0.0,0.0,0.0,0.0,0.0,0.0,0.0,0.0,0.0,0.0,-3.1893,-3.1893,-3.183,-3.183,0.0,0.0,0.0,0.0,0.0,0.0,0.0,0.0,0.0,0.0,0.0,0.0,0.0,0.0,0.0,0.0,0.0,0.0,0.0,0.0,0.0,0.0,0.0,0.0,0.0,0.0,0.0,0.0,0.0,0.0,0.0,0.0,0.0,0.0,0.0,0.0,0.0,-2.9714,-2.9782,0.0,-3.0495,-3.0629,-3.0695,-3.0819,-3.1234,-3.1532,-3.1637,-3.2142,-3.2515,-3.2695,-3.2911,-3.326,-3.3765,-3.4102,-3.4451,-3.4787,-3.5136,-3.5292,-3.5292,-3.5292,-3.5292,-3.5292,-3.5292,-3.5292,-3.5292,-3.5292,-3.4511,-3.3284,-3.3284,-3.3284,-3.3284,-3.3284,-3.3284,-3.3284,0.0,0.0,0.0,0.0,0.0,0.0,0.0,0.0,0.0,0.0,0.0,0.0,0.0,0.0,0.0,0.0,0.0,0.0,0.0,0.0,0.0,0.0,0.0,0.0,0.0,0.0,0.0,0.0,0.0,0.0,0.0,0.0,0.0,0.0,0.0,0.0,0.0,0.0,0.0,-3.2481,-3.2481,-3.2481,-3.2481,0.0,0.0,0.0,0.0,0.0,0.0,0.0,0.0,0.0,0.0,0.0,0.0,0.0,0.0,0.0,0.0,0.0,0.0,0.0,0.0,0.0,0.0,0.0,0.0,0.0,0.0,0.0,0.0,0.0,0.0,0.0,0.0,0.0,0.0,0.0,-3.047,-3.0798,-3.0979,-3.1253,-3.1854,-3.1982,-3.1994,-3.1994,-3.2494,-3.2767,-3.2767,-3.3428,-3.3813,-3.3813,-3.415,-3.4499,-3.4787,-3.5184,-3.5533,-3.5881,-3.6242,-3.6411,-3.6411,-3.6411,-3.6411,-3.6411,-3.6411,-3.6411,-3.6411,-3.6411,-3.5593,-3.433,-3.415,-3.4078,-3.4054,-3.3873,-3.3813,-3.3813,0.0,0.0,0.0,0.0,0.0,0.0,0.0,0.0,0.0,0.0,0.0,0.0,0.0,0.0,0.0,0.0,0.0,0.0,0.0,0.0,0.0,0.0,0.0,0.0,0.0,0.0,0.0,0.0,0.0,0.0,0.0,0.0,0.0,0.0,0.0,0.0,0.0,0.0,0.0,0.0,-3.2582,-3.2568,-3.2539,0.0,0.0,0.0,0.0,0.0,0.0,0.0,0.0,0.0,0.0,0.0,0.0,0.0,0.0,0.0,0.0,0.0,0.0,0.0,0.0,0.0,0.0,0.0,0.0,0.0,0.0,0.0,0.0,0.0,0.0,0.0,0.0,0.0,-3.1226,-3.119,-3.1502,-3.2402,-3.2652,-3.2928,-3.3461,-3.3567,-3.3633,-3.3633,-3.3496,-3.338,-3.338,-3.433,-3.4823,-3.4823,-3.5869,-3.6411,-3.6411,-3.6423,-3.6423,-3.6435,-3.6447,-3.6459,-3.6459,-3.6459,-3.6459,-3.6459,-3.6459,-3.6459,-3.6459,-3.6459,-3.6459,-3.6398,-3.5857,-3.5641,-3.5581,-3.5015,-3.4823,-3.4823,0.0,0.0,0.0,0.0,0.0,0.0,0.0,0.0,0.0,0.0,0.0,0.0,0.0,0.0,0.0,0.0,0.0,0.0,0.0,0.0,0.0,0.0,0.0,0.0,0.0,0.0,0.0,0.0,0.0,0.0,0.0,0.0,0.0,0.0,0.0,0.0,0.0,0.0,0.0,0.0,0.0,-3.4298,-3.3891,0.0,0.0,0.0,0.0,0.0,0.0,0.0,0.0,0.0,0.0,0.0,0.0,0.0,0.0,0.0,0.0,0.0,0.0,0.0,0.0,0.0,0.0,0.0,0.0,0.0,0.0,0.0,0.0,0.0,0.0,0.0,0.0,-3.2927,-3.2044,-3.2418,-3.2895,-3.3171,-3.3479,-3.3617,-3.357,-3.4097,-3.4498,-3.4498,-3.5161,-3.5545,-3.5545,-3.5821,-3.5966,-3.5966,-3.6254,-3.6411,-3.6411,-3.6783,-3.6976,-3.6976,-3.736,-3.7553,-3.7553,-3.7553,-3.7553,-3.7553,-3.7553,-3.7553,-3.7553,-3.7553,-3.7553,-3.7457,-3.6543,-3.6194,-3.617,-3.6026,-3.5966,-3.5966,0.0,0.0,0.0,0.0,0.0,0.0,0.0,0.0,0.0,0.0,0.0,0.0,0.0,0.0,0.0,0.0,0.0,0.0,0.0,0.0,0.0,0.0,0.0,0.0,0.0,0.0,0.0,0.0,0.0,0.0,0.0,0.0,0.0,0.0,0.0,0.0,0.0,0.0,0.0,0.0,0.0,0.0,-3.482,-3.482,-3.4414,-3.3862,-3.3862,-3.363,-3.3267,-3.3006,0.0,0.0,0.0,0.0,0.0,0.0,0.0,0.0,0.0,0.0,0.0,0.0,0.0,0.0,0.0,0.0,0.0,0.0,0.0,0.0,0.0,0.0,0.0,0.0,-3.3553,-3.4067,-3.3977,-3.3938,-3.4092,-3.4475,-3.4629,-3.4764,-3.4919,-3.5271,-3.5485,-3.5485,-3.6062,-3.6411,-3.6411,-3.6819,-3.7072,-3.7072,-3.7505,-3.7745,-3.7745,-3.8046,-3.8202,-3.8202,-3.8515,-3.8659,-3.8659,-3.8659,-3.8659,-3.8659,-3.8659,-3.8659,-3.8659,-3.8659,-3.8659,0.0,0.0,0.0,0.0,0.0,-3.6411,-3.6411,0.0,0.0,0.0,0.0,0.0,0.0,0.0,0.0,0.0,0.0,0.0,0.0,0.0,0.0,0.0,0.0,0.0,0.0,0.0,0.0,0.0,0.0,0.0,0.0,0.0,0.0,0.0,0.0,0.0,0.0,0.0,0.0,0.0,0.0,0.0,0.0,0.0,0.0,0.0,0.0,0.0,0.0,-3.5494,-3.5436,-3.5043,-3.4501,-3.4443,-3.4414,-3.4327,-3.3794,0.0,0.0,0.0,0.0,0.0,0.0,0.0,0.0,0.0,0.0,0.0,0.0,0.0,0.0,0.0,0.0,0.0,0.0,0.0,0.0,0.0,0.0,0.0,0.0,-3.4326,-3.49,-3.6204,-3.5629,-3.5328,-3.603,-3.5949,-3.6027,-3.668,-3.6611,-3.6519,-3.6579,-3.6639,-3.6699,-3.6759,0.0,0.0,0.0,0.0,-3.9609,-3.9609,-3.9609,-3.9609,-3.9609,-3.9609,-3.9609,-3.9609,-3.9609,-3.9609,-3.9609,-3.9609,-3.9609,-3.9609,-3.9609,-3.9609,-3.9465,-3.8022,-3.7469,-3.7409,-3.694,-3.6723,-3.6675,0.0,0.0,0.0,0.0,0.0,0.0,0.0,0.0,0.0,0.0,0.0,0.0,0.0,0.0,0.0,0.0,0.0,0.0,0.0,0.0,0.0,0.0,0.0,0.0,0.0,0.0,0.0,0.0,0.0,0.0,0.0,0.0,0.0,0.0,0.0,0.0,0.0,0.0,0.0,0.0,0.0,0.0,-3.6069,-3.5595,-3.5319,-3.5145,-3.4603,-3.4414,-3.4385,-3.4283,-3.424,-3.4211,-3.408,0.0,0.0,0.0,0.0,0.0,0.0,0.0,0.0,0.0,0.0,0.0,0.0,0.0,0.0,0.0,0.0,0.0,0.0,0.0,0.0,-3.4856,-3.5514,-3.6087,-3.6345,-3.696,-3.7255,-3.6986,-3.6923,-3.6797,-3.6488,-3.6847,-3.7216,-3.7649,-3.8094,-3.8539,-3.8972,-3.9176,-3.9296,-3.9296,-3.9501,-3.9609,-3.9609,-3.9609,-3.9609,-3.9609,0.0,0.0,-3.9609,-3.9609,-3.9609,-3.9609,-3.9609,-3.9609,-3.9609,-3.9609,-3.9609,-3.9573,-3.926,-3.914,-3.9128,-3.902,-3.8719,-3.8359,0.0,0.0,0.0,0.0,0.0,0.0,0.0,0.0,0.0,0.0,0.0,0.0,0.0,0.0,0.0,0.0,0.0,0.0,0.0,0.0,0.0,0.0,0.0,0.0,0.0,0.0,0.0,0.0,0.0,0.0,0.0,0.0,0.0,0.0,0.0,0.0,0.0,0.0,0.0,0.0,0.0,0.0,-3.7186,-3.6577,-3.5973,-3.5348,-3.5009,-3.4675,-3.4414,-3.4414,-3.4414,-3.4414,-3.4414,-3.4196,-3.3935,0.0,0.0,0.0,0.0,0.0,0.0,0.0,0.0,0.0,0.0,0.0,0.0,0.0,0.0,-3.4981,0.0,0.0,-3.5729,-3.5734,-3.6565,-3.7299,-3.76,-3.8341,-3.8541,-3.7712,-3.7819,-3.7883,-3.7641,-3.8094,-3.8515,-3.8779,-3.9056,-3.9333,-3.9597,-3.9862,-4.0006,-4.0006,-4.0258,-4.0391,-4.0391,-4.0391,-4.0391,-4.0391,-4.0391,-4.0391,-4.0391,-4.0391,-4.0391,-4.0391,-4.0391,-4.0391,-4.0391,-4.0391,-4.0391,-4.0391,-4.0391,-4.0066,-3.9609,-3.9609,-3.9441,-3.9212,0.0,0.0,0.0,0.0,0.0,0.0,0.0,0.0,0.0,0.0,0.0,0.0,0.0,0.0,0.0,0.0,0.0,0.0,0.0,0.0,0.0,0.0,0.0,0.0,0.0,0.0,0.0,0.0,0.0,0.0,0.0,0.0,0.0,0.0,0.0,0.0,0.0,0.0,0.0,0.0,0.0,0.0,-3.813,-3.7535,-3.6649,-3.5741,-3.5494,-3.5058,-3.4574,-3.4457,-3.4414,-3.4414,-3.4414,-3.4414,-3.4414,-3.4414,-3.4501,0.0,0.0,0.0,0.0,0.0,0.0,0.0,0.0,0.0,-3.6121,-3.598,-3.5747,-3.5574,-3.5704,-3.6378,-3.6868,-3.6707,-3.7513,-3.8379,-3.8944,-3.9509,-3.9515,-3.865,-3.8902,-3.9079,-3.899,-3.9357,-3.9645,-3.9753,-3.9765,-3.9801,-3.991,-4.0319,-4.0547,-4.0547,-4.0956,-4.1184,-4.1184,-4.1184,-4.1184,-4.1184,-4.1184,-4.1184,-4.1184,-4.1184,-4.1184,-4.1184,-4.1184,-4.1184,-4.1184,-4.1184,-4.1184,-4.1184,-4.1184,-4.0667,-3.991,-3.991,-3.985,-3.9765,0.0,0.0,0.0,0.0,0.0,0.0,0.0,0.0,0.0,0.0,0.0,0.0,0.0,0.0,0.0,0.0,0.0,0.0,0.0,0.0,0.0,0.0,0.0,0.0,0.0,0.0,0.0,0.0,0.0,0.0,0.0,0.0,0.0,0.0,0.0,0.0,0.0,0.0,0.0,0.0,0.0,0.0,-3.813,-3.7535,-3.7215,-3.6939,-3.5813,-3.5348,-3.5203,-3.4603,-3.4414,-3.4414,-3.4414,-3.4414,-3.4414,-3.4414,0.0,-3.529,-3.529,-3.5662,-3.6112,-3.6185,-3.7099,-3.7872,0.0,0.0,-3.8482,-3.7466,-3.7375,-3.7281,-3.6985,-3.7206,-3.7564,-3.78,-3.8354,-3.8969,-3.9521,-4.0074,-4.047,-4.0562,-4.0429,-4.011,-3.9568,-3.9573,-3.9801,-4.027,-4.0306,-4.0511,-4.098,-4.1064,-4.11,-4.11,-4.1148,-4.1184,-4.1184,-4.1184,-4.1184,-4.1184,-4.1184,-4.1184,-4.1184,-4.1184,-4.1184,-4.1184,-4.1184,-4.1184,-4.1184,-4.1184,-4.1184,-4.1184,-4.1184,-4.1112,-4.1004,-4.1004,-4.0715,-4.0306,0.0,0.0,0.0,0.0,0.0,0.0,0.0,0.0,0.0,0.0,0.0,0.0,0.0,0.0,0.0,0.0,0.0,0.0,0.0,0.0,0.0,0.0,0.0,0.0,0.0,0.0,0.0,0.0,0.0,0.0,0.0,0.0,0.0,0.0,0.0,0.0,0.0,0.0,0.0,0.0,0.0,0.0,-3.7651,-3.7404,-3.707,-3.6606,-3.5726,-3.516,0.0,0.0,-3.4414,-3.4414,-3.4414,-3.4661,-3.4965,-3.4965,-3.5415,0.0,-3.5909,-3.6649,0.0,0.0,-3.8362,-3.9189,-3.8814,-3.8965,-3.9099,-3.88,-3.8546,-3.8379,-3.8329,-3.8605,-3.8736,0.0,-3.9245,-3.991,-4.0136,-4.0915,-4.1447,-4.14,-4.1545,-4.1274,-4.0413,-4.0599,-4.0765,-4.0836,-4.086,-4.0944,-4.1172,-4.1184,-4.1184,-4.1184,-4.1184,-4.1184,-4.1184,-4.1184,-4.1184,-4.1184,-4.1184,-4.1184,-4.1184,-4.1344,-4.1516,-4.17,-4.17,-4.1631,-4.1447,-4.1447,-4.1344,-4.1184,-4.1184,-4.1184,-4.1184,-4.1184,-4.104,-4.086,0.0,0.0,0.0,0.0,0.0,0.0,0.0,0.0,0.0,0.0,0.0,0.0,0.0,0.0,0.0,0.0,0.0,0.0,0.0,0.0,0.0,0.0,0.0,0.0,0.0,0.0,0.0,0.0,0.0,0.0,0.0,0.0,0.0,0.0,0.0,0.0,0.0,0.0,0.0,0.0,0.0,0.0,-3.7085,-3.6896,-3.6496,-3.6011,-3.577,-3.5328,0.0,0.0,-3.4936,-3.4936,-3.4936,-3.5256,-3.5654,-3.5654,-3.6083,-3.6664,-3.7012,0.0,0.0,-3.8681,-3.9552,-4.0343,-4.017,-4.0153,-4.0166,-4.0302,-4.0066,-3.9792,-3.9682,-3.9793,0.0,-3.931,-3.9937,-4.0563,-4.0727,-4.1555,-4.2153,-4.2083,-4.2389,-4.2308,-4.134,-4.1557,-4.1675,-4.1471,-4.1471,-4.1471,-4.1471,-4.1471,-4.1471,-4.1471,-4.1344,-4.1287,-4.1287,-4.1242,-4.1242,-4.1287,-4.1287,-4.1344,-4.1471,-4.1631,-4.1859,-4.211,-4.211,-4.1972,-4.1732,-4.1732,-4.1618,-4.1471,-4.1471,-4.1471,-4.1414,-4.1344,-4.123,-4.1184,0.0,0.0,0.0,0.0,0.0,0.0,0.0,0.0,0.0,0.0,0.0,0.0,0.0,0.0,0.0,0.0,0.0,0.0,0.0,0.0,0.0,0.0,0.0,0.0,0.0,0.0,0.0,0.0,0.0,0.0,0.0,0.0,0.0,0.0,0.0,0.0,0.0,0.0,0.0,0.0,0.0,0.0,-3.657,-3.5912,-3.556,-3.5508,-3.6069,0.0,0.0,0.0,-3.6243,-3.6243,-3.6243,-3.6272,0.0,-3.6272,-3.6751,0.0,0.0,0.0,-3.9305,-3.99,-4.0554,-4.1181,-4.1542,-4.2134,-4.251,-4.2211,-4.2112,-4.1824,-4.0944,-4.0543,-4.0309,-4.0109,-4.0293,-4.0701,-4.1188,-4.1806,-4.2401,-4.2886,-4.2961,-4.2849,0.0,-4.2243,-4.2098,-4.2041,-4.2041,-4.2041,-4.2041,-4.2041,-4.2041,-4.2041,-4.1732,-4.1606,-4.1606,-4.1344,-4.1344,-4.1606,-4.1606,-4.1732,-4.2041,-4.2098,-4.211,-4.211,-4.211,-4.2098,-4.2098,-4.2098,-4.2098,-4.2041,-4.2041,-4.2041,-4.2041,-4.1732,-4.1447,-4.1184,0.0,0.0,0.0,0.0,0.0,0.0,0.0,0.0,0.0,0.0,0.0,0.0,0.0,0.0,0.0,0.0,0.0,0.0,0.0,0.0,0.0,0.0,0.0,0.0,0.0,0.0,0.0,0.0,0.0,0.0,0.0,0.0,0.0,0.0,0.0,0.0,0.0,0.0,0.0,0.0,0.0,0.0,-3.6099,-3.5879,-3.5619,-3.5479,0.0,0.0,0.0,0.0,0.0,0.0,-3.6301,0.0,0.0,-3.7984,-3.8391,-3.8739,0.0,0.0,-4.051,-4.0713,-4.157,-4.237,-4.2335,-4.284,-4.3328,-4.3515,-4.3296,-4.293,-4.2474,-4.1905,-4.1248,-4.0516,-4.0909,-4.1276,-4.1304,-4.212,-4.2828,-4.2949,-4.2974,0.0,0.0,0.0,0.0,-4.211,-4.211,-4.211,-4.211,-4.211,-4.211,-4.211,-4.1984,-4.1915,-4.1915,-4.1814,-4.1814,-4.1915,-4.1915,-4.2086,-4.2369,-4.2369,-4.2481,-4.2706,-4.2706,-4.2594,-4.2369,-4.2369,-4.2256,-4.211,-4.211,-4.211,-4.211,-4.1984,-4.1871,-4.1757,0.0,0.0,0.0,0.0,0.0,0.0,0.0,0.0,0.0,0.0,0.0,0.0,0.0,0.0,0.0,0.0,0.0,0.0,0.0,0.0,0.0,0.0,0.0,0.0,0.0,0.0,0.0,0.0,0.0,0.0,0.0,0.0,0.0,0.0,0.0,0.0,0.0,0.0,0.0,0.0,0.0,0.0,-3.5807,-3.5804,-3.5501,0.0,0.0,0.0,0.0,0.0,0.0,0.0,0.0,-3.7273,-3.7839,-3.8884,-3.9204,-3.9378,0.0,-4.0771,-4.1207,-4.1671,-4.2382,-4.308,-4.3415,-4.3603,-4.3863,-4.4246,-4.3889,-4.3466,-4.3172,-4.2617,-4.1874,-4.1058,-4.1273,-4.1516,-4.1465,-4.2162,-4.2816,-4.2949,-4.2974,0.0,0.0,0.0,0.0,-4.2425,-4.2425,-4.2425,-4.2425,-4.2425,-4.2425,-4.2425,-4.2324,-4.2268,-4.2268,-4.2155,-4.2155,-4.2268,-4.2369,-4.2538,-4.2694,-4.2694,-4.2806,-4.2974,-4.2974,-4.2862,-4.2694,-4.2694,-4.2594,-4.2425,-4.2425,-4.2425,-4.2437,-4.2268,-4.2324,-4.2369,0.0,0.0,0.0,0.0,0.0,0.0,0.0,0.0,0.0,0.0,0.0,0.0,0.0,0.0,0.0,0.0,0.0,0.0,0.0,0.0,0.0,0.0,0.0,0.0,0.0,0.0,0.0,0.0,0.0,0.0,0.0,0.0,0.0,0.0,0.0,0.0,0.0,0.0,0.0,0.0,0.0,0.0,-3.5688,-3.5554,0.0,0.0,0.0,0.0,0.0,0.0,0.0,0.0,0.0,0.0,-3.8376,-3.9044,-3.9276,-3.9567,-4.08,-4.1163,-4.1482,-4.2687,-4.3036,-4.3398,-4.4574,-4.4429,-4.4153,-4.4498,-4.4035,-4.3482,0.0,0.0,-4.2188,-4.1749,-4.1515,-4.1437,-4.1709,-4.2011,-4.2414,0.0,0.0,0.0,0.0,0.0,0.0,-4.2974,0.0,-4.2974,-4.2974,-4.2974,-4.2974,-4.2974,-4.2694,-4.2525,-4.2525,-4.2256,-4.2256,-4.2525,-4.2862,-4.2974,-4.2974,-4.2974,-4.2974,-4.2974,-4.2974,-4.2974,-4.2974,-4.2974,-4.2974,-4.2974,-4.2974,-4.2974,-4.2974,-4.2638,-4.275,-4.2918,0.0,0.0,0.0,0.0,0.0,0.0,0.0,0.0,0.0,0.0,0.0,0.0,0.0,0.0,0.0,0.0,0.0,0.0,0.0,0.0,0.0,0.0,0.0,0.0,0.0,0.0,0.0,0.0,0.0,0.0,0.0,0.0,0.0,0.0,0.0,0.0,0.0,0.0,0.0,0.0,0.0,0.0,-3.5894,0.0,0.0,0.0,0.0,0.0,0.0,0.0,0.0,0.0,0.0,0.0,-3.9073,-3.9683,0.0,-4.08,-4.1613,-4.2165,-4.2586,-4.2919,-4.3703,-4.4371,-4.4255,-4.4443,-4.4574,-4.4197,-4.3878,-4.3442,0.0,0.0,0.0,-4.1689,-4.1894,0.0,-4.2014,-4.2281,0.0,0.0,0.0,-4.2974,-4.2974,-4.2974,0.0,0.0,-4.2974,-4.2974,-4.2974,-4.2974,-4.2974,-4.2974,-4.2918,-4.2862,-4.2862,-4.2806,-4.2806,-4.2862,-4.2974,-4.2974,-4.2974,-4.2974,-4.2974,-4.2974,-4.2974,-4.2974,-4.2974,-4.2974,-4.2974,-4.2974,-4.2974,-4.2974,-4.2974,-4.2918,-4.2918,-4.2974,0.0,0.0,0.0,0.0,0.0,0.0,0.0,0.0,0.0,0.0,0.0,0.0,0.0,0.0,0.0,0.0,0.0,0.0,0.0,0.0,0.0,0.0,0.0,0.0,0.0,0.0,0.0,0.0,0.0,0.0,0.0,0.0,0.0,0.0,0.0,0.0,0.0,0.0,0.0,0.0,0.0,0.0,0.0,0.0,0.0,0.0,0.0,0.0,0.0,0.0,0.0,-3.8202,-3.8202,-3.8667,-3.932,-3.9915,0.0,-4.1294,-4.2237,-4.2731,-4.3123,-4.3674,-4.4153,-4.4472,-4.44,-4.4211,-4.3964,-4.3616,-4.3212,0.0,0.0,0.0,0.0,0.0,0.0,0.0,-4.241,-4.2332,-4.241,0.0,-4.2974,0.0,-4.2974,-4.2974,-4.2974,0.0,-4.2974,-4.2974,-4.2974,-4.2974,-4.2974,-4.2974,-4.2974,-4.2974,-4.2974,-4.2974,-4.2974,-4.2974,-4.2974,-4.2974,-4.2974,-4.2974,-4.2974,-4.2974,0.0,-4.2974,-4.2974,-4.2974,-4.2974,-4.2974,-4.2974,-4.2974,-4.2974,-4.2974,-4.2974,-4.2974,0.0,0.0,0.0,0.0,0.0,0.0,0.0,0.0,0.0,0.0,0.0,0.0,0.0,0.0,0.0,0.0,0.0,0.0,0.0,0.0,0.0,0.0,0.0,0.0,0.0,0.0,0.0,0.0,0.0,0.0,0.0,0.0,0.0,0.0,0.0,0.0,0.0,0.0,0.0,0.0,0.0,0.0,0.0,0.0,0.0,0.0,0.0,0.0,0.0,0.0,-3.8202,-3.8202,-3.8202,-3.8725,-3.9421,-3.9944,-4.0641,-4.1482,-4.2673,-4.305,-4.3413,-4.4589,-4.4501,-4.4226,-4.4661,-4.3848,-4.2977,-4.289,0.0,0.0,-4.2422,0.0,-4.2215,-4.2813,0.0,-4.1688,-4.2839,-4.2302,-4.2097,-4.2947,-4.303,-4.2974,-4.2974,-4.2974,-4.2974,-4.2974,-4.2974,-4.2974,-4.2974,-4.2974,-4.2974,-4.2974,-4.2974,-4.2974,-4.2974,-4.2974,-4.2974,-4.2974,-4.2974,-4.2974,-4.2974,-4.2974,-4.2974,-4.2974,-4.2974,-4.2974,-4.2974,-4.2974,-4.2974,-4.2974,-4.2974,-4.2974,-4.2974,-4.2974,-4.2974,-4.2986,0.0,0.0,0.0,0.0,0.0,0.0,0.0,0.0,0.0,0.0,-3.119,-3.119,0.0,0.0,0.0,0.0,0.0,0.0,0.0,0.0,0.0,0.0,0.0,0.0,0.0,0.0,0.0,0.0,0.0,0.0,0.0,0.0,0.0,0.0,0.0,0.0,0.0,0.0,0.0,0.0,0.0,0.0,0.0,0.0,0.0,0.0,0.0,0.0,0.0,0.0,-3.8202,-3.8202,-3.8202,-3.9,-3.9958,-4.006,-4.096,-4.2078,-4.2803,-4.3398,-4.3993,-4.4705,-4.4806,-4.4632,-4.424,-4.3544,0.0,0.0,0.0,-4.2024,-4.1888,0.0,0.0,-4.257,0.0,0.0,0.0,0.0,0.0,0.0,0.0,0.0,0.0,0.0,0.0,0.0,0.0,-4.2974,-4.2974,-4.2974,-4.2974,-4.2974,-4.2974,-4.2974,-4.2974,-4.2974,-4.2974,-4.2974,-4.2974,-4.2974,-4.2974,-4.2974,-4.2974,-4.2974,-4.2974,0.0,-4.2974,-4.2974,-4.2974,-4.2974,-4.2974,-4.2974,-4.2974,-4.2974,-4.2974,-4.3037,0.0,0.0,0.0,0.0,0.0,0.0,0.0,-3.1684,-3.119,-3.119,-3.119,-3.119,-3.119,-3.119,0.0,0.0,0.0,0.0,0.0,0.0,0.0,0.0,0.0,0.0,0.0,0.0,0.0,0.0,0.0,0.0,0.0,0.0,0.0,0.0,0.0,0.0,0.0,0.0,0.0,0.0,0.0,0.0,0.0,0.0,0.0,0.0,0.0,0.0,0.0,0.0,-3.8277,-3.8202,-3.8202,-3.9073,-4.0104,-4.0104,-4.1047,-4.231,-4.3253,-4.3747,-4.4139,-4.4734,-4.4647,-4.4255,-4.3616,0.0,0.0,0.0,0.0,-4.2051,-4.1939,0.0,0.0,0.0,0.0,0.0,0.0,0.0,0.0,0.0,0.0,0.0,0.0,0.0,0.0,0.0,0.0,-4.2974,-4.2974,-4.2974,-4.2974,-4.2974,-4.2974,-4.2974,-4.2974,-4.2974,-4.2974,-4.2974,-4.2974,-4.2974,-4.2974,-4.2974,-4.2974,-4.2974,-4.2974,0.0,-4.2974,-4.2974,-4.2974,-4.2974,-4.2974,-4.2974,-4.2974,-4.2974,-4.3162,-4.3438,0.0,0.0,0.0,0.0,0.0,0.0,0.0,-3.1785,-3.119,-3.119,-3.119,-3.119,-3.119,-3.119,-3.119,0.0,0.0,0.0,0.0,0.0,0.0,0.0,0.0,0.0,0.0,0.0,0.0,0.0,0.0,0.0,0.0,0.0,0.0,0.0,0.0,0.0,0.0,0.0,0.0,0.0,0.0,0.0,0.0,0.0,0.0,0.0,0.0,0.0,0.0,0.0,-3.8404,-3.824,-3.8202,-3.9073,-4.0104,-4.0104,-4.1047,-4.2339,-4.3471,-4.3776,-4.3921,-4.4545,-4.4226,-4.3645,-4.3108,-4.2528,0.0,0.0,0.0,-4.2092,-4.2092,0.0,0.0,0.0,0.0,0.0,0.0,0.0,0.0,0.0,0.0,0.0,0.0,0.0,0.0,0.0,0.0,0.0,-4.2974,-4.2974,-4.2974,-4.2974,-4.2974,-4.2974,-4.2974,-4.2974,-4.2974,-4.2974,-4.2974,-4.2974,-4.2974,-4.2974,-4.2974,-4.2974,-4.2974,0.0,0.0,-4.2974,-4.2974,-4.2974,-4.2974,-4.2974,-4.2974,-4.2974,-4.3325,-4.3815,0.0,0.0,0.0,0.0,0.0,0.0,0.0,-3.2104,-3.119,-3.119,-3.119,-3.119,-3.119,-3.119,-3.119,0.0,0.0,0.0,0.0,0.0,0.0,0.0,0.0,0.0,0.0,0.0,0.0,0.0,0.0,0.0,0.0,0.0,0.0,0.0,0.0,0.0,0.0,0.0,0.0,0.0,0.0,0.0,0.0,0.0,0.0,0.0,0.0,0.0,0.0,0.0,0.0,-3.8441,-3.824,-3.9073,-4.0104,-4.0104,0.0,0.0,-4.2905,-4.3079,-4.3239,-4.3906,-4.3573,-4.3065,-4.3007,0.0,0.0,0.0,-4.2092,-4.2092,-4.2092,-4.2092,0.0,0.0,0.0,0.0,0.0,0.0,0.0,0.0,0.0,0.0,0.0,0.0,0.0,0.0,0.0,0.0,-4.2974,-4.2974,-4.2974,-4.2974,-4.2974,-4.2974,-4.2974,-4.2974,-4.2974,-4.2974,-4.2974,-4.2974,-4.2974,-4.2974,-4.2974,-4.2974,-4.2974,0.0,0.0,-4.2974,-4.2974,-4.2974,-4.2974,-4.2974,-4.2974,-4.2974,-4.3325,-4.3878,0.0,0.0,0.0,0.0,0.0,0.0,-3.3406,-3.2154,-3.119,-3.119,-3.119,-3.119,-3.119,-3.119,-3.119,0.0,0.0,0.0,0.0,0.0,0.0,0.0,0.0,0.0,0.0,0.0,0.0,0.0,0.0,0.0,0.0,0.0,0.0,0.0,0.0,0.0,0.0,0.0,0.0,0.0,0.0,0.0,0.0,0.0,0.0,0.0,0.0,0.0,0.0,0.0,0.0,0.0,-3.824,-3.8826,0.0,0.0,-4.0757,-4.1715,-4.2716,-4.2992,-4.305,-4.3326,-4.3195,-4.289,-4.2528,0.0,0.0,-4.2092,-4.2092,-4.2092,-4.2092,-4.2092,-4.2254,0.0,0.0,0.0,0.0,0.0,0.0,0.0,0.0,0.0,0.0,0.0,0.0,0.0,0.0,0.0,-4.2974,-4.2974,-4.2974,-4.2974,-4.2974,-4.2974,-4.2974,-4.2974,-4.2974,-4.2974,-4.2974,-4.2974,-4.2974,-4.2974,-4.2974,-4.2974,-4.2974,0.0,0.0,-4.2974,-4.2974,-4.3011,-4.3338,-4.3476,-4.3514,-4.3853,-4.433,-4.4844,0.0,0.0,0.0,0.0,0.0,-3.3339,-3.3102,-3.2002,-3.119,-3.119,-3.119,-3.119,-3.119,-3.119,-3.119,-3.119,0.0,0.0,0.0,0.0,0.0,0.0,0.0,0.0,0.0,0.0,-3.4899,-3.4899,-3.4899,-3.4899,0.0,0.0,0.0,0.0,0.0,0.0,0.0,0.0,0.0,0.0,0.0,0.0,0.0,0.0,0.0,0.0,0.0,0.0,0.0,0.0,0.0,0.0,0.0,0.0,0.0,0.0,-4.0423,-4.1294,-4.2179,-4.2571,-4.2716,-4.2716,-4.2716,-4.2615,0.0,0.0,0.0,-4.2092,-4.2092,-4.2092,-4.2092,-4.2092,-4.2237,0.0,0.0,0.0,0.0,0.0,0.0,0.0,0.0,0.0,0.0,0.0,0.0,0.0,0.0,0.0,0.0,-4.2974,-4.2974,-4.2974,-4.2974,-4.2974,-4.2974,-4.2974,-4.2974,-4.2974,-4.2974,-4.2974,-4.2974,-4.2974,-4.2974,-4.2974,-4.2974,0.0,0.0,-4.2974,-4.3074,-4.3263,-4.3652,-4.3903,-4.4091,-4.448,-4.4982,-4.5485,0.0,0.0,0.0,0.0,0.0,0.0,-3.2429,-3.1684,-3.119,-3.119,-3.119,-3.119,-3.119,-3.119,-3.119,-3.119,0.0,0.0,0.0,0.0,0.0,0.0,0.0,0.0,0.0,0.0,-3.4899,-3.4899,-3.4899,-3.4899,-3.4899,-3.4899,0.0,0.0,0.0,0.0,0.0,0.0,0.0,0.0,0.0,0.0,0.0,0.0,0.0,0.0,0.0,0.0,0.0,0.0,0.0,0.0,0.0,0.0,0.0,0.0,-4.0104,-4.1091,-4.112,-4.1599,-4.2107,-4.2107,-4.2107,-4.2107,0.0,0.0,0.0,-4.2092,-4.2092,-4.2092,-4.2092,-4.2092,-4.2092,-4.2107,-4.2939,0.0,0.0,0.0,0.0,0.0,0.0,0.0,0.0,0.0,0.0,0.0,0.0,0.0,0.0,-4.2974,-4.2974,-4.2974,-4.2974,-4.2974,-4.2974,-4.2974,-4.2974,-4.2974,-4.2974,-4.2974,-4.2974,-4.2974,-4.2974,0.0,0.0,0.0,0.0,-4.2974,-4.33,-4.379,-4.3802,-4.4129,-4.4618,-4.4618,-4.4982,-4.5485,0.0,0.0,0.0,0.0,0.0,0.0,0.0,-3.1684,-3.119,-3.119,-3.119,-3.119,-3.119,-3.119,-3.119,-3.119,0.0,0.0,0.0,0.0,0.0,0.0,0.0,0.0,0.0,0.0,-3.4899,-3.4899,-3.4899,-3.4899,-3.4899,-3.4899,-3.5015,-3.5297,0.0,0.0,0.0,0.0,0.0,0.0,0.0,0.0,0.0,0.0,0.0,0.0,0.0,0.0,0.0,0.0,0.0,0.0,0.0,0.0,0.0,0.0,0.0,0.0,-4.0858,-4.125,-4.1526,-4.199,-4.2092,-4.2092,-4.2092,0.0,0.0,-4.2092,-4.2092,-4.2092,-4.2092,-4.2092,-4.2237,-4.2644,-4.3199,0.0,0.0,0.0,0.0,0.0,0.0,0.0,0.0,0.0,0.0,0.0,0.0,0.0,0.0,-4.2974,-4.2974,-4.2974,-4.2974,-4.2974,-4.2974,-4.2974,-4.2974,-4.2974,-4.2974,-4.2974,-4.2974,-4.2974,-4.2974,0.0,0.0,0.0,0.0,-4.3937,-4.4247,-4.4489,-4.5036,-4.5325,-4.554,-4.5695,-4.5886,-4.605,0.0,0.0,0.0,0.0,0.0,0.0,0.0,-3.1515,-3.119,-3.119,-3.119,-3.119,-3.119,-3.119,-3.119,-3.119,0.0,0.0,0.0,0.0,0.0,0.0,0.0,0.0,-3.3999,-3.4582,-3.4899,-3.4899,-3.4899,-3.4899,-3.4899,-3.4899,-3.5048,-3.5363,-3.6572,0.0,0.0,0.0,0.0,0.0,0.0,0.0,-3.6662,0.0,0.0,0.0,0.0,0.0,0.0,0.0,0.0,0.0,0.0,0.0,0.0,0.0,-3.8545,0.0,0.0,-4.0554,-4.0887,-4.1555,-4.1715,0.0,0.0,0.0,0.0,0.0,0.0,-4.2092,-4.2092,-4.2092,-4.2295,-4.289,-4.3415,0.0,0.0,0.0,0.0,0.0,0.0,0.0,0.0,0.0,0.0,0.0,0.0,0.0,0.0,-4.2974,-4.2974,-4.2974,-4.2974,-4.2974,-4.2974,-4.2974,-4.2974,-4.2974,-4.2974,-4.2974,-4.2974,-4.3085,-4.3197,0.0,0.0,0.0,0.0,-4.4895,-4.5326,-4.5611,-4.6315,-4.6572,-4.6568,-4.676,-4.6768,-4.6648,0.0,0.0,0.0,0.0,0.0,0.0,0.0,0.0,-3.119,-3.119,-3.119,-3.119,-3.119,-3.119,-3.119,-3.119,0.0,0.0,0.0,0.0,0.0,0.0,0.0,0.0,-3.4043,-3.4598,-3.4899,-3.4899,-3.4899,-3.4899,-3.4899,-3.4899,-3.5297,-3.6025,-3.6771,-3.7549,0.0,0.0,0.0,0.0,0.0,-3.7088,0.0,0.0,0.0,0.0,0.0,0.0,0.0,0.0,0.0,0.0,0.0,0.0,0.0,0.0,0.0,0.0,0.0,0.0,0.0,0.0,0.0,0.0,0.0,0.0,0.0,0.0,0.0,0.0,0.0,-4.2136,-4.2353,-4.2963,-4.3616,0.0,0.0,0.0,0.0,0.0,0.0,0.0,0.0,0.0,0.0,0.0,0.0,0.0,0.0,-4.303,-4.303,-4.2974,-4.2974,-4.2974,-4.2974,-4.2974,-4.303,-4.303,-4.303,-4.303,-4.3085,-4.3351,-4.364,0.0,0.0,0.0,0.0,-4.6003,-4.6586,-4.7073,-4.7695,-4.7919,-4.7808,-4.7808,-4.756,-4.7324,0.0,0.0,0.0,0.0,0.0,0.0,0.0,0.0,0.0,0.0,-3.119,-3.119,-3.119,-3.119,-3.119,0.0,0.0,0.0,0.0,0.0,0.0,0.0,0.0,0.0,-3.4681,-3.484,-3.4899,-3.4899,-3.4899,-3.4899,-3.4899,-3.4899,-3.5297,-3.6025,-3.6771,-3.7814,0.0,0.0,0.0,0.0,-3.7506,-3.6876,0.0,0.0,0.0,0.0,-3.7973,-3.8706,0.0,0.0,0.0,0.0,0.0,0.0,0.0,0.0,-3.8478,-3.8433,-3.8429,0.0,-3.9567,-4.0176,-4.0336,0.0,0.0,0.0,0.0,0.0,0.0,0.0,0.0,0.0,0.0,0.0,0.0,0.0,0.0,0.0,0.0,0.0,0.0,0.0,0.0,0.0,0.0,0.0,0.0,0.0,0.0,-4.3283,-4.3184,-4.303,-4.2974,-4.2974,-4.2974,-4.2974,-4.3085,-4.3283,-4.3283,-4.3517,-4.3984,-4.4081,-4.4354,0.0,0.0,0.0,-4.6206,-4.7487,-4.807,-4.83,-4.9135,-4.9338,-4.9058,-4.8842,-4.854,-4.8294,0.0,0.0,0.0,0.0,0.0,0.0,0.0,0.0,0.0,0.0,0.0,0.0,0.0,0.0,0.0,0.0,0.0,0.0,0.0,0.0,0.0,0.0,0.0,-3.4286,-3.4883,-3.4899,-3.4899,-3.4899,-3.4899,-3.4899,-3.4899,-3.5247,-3.5794,-3.6555,-3.7615,-3.85,-3.9148,-3.8914,-3.8483,-3.7956,-3.7312,0.0,0.0,0.0,0.0,0.0,-3.8257,-3.8841,0.0,-3.9388,-3.9388,-3.9388,0.0,0.0,0.0,0.0,-3.8627,-3.8478,-3.8366,-3.8553,-3.8884,-3.9523,-3.99,-4.0278,0.0,0.0,0.0,0.0,0.0,0.0,0.0,0.0,0.0,0.0,0.0,0.0,0.0,0.0,0.0,0.0,0.0,0.0,0.0,0.0,0.0,0.0,0.0,0.0,0.0,-4.3793,-4.3696,-4.3432,-4.3543,-4.3474,-4.3184,-4.3321,-4.3543,-4.3806,-4.4055,-4.4328,-4.4681,-4.4951,-4.5355,0.0,0.0,-4.6728,-4.747,-4.8889,-4.9389,-4.9487,-5.056,-5.0754,-5.0293,-5.0181,-4.9843,-4.9445,0.0,0.0,0.0,0.0,0.0,0.0,0.0,0.0,0.0,0.0,0.0,0.0,0.0,0.0,0.0,0.0,0.0,0.0,0.0,0.0,0.0,0.0,-3.4212,-3.4379,-3.4883,-3.4899,-3.4899,-3.4899,-3.5015,-3.5065,-3.5081,-3.5827,-3.6572,-3.7334,-3.8649,-3.9148,-3.8996,-3.8805,-3.8399,-3.7857,-3.7287,0.0,0.0,0.0,0.0,0.0,0.0,0.0,0.0,-3.9388,-3.9388,-3.9388,-3.9388,0.0,0.0,0.0,0.0,0.0,-3.8516,-3.8366,-3.837,-3.8913,-3.9509,-4.0133,0.0,0.0,0.0,0.0,0.0,0.0,0.0,0.0,0.0,0.0,0.0,0.0,0.0,0.0,0.0,0.0,0.0,0.0,0.0,0.0,0.0,0.0,0.0,0.0,0.0,-4.4585,-4.4422,-4.4148,-4.4354,-4.4287,-4.378,-4.3984,-4.4203,-4.4531,-4.5033,-4.5355,-4.5462,-4.6007,-4.6572,-4.7064,0.0,0.0,-4.8745,-5.001,-5.0469,-5.0569,-5.1846,-5.199,-5.1526,-5.1526,-5.1141,-5.0684,0.0,0.0,0.0,0.0,0.0,0.0,0.0,0.0,0.0,0.0,0.0,0.0,0.0,0.0,0.0,0.0,0.0,0.0,0.0,0.0,0.0,-3.4928,-3.4828,-3.4807,-3.4899,-3.4899,-3.4899,-3.4899,-3.5528,-3.5827,-3.5843,-3.6589,-3.7334,-3.8053,-3.8758,-3.9023,-3.8969,-3.86,-3.8234,-3.7905,-3.7853,0.0,0.0,0.0,0.0,0.0,0.0,0.0,0.0,-3.9388,-3.9388,-3.9388,-3.9388,0.0,0.0,0.0,0.0,0.0,-3.859,-3.8478,-3.8433,-3.837,-3.8855,-3.9509,0.0,0.0,0.0,0.0,0.0,0.0,0.0,0.0,0.0,0.0,0.0,0.0,0.0,0.0,0.0,0.0,0.0,0.0,0.0,0.0,0.0,0.0,0.0,0.0,0.0,-4.5755,-4.5569,-4.5248,-4.5302,-4.5435,-4.5569,-4.5154,-4.51,-4.5381,-4.5927,-4.6453,-4.6977,-4.7312,-4.7708,-4.8215,0.0,-4.8645,-4.9258,-5.0572,-5.1089,-5.1219,-5.2445,-5.2787,-5.2505,-5.2505,-5.2221,-5.195,0.0,0.0,0.0,0.0,0.0,0.0,0.0,0.0,0.0,0.0,0.0,0.0,0.0,0.0,0.0,0.0,0.0,0.0,0.0,0.0,-3.4708,-3.4977,-3.4923,-3.4899,-3.4899,-3.4899,-3.5098,-3.5495,-3.5827,-3.6208,-3.6622,-3.7367,-3.8096,-3.8791,-3.8945,-3.8969,-3.886,-3.856,-3.8357,-3.83,0.0,0.0,0.0,0.0,0.0,0.0,0.0,0.0,0.0,0.0,-3.9388,-3.9388,-3.9388,0.0,0.0,0.0,0.0,0.0,-3.8723,-3.8839,-3.9004,-3.8777,-3.9218,-3.9842,0.0,0.0,0.0,0.0,0.0,0.0,0.0,0.0,0.0,0.0,0.0,0.0,0.0,0.0,0.0,0.0,0.0,0.0,0.0,0.0,0.0,0.0,0.0,0.0,0.0,0.0,-4.6533,-4.623,-4.6531,-4.6753,-4.6936,-4.6922,-4.678,-4.6508,-4.7195,-4.7657,-4.7939,-4.8243,-4.8545,-4.8945,0.0,-4.9143,-4.9574,-5.0564,-5.1092,-5.1497,-5.2437,-5.2963,-5.3092,-5.2947,-5.2841,-5.268,0.0,0.0,0.0,0.0,0.0,0.0,0.0,0.0,0.0,0.0,0.0,0.0,0.0,0.0,0.0,0.0,0.0,0.0,0.0,0.0,-3.5041,-3.4947,-3.4923,-3.4899,-3.4899,-3.5065,-3.5429,-3.6009,-3.6357,-3.6887,-3.7632,-3.8195,-3.8758,-3.9299,-3.9067,-3.8887,-3.8794,-3.8626,-3.8595,-3.8674,0.0,0.0,0.0,0.0,0.0,0.0,0.0,0.0,0.0,0.0,0.0,0.0,0.0,0.0,0.0,-3.9388,-3.9301,-3.9141,-3.8907,-3.9209,-3.9563,-3.9494,0.0,-4.0466,-4.0974,0.0,0.0,0.0,0.0,0.0,0.0,0.0,0.0,0.0,0.0,0.0,0.0,0.0,0.0,0.0,0.0,0.0,0.0,0.0,0.0,0.0,0.0,0.0,0.0,-4.7545,-4.7531,-4.7298,-4.7759,-4.7976,-4.7976,-4.8431,-4.8294,-4.7596,-4.8344,-4.8695,-4.8695,-4.8945,-4.9192,-4.9404,-4.9404,-4.9488,-4.9727,-5.0394,-5.1048,-5.1686,-5.2325,-5.2963,-5.3462,-5.3266,-5.316,-5.316,0.0,0.0,0.0,0.0,0.0,0.0,0.0,0.0,0.0,0.0,0.0,0.0,0.0,0.0,0.0,0.0,0.0,0.0,0.0,0.0,-3.5105,-3.5105,-3.497,-3.4899,-3.4899,-3.5578,-3.5959,-3.6009,-3.7384,-3.8427,-3.9149,-3.9199,-3.9249,-3.9299,-3.8958,-3.8805,-3.8826,-3.8914,-3.8852,-3.877,-3.9418,0.0,0.0,0.0,0.0,0.0,0.0,0.0,0.0,0.0,0.0,0.0,0.0,0.0,-3.9388,-3.9388,-3.9388,-3.9337,-3.9141,-3.9409,-3.9871,-4.0212,0.0,0.0,-4.1091,0.0,0.0,0.0,0.0,0.0,0.0,0.0,0.0,0.0,0.0,0.0,0.0,0.0,0.0,0.0,0.0,0.0,0.0,0.0,0.0,0.0,0.0,0.0,0.0,-4.8745,-4.8745,-4.8745,-4.8795,-4.8795,-4.8795,-4.9108,-4.8959,-4.8445,-4.8959,-4.9256,-4.9256,-4.9537,-4.9669,-4.9683,-4.9683,-4.9669,-4.9727,-5.0394,-5.1048,-5.1686,-5.2325,-5.2963,-5.3515,-5.3462,-5.3462,-5.3462,0.0,0.0,0.0,0.0,0.0,0.0,0.0,0.0,0.0,0.0,0.0,0.0,0.0,0.0,0.0,0.0,0.0,0.0,0.0,-3.5198,-3.5281,-3.5634,-3.5602,-3.5794,-3.6257,-3.6092,-3.6456,-3.7384,-3.8394,-3.9033,-3.9299,-3.9299,-3.9299,-3.9299,-3.8942,-3.9051,-3.9437,-3.9009,-3.9212,-3.9819,-3.9674,-3.9634,0.0,0.0,0.0,0.0,0.0,0.0,0.0,0.0,-3.9388,0.0,0.0,0.0,-3.9388,-3.9388,-3.9388,-3.9442,-3.9668,-4.0038,-4.0474,-4.091,0.0,0.0,0.0,0.0,0.0,0.0,0.0,0.0,0.0,0.0,0.0,0.0,0.0,0.0,0.0,0.0,0.0,0.0,0.0,0.0,0.0,0.0,0.0,0.0,0.0,0.0,0.0,-4.9058,-4.9157,-4.9157,-4.9291,-4.9389,-4.9389,-4.9488,-4.9438,-4.9227,-4.9438,-4.9537,-4.9537,-4.9634,-4.9717,-4.9717,-4.9717,-4.9717,-4.9698,-4.9944,-5.0438,-5.1135,-5.2216,-5.2963,-5.3515,-5.3515,-5.3515,-5.3515,0.0,0.0,0.0,0.0,0.0,0.0,0.0,0.0,0.0,0.0,0.0,0.0,0.0,0.0,0.0,0.0,0.0,0.0,-3.5656,-3.5532,-3.574,-3.6373,-3.6381,-3.6688,-3.7433,-3.6953,-3.7201,-3.8186,-3.895,-3.9299,-3.9299,-3.9299,-3.9388,-3.9522,-3.9259,-3.9502,-4.0062,-3.9564,-3.9739,-4.0303,-3.9908,-3.9814,0.0,0.0,0.0,0.0,0.0,0.0,0.0,0.0,0.0,0.0,0.0,0.0,0.0,0.0,-3.9574,-3.9792,-4.0114,-4.0609,-4.1092,0.0,0.0,0.0,0.0,0.0,0.0,0.0,0.0,0.0,0.0,0.0,0.0,0.0,0.0,0.0,0.0,0.0,0.0,0.0,0.0,0.0,0.0,0.0,0.0,0.0,0.0,0.0,0.0,-4.9355,-4.9453,-4.9453,-4.9585,-4.9717,-4.9717,-4.9717,-4.9717,-4.9717,-4.9717,-4.9717,-4.9717,-4.9717,-4.9717,-4.9717,-4.9717,-4.9717,-4.9717,-4.9717,-5.0124,-5.0851,-5.2115,-5.2833,-5.3239,-5.3442,-5.3515,-5.3515,0.0,0.0,0.0,0.0,0.0,0.0,0.0,0.0,0.0,0.0,0.0,0.0,0.0,0.0,0.0,0.0,0.0,0.0,-3.6454,-3.6324,-3.6529,-3.7278,-3.7169,-3.7466,-3.8186,-3.8202,-3.8202,-3.8202,-3.895,-3.9299,-3.9299,-3.9315,-3.9588,-4.0099,-3.9959,-4.0111,-4.0534,-4.0703,-4.0481,-4.0037,-4.0148,-3.9985,-3.9696,0.0,0.0,0.0,0.0,0.0,0.0,0.0,0.0,0.0,0.0,0.0,0.0,0.0,-3.9888,-4.0397,-4.0412,-4.105,0.0,0.0,0.0,0.0,0.0,0.0,0.0,0.0,0.0,0.0,0.0,0.0,0.0,0.0,0.0,0.0,0.0,0.0,0.0,0.0,0.0,0.0,0.0,0.0,0.0,0.0,0.0,0.0,0.0,-4.9717,-4.9717,-4.9717,-4.9717,-4.9717,-4.9717,-4.9717,-4.9717,-4.9717,-4.9717,-4.9717,-4.9717,-4.9717,-4.9717,-4.9717,-4.9717,-4.9717,-4.9717,-4.9717,-5.0124,-5.0851,-5.2115,-5.2609,-5.2696,-5.3268,-5.3515,-5.3515,0.0,0.0,0.0,0.0,0.0,0.0,0.0,0.0,0.0,0.0,0.0,0.0,0.0,0.0,0.0,0.0,0.0,0.0,-3.7035,-3.7011,-3.727,-3.7899,-3.788,-3.8228,-3.8967,-3.8984,-3.8984,-3.8984,-3.9199,-3.9299,-3.9315,-3.9676,-3.9957,-4.0087,-4.0121,-4.0488,-4.1013,-4.0322,-4.0158,-4.0303,-3.9964,-3.9681,-3.9481,0.0,0.0,0.0,0.0,0.0,0.0,0.0,0.0,0.0,0.0,0.0,0.0,-3.9388,-3.9888,-4.0502,-4.0965,0.0,0.0,0.0,0.0,0.0,0.0,0.0,0.0,0.0,0.0,0.0,0.0,0.0,0.0,0.0,0.0,0.0,0.0,0.0,0.0,0.0,0.0,0.0,0.0,0.0,0.0,0.0,0.0,0.0,0.0,-4.9717,-4.9717,-4.9717,-4.9717,-4.9717,-4.9717,-4.9717,-4.9717,-4.9717,-4.9717,-4.9717,-4.9717,-4.9717,-4.9717,-4.9717,-4.9717,-4.9717,-4.9717,-4.9717,-5.0124,-5.0763,-5.1141,-5.1824,-5.2638,-5.2775,-5.3138,-5.3515,0.0,0.0,0.0,0.0,0.0,0.0,0.0,0.0,0.0,0.0,-3.5893,-3.6079,0.0,0.0,0.0,0.0,0.0,0.0,0.0,-3.7677,-3.7958,-3.8609,-3.8642,-3.8841,-3.9282,-3.9299,-3.9448,-3.9746,-3.9448,-3.9421,-3.9621,-3.9957,-4.0254,-4.058,-4.0526,-4.0766,-4.1182,-4.0349,-4.0124,-4.0266,-3.9859,-3.9589,-3.9388,0.0,0.0,0.0,0.0,0.0,0.0,0.0,0.0,0.0,0.0,0.0,0.0,-3.9738,-4.0277,-4.0935,0.0,0.0,0.0,0.0,0.0,0.0,0.0,0.0,0.0,0.0,0.0,0.0,0.0,0.0,0.0,0.0,0.0,0.0,0.0,0.0,0.0,0.0,0.0,0.0,0.0,0.0,0.0,0.0,0.0,0.0,0.0,-4.9717,-4.9717,-4.9717,-4.9717,-4.9717,-4.9717,-4.9717,-4.9717,-4.9717,-4.9717,-4.9717,-4.9717,-4.9717,-4.9717,-4.9717,-4.9717,-4.9717,-4.9717,-4.9717,-4.9964,-5.0307,-5.0618,-5.1294,-5.2223,-5.247,-5.2963,-5.3515,0.0,0.0,0.0,0.0,0.0,0.0,0.0,0.0,0.0,0.0,-3.64,-3.6874,0.0,0.0,0.0,0.0,0.0,0.0,0.0,0.0,-3.8593,-3.9265,-3.9299,-3.9332,-3.9398,-3.9398,-3.9763,-4.0492,-3.9763,-3.9654,-4.0198,-4.0264,-4.0642,-4.1272,-4.1117,-4.1053,-4.1021,-4.0597,-4.0266,-3.9975,-3.9768,-3.9553,-3.9388,-3.9388,0.0,0.0,0.0,0.0,0.0,0.0,0.0,0.0,0.0,0.0,0.0,-4.0202,-4.0861,0.0,0.0,0.0,0.0,0.0,0.0,0.0,0.0,0.0,0.0,0.0,0.0,0.0,0.0,0.0,0.0,0.0,0.0,0.0,0.0,0.0,0.0,0.0,0.0,0.0,0.0,0.0,0.0,0.0,0.0,0.0,0.0,-4.9717,-4.9717,-4.9717,-4.9717,-4.9717,-4.9717,-4.9717,-4.9717,-4.9717,-4.9717,-4.9717,-4.9732,-4.9717,-4.9717,-4.9717,-4.9717,-4.9717,-4.9717,-4.9717,-4.9717,-4.9776,-5.0386,-5.0975,-5.1599,-5.218,-5.2833,-5.3428,0.0,0.0,0.0,0.0,0.0,0.0,0.0,0.0,0.0,0.0,0.0,0.0,0.0,0.0,0.0,0.0,0.0,0.0,0.0,0.0,-3.9133,-3.9299,-3.9299,-3.9564,-4.016,-4.016,-4.0481,-4.1193,-4.0481,-4.0431,-4.0971,-4.1399,-4.1482,-4.1304,-4.1244,-4.1082,-4.0833,-4.0161,-3.9824,-3.9732,-3.9553,-3.946,-3.9388,-3.9388,-3.9388,0.0,0.0,0.0,0.0,0.0,0.0,0.0,0.0,-3.9388,-3.9508,-4.0202,-4.0861,0.0,0.0,0.0,0.0,0.0,0.0,0.0,0.0,0.0,0.0,0.0,0.0,0.0,0.0,0.0,0.0,0.0,0.0,0.0,0.0,0.0,0.0,0.0,0.0,0.0,0.0,0.0,0.0,0.0,0.0,0.0,-4.9717,-4.9717,-4.9717,-4.9717,-4.9717,-4.9717,-4.9717,-4.9717,-4.9717,0.0,-4.9717,-4.9829,-5.0038,-4.9781,-4.9717,-4.9717,-4.9717,-4.9717,-4.9717,-4.9717,-4.9717,-4.9683,-4.9877,-5.0293,-5.0902,-5.1083,-5.1802,-5.2775,0.0,0.0,0.0,0.0,0.0,0.0,0.0,0.0,0.0,0.0,0.0,0.0,0.0,0.0,0.0,0.0,0.0,0.0,0.0,0.0,-3.9464,-3.9812,-3.9829,-4.016,-4.0862,-4.0878,-4.1226,-4.1926,-4.1591,-4.1477,-4.1579,-4.1881,-4.1803,-4.1454,-4.1234,-4.087,-4.0366,-3.9803,-3.9553,-3.9553,-3.9445,-3.9388,-3.9388,-3.9388,-3.9388,-3.9388,-3.9388,0.0,0.0,0.0,0.0,0.0,0.0,0.0,-4.0023,-4.0681,-4.1324,0.0,0.0,0.0,0.0,0.0,0.0,0.0,0.0,0.0,0.0,0.0,0.0,0.0,0.0,0.0,0.0,0.0,0.0,0.0,0.0,0.0,0.0,0.0,0.0,0.0,0.0,0.0,0.0,0.0,0.0,-4.9829,-4.9717,-4.9829,-4.9829,-4.9717,-4.9829,-4.9878,-4.9878,-5.0038,-5.0086,-5.0086,-5.0086,-5.0135,-5.0294,-5.0038,-4.9829,-4.9717,-4.9717,-4.9717,-4.9717,-4.9717,-4.9717,-4.9717,-4.9717,-5.009,-5.072,-5.072,-5.128,-5.2122,0.0,0.0,0.0,0.0,0.0,0.0,0.0,0.0,0.0,0.0,0.0,0.0,0.0,0.0,0.0,0.0,0.0,0.0,0.0,0.0,0.0,-4.0558,-4.0591,-4.0878,-4.1591,-4.1579,-4.1943,-4.2688,-4.2688,-4.2495,0.0,-4.2196,-4.1973,-4.1588,-4.1192,-4.0631,-3.996,-3.9568,-3.9388,-3.9388,-3.9388,-3.9388,-3.9388,-3.9388,-3.9388,-3.9388,-3.9388,-3.9388,-3.9388,-3.9388,0.0,0.0,0.0,0.0,-4.0546,-4.1324,-4.1976,-4.2545,0.0,0.0,0.0,0.0,0.0,0.0,0.0,0.0,0.0,0.0,0.0,0.0,0.0,0.0,0.0,0.0,0.0,0.0,0.0,0.0,0.0,0.0,0.0,0.0,0.0,0.0,0.0,0.0,0.0,-5.0086,-4.9829,-5.0038,-5.0086,-4.9829,-5.0038,-5.0183,-5.0183,-5.039,-5.0501,-5.0501,-5.0548,-5.0534,-5.0501,-5.0327,-5.0072,-4.9829,-4.9829,-4.9829,-4.9781,-4.9781,-4.9732,-4.9717,-4.9717,-5.0017,-5.0546,-5.0546,-5.0917,-5.1454,0.0,0.0,0.0,0.0,0.0,0.0,0.0,0.0,0.0,0.0,0.0,0.0,0.0,0.0,0.0,0.0,0.0,0.0,0.0,0.0,0.0,-4.1243,-4.1276,-4.1624,-4.2324,-4.234,-4.2704,-4.3449,-4.333,0.0,0.0,0.0,0.0,-4.1588,-4.1192,-4.0631,-3.996,-3.9568,-3.9388,-3.9388,-3.9388,-3.9388,-3.9388,-3.9388,-3.9388,-3.9388,-3.9388,-3.9388,-3.9388,-3.9388,-3.9388,0.0,0.0,0.0,-4.0651,-4.1916,-4.2336,0.0,0.0,0.0,0.0,0.0,0.0,0.0,0.0,0.0,0.0,0.0,0.0,0.0,0.0,0.0,0.0,0.0,0.0,0.0,0.0,0.0,0.0,0.0,0.0,0.0,0.0,0.0,0.0,0.0,-5.0294,-5.0453,-5.039,-5.0453,-5.0453,-5.039,-5.0453,-5.0453,-5.0453,-5.0501,-5.0501,-5.0501,-5.0695,-5.0647,-5.0501,-5.0647,-5.06,-5.039,-5.039,-5.0246,-5.0038,-5.0038,-4.9926,-4.9717,-4.9717,-4.9727,-4.9799,-4.9799,-5.022,-5.0801,0.0,0.0,0.0,0.0,0.0,0.0,0.0,0.0,0.0,0.0,0.0,0.0,0.0,0.0,0.0,0.0,0.0,0.0,0.0,0.0,0.0,-4.2005,-4.2009,-4.2357,-4.3085,-4.3118,-4.3267,-4.3598,0.0,0.0,0.0,-4.3021,-4.2539,0.0,0.0,-4.0699,-4.0106,-3.9732,-3.9742,-3.9963,-3.9963,-4.0187,-4.0516,-4.0516,-4.0516,-4.0516,-4.0516,-4.0516,-4.0516,-4.0516,-4.0516,-4.0561,-4.0861,0.0,0.0,0.0,-4.2626,0.0,0.0,0.0,0.0,0.0,0.0,0.0,0.0,0.0,0.0,0.0,0.0,0.0,0.0,0.0,0.0,0.0,0.0,0.0,0.0,0.0,0.0,0.0,0.0,0.0,0.0,0.0,0.0,0.0,-5.0519,-5.0614,-5.0501,-5.0614,-5.0614,-5.0501,-5.0614,-5.0647,-5.0647,-5.0805,-5.0899,-5.0899,-5.0979,-5.0979,-5.0899,-5.0979,-5.0837,-5.0501,-5.0501,-5.0453,-5.0294,-5.0135,-5.0038,-4.9926,-4.9781,-4.9717,-4.9717,-4.9717,-4.9906,-5.0119,0.0,0.0,0.0,0.0,0.0,0.0,0.0,0.0,0.0,0.0,0.0,0.0,0.0,0.0,0.0,0.0,0.0,0.0,0.0,0.0,0.0,-4.2738,-4.2771,-4.3035,-4.3582,-4.3598,-4.3598,-4.3598,0.0,0.0,-4.3096,-4.2821,-4.2429,0.0,-4.1406,-4.0817,0.0,0.0,0.0,-4.0412,-4.0591,-4.0935,-4.1422,-4.1422,-4.1422,-4.1422,-4.1422,-4.1422,-4.1422,-4.1422,-4.1422,-4.1452,-4.1617,-4.2006,0.0,0.0,0.0,0.0,0.0,0.0,0.0,0.0,0.0,0.0,0.0,0.0,0.0,0.0,0.0,0.0,0.0,0.0,0.0,0.0,0.0,0.0,0.0,0.0,0.0,0.0,0.0,0.0,0.0,0.0,0.0,0.0,-5.079,-5.0837,-5.0677,-5.0837,-5.0822,-5.0677,-5.0837,-5.0902,-5.0902,-5.112,-5.1214,-5.1214,-5.1214,-5.1214,-5.1214,-5.1214,-5.0994,-5.0677,-5.0677,-5.0629,-5.0581,-5.0375,-5.0231,-5.0086,-4.9878,-4.9781,-4.9717,-4.9717,-4.9717,-4.9717,0.0,0.0,0.0,0.0,0.0,0.0,0.0,0.0,0.0,0.0,0.0,0.0,-3.9703,-4.0198,-4.0469,-4.0343,-4.0961,0.0,0.0,0.0,0.0,-4.3499,-4.3532,0.0,-4.3598,-4.3598,-4.3598,0.0,0.0,0.0,-4.3082,-4.2444,-4.2109,-4.2077,-4.1522,-4.087,-4.0211,0.0,0.0,0.0,-4.107,-4.1354,-4.1422,-4.1422,-4.1422,-4.1422,-4.1422,-4.1422,-4.1422,-4.1422,-4.1422,-4.1527,-4.2156,-4.2366,-4.2515,0.0,0.0,0.0,0.0,0.0,0.0,0.0,0.0,0.0,0.0,0.0,0.0,0.0,0.0,0.0,0.0,0.0,0.0,0.0,0.0,0.0,0.0,0.0,0.0,0.0,0.0,0.0,0.0,0.0,0.0,0.0,-5.1011,-5.1167,-5.1167,-5.1167,-5.1167,-5.1167,-5.1167,-5.1167,-5.1167,-5.1167,-5.1214,-5.1214,-5.1214,-5.1214,-5.1214,-5.1214,-5.1182,-5.1167,-5.1167,-5.1026,-5.076,-5.076,-5.0489,-5.0086,-5.0086,-4.9926,-4.9717,-4.9717,-4.9717,-4.9717,0.0,0.0,0.0,0.0,0.0,0.0,0.0,0.0,0.0,0.0,0.0,0.0,0.0,-4.0461,-4.0619,-4.1011,-4.1707,0.0,0.0,0.0,0.0,-4.3582,-4.3598,-4.3598,-4.3598,-4.3598,0.0,0.0,0.0,-4.3113,-4.3082,-4.2555,-4.219,-4.1963,-4.1862,-4.1503,-4.1076,-4.1404,0.0,0.0,0.0,-4.2267,-4.2626,-4.2626,-4.2626,-4.2626,-4.2626,-4.2626,-4.2626,-4.2626,-4.2626,-4.2671,-4.291,-4.2985,-4.303,-4.323,-4.329,-4.329,0.0,0.0,0.0,0.0,0.0,0.0,0.0,0.0,0.0,0.0,0.0,0.0,0.0,0.0,0.0,0.0,0.0,0.0,0.0,0.0,0.0,0.0,0.0,0.0,0.0,0.0,0.0,0.0,0.0,-5.1214,-5.1214,-5.1214,-5.1214,-5.1214,-5.1214,-5.1214,-5.1214,-5.1214,-5.1214,-5.1214,-5.1214,-5.1214,-5.1214,-5.1214,-5.1214,-5.1214,-5.1214,-5.1167,-5.1058,-5.0855,-5.0713,-5.0537,-5.0231,-5.0038,-4.9926,-4.9781,-4.9717,-4.9717,0.0,0.0,0.0,0.0,0.0,0.0,0.0,0.0,-4.0197,-4.0451,0.0,0.0,0.0,0.0,-4.1432,-4.2088,-4.2589,-4.3069,-4.3565,-4.3598,-4.3598,-4.3598,-4.3598,-4.3598,-4.3598,0.0,0.0,0.0,0.0,0.0,0.0,-4.2508,-4.2237,-4.2247,-4.2235,-4.1917,0.0,0.0,0.0,-4.2425,0.0,0.0,-4.329,-4.329,-4.329,-4.329,-4.329,-4.329,-4.329,-4.329,-4.329,-4.329,-4.329,-4.329,-4.329,-4.329,-4.329,-4.329,-4.329,0.0,0.0,0.0,0.0,0.0,0.0,0.0,0.0,0.0,0.0,0.0,0.0,0.0,0.0,0.0,0.0,0.0,0.0,0.0,0.0,0.0,0.0,0.0,0.0,0.0,0.0,0.0,0.0,0.0,-5.1214,-5.1214,-5.1214,-5.1214,-5.1214,-5.1214,-5.1214,-5.1214,-5.1214,-5.1214,-5.1214,-5.1214,-5.1214,-5.1214,-5.1214,-5.1214,-5.1214,-5.1214,-5.1167,-5.1011,-5.0855,-5.076,-5.0442,-5.0216,-5.0086,-4.9878,-4.9781,-4.9717,0.0,0.0,0.0,0.0,0.0,0.0,0.0,0.0,-4.0434,-4.1136,0.0,0.0,0.0,0.0,0.0,-4.3562,-4.3598,-4.3598,-4.3598,-4.3598,-4.3598,-4.3598,-4.3598,0.0,0.0,0.0,0.0,0.0,0.0,0.0,0.0,0.0,-4.2279,-4.2911,-4.2672,-4.2057,-4.1326,0.0,-4.2565,-4.2485,0.0,-4.329,-4.329,0.0,-4.3305,-4.3319,-4.3319,-4.3334,-4.3349,-4.3349,-4.3349,-4.3319,-4.3305,-4.329,-4.329,-4.329,-4.329,-4.329,0.0,0.0,0.0,0.0,0.0,0.0,0.0,0.0,0.0,0.0,0.0,0.0,0.0,0.0,0.0,0.0,0.0,0.0,0.0,0.0,0.0,0.0,0.0,0.0,0.0,0.0,0.0,0.0,-5.1214,-5.1214,-5.1214,-5.1214,-5.1214,-5.1214,-5.1214,-5.1214,-5.1214,-5.1214,-5.1214,-5.1214,-5.1214,-5.1214,-5.1214,-5.1214,-5.1214,-5.1214,-5.1214,-5.1214,-5.1214,-5.1214,-5.1058,-5.0807,-5.0807,-5.0537,-5.0086,-5.0086,-4.9926,-4.9717,0.0,0.0,0.0,0.0,0.0,-4.0899,-4.0899,-4.1339,-4.1745,0.0,0.0,0.0,-4.2607,-4.3086,-4.3426,-4.3582,-4.3598,-4.3598,-4.3598,-4.3598,-4.3598,-4.3598,-4.3598,-4.3598,-4.3598,0.0,0.0,0.0,0.0,0.0,0.0,0.0,0.0,0.0,-4.3443,-4.3098,-4.2545,-4.3143,0.0,0.0,-4.3215,-4.329,0.0,0.0,0.0,0.0,0.0,-4.4347,-4.4751,-4.4751,-4.4436,-4.3958,-4.3439,-4.329,-4.329,-4.329,-4.329,-4.329,-4.329,0.0,0.0,0.0,0.0,0.0,0.0,0.0,0.0,0.0,0.0,0.0,0.0,0.0,0.0,0.0,0.0,0.0,0.0,0.0,0.0,0.0,0.0,0.0,0.0,0.0,0.0,0.0,-5.1214,-5.1214,-5.1214,-5.1214,-5.1214,-5.1214,-5.1214,-5.1214,-5.1214,-5.1214,-5.1214,-5.1214,-5.1214,-5.1214,-5.1214,-5.1214,-5.1214,-5.1214,-5.1214,-5.1214,-5.1214,-5.1214,-5.1167,-5.1058,-5.0855,-5.0647,-5.0342,-5.0183,-4.9926,-4.9717,0.0,0.0,0.0,0.0,0.0,-4.166,-4.166,-4.2016,-4.2378,0.0,0.0,0.0,-4.3189,-4.3451,-4.3598,-4.3598,-4.3598,-4.3598,-4.3598,-4.3598,-4.3598,-4.3598,-4.3598,-4.3598,-4.3598,-4.3598,0.0,0.0,0.0,0.0,0.0,0.0,0.0,0.0,0.0,0.0,0.0,0.0,0.0,0.0,-4.329,0.0,0.0,-4.3604,-4.3947,0.0,0.0,0.0,-4.5289,-4.5289,-4.5035,-4.4661,-4.4272,-4.4152,-4.4152,-4.4152,-4.4152,-4.4152,-4.4152,-4.4646,-4.5244,-4.5633,0.0,0.0,0.0,0.0,0.0,0.0,0.0,0.0,0.0,0.0,0.0,0.0,0.0,0.0,0.0,0.0,0.0,0.0,0.0,0.0,0.0,-5.1214,-5.1214,-5.1214,-5.1214,-5.1214,-5.1214,-5.1214,-5.1214,-5.1214,-5.1214,-5.1214,-5.1214,-5.1214,-5.1214,-5.1214,-5.1214,-5.1214,-5.1214,-5.1214,-5.1214,-5.1214,-5.1214,-5.1214,-5.1214,-5.1214,-5.1214,-5.1167,-5.1011,-5.0805,-5.0501,-5.0342,-5.0038,-4.9717,0.0,0.0,-4.1525,-4.2185,-4.2354,-4.2422,-4.2422,-4.2489,-4.2696,0.0,-4.3194,-4.3218,-4.3545,-4.3598,-4.3598,-4.3598,-4.3598,-4.3598,-4.3598,-4.3598,-4.3598,-4.3598,-4.3664,-4.3714,-4.3714,-4.3797,-4.383,0.0,0.0,0.0,0.0,0.0,-4.4583,-4.4828,0.0,0.0,0.0,0.0,0.0,-4.3329,-4.329,-4.3334,0.0,0.0,-4.4407,-4.4616,-4.52,-4.5454,-4.5514,-4.5439,-4.5409,-4.5394,-4.5319,-4.5289,-4.5289,-4.5289,-4.5289,-4.5289,-4.5289,-4.5798,-4.6279,-4.6279,-4.6815,0.0,-4.7309,-4.7309,-4.7309,0.0,0.0,0.0,0.0,0.0,0.0,0.0,0.0,0.0,0.0,0.0,0.0,0.0,0.0,0.0,0.0,-5.1214,-5.1214,-5.1214,-5.1214,-5.1214,-5.1214,-5.1214,-5.1214,-5.1214,-5.1214,-5.1214,-5.1214,-5.1214,-5.1214,-5.1214,-5.1214,-5.1214,-5.1214,-5.1214,-5.1214,-5.1214,-5.1214,-5.1214,-5.1214,-5.1214,-5.1214,-5.1214,-5.1214,-5.0899,-5.0501,-5.0501,-5.0135,-4.9717,0.0,0.0,-4.2117,-4.2269,-4.2794,-4.32,-4.32,-4.3597,-4.3951,-4.4074,-4.3879,-4.3685,-4.3611,-4.3598,-4.3598,-4.3598,-4.3598,-4.3598,-4.3598,-4.3598,-4.3598,-4.3598,-4.4175,-4.4473,-4.4473,-4.5069,-4.5367,-4.5367,0.0,0.0,0.0,0.0,-4.5747,-4.5822,0.0,0.0,0.0,0.0,0.0,-4.3596,-4.3384,0.0,-4.4137,-4.4272,-4.499,-4.5948,-4.6082,-4.6456,-4.683,-4.6307,-4.6112,-4.6022,-4.5469,-4.5289,-4.5289,-4.5289,-4.5289,-4.5289,-4.5289,-4.5798,-4.6279,-4.6279,-4.6815,0.0,-4.7309,-4.7309,-4.7309,0.0,0.0,0.0,0.0,0.0,0.0,0.0,0.0,0.0,0.0,0.0,0.0,0.0,0.0,0.0,-5.1214,-5.1214,-5.1214,-5.1214,-5.1214,-5.1214,-5.1214,-5.1214,-5.1214,-5.1214,-5.1214,-5.1214,-5.1214,-5.1214,-5.1214,-5.1214,-5.1214,-5.1214,-5.1214,-5.1214,-5.1214,-5.1214,-5.1214,-5.1214,-5.1214,-5.1214,-5.1214,-5.1214,-5.1214,-5.0899,-5.0501,-5.0501,-5.0135,-4.9717,-4.2777,-4.2861,-4.298,-4.3396,-4.3741,-4.3995,-4.3995,-4.4159,-4.4281,-4.4196,-4.3923,-4.3704,-4.3598,-4.3943,-4.4158,-4.4158,-4.4489,-4.4705,-4.4705,-4.4705,-4.4705,-4.4705,-4.5052,-4.5235,-4.5235,-4.5599,-4.5798,-4.5798,0.0,0.0,0.0,0.0,0.0,0.0,0.0,0.0,0.0,0.0,-4.4026,-4.3862,-4.3823,0.0,-4.4392,-4.5065,-4.5696,-4.6324,-4.6696,-4.7025,-4.7249,-4.692,-4.6815,-4.6756,-4.6396,-4.6307,-4.6307,-4.6307,-4.6307,-4.6307,-4.6307,-4.6546,-4.6815,-4.6815,-4.7055,0.0,0.0,-4.7309,0.0,0.0,0.0,0.0,0.0,0.0,0.0,0.0,0.0,0.0,0.0,0.0,0.0,0.0,0.0,0.0,-5.1214,-5.1214,-5.1214,-5.1214,-5.1214,-5.1214,-5.1214,-5.1214,-5.1214,-5.1214,-5.1214,-5.1214,-5.1214,-5.1214,-5.1214,-5.1214,-5.1214,-5.1214,-5.1214,-5.1214,-5.1214,-5.1214,-5.1214,-5.1214,-5.1214,-5.1214,-5.1214,-5.1214,-5.1214,-5.0899,-5.0501,-5.0501,-5.0135,-4.9717,-4.3521,-4.3639,-4.3842,-4.4496,-4.4615,-4.4587,-4.4542,-4.4367,-4.4246,-4.4223,-4.4108,-4.4012,-4.4012,-4.4556,-4.4903,-4.4903,-4.545,-4.5798,-4.5798,-4.5798,-4.5798,-4.5798,-4.593,-4.5997,-4.5997,-4.6146,-4.6212,-4.6212,0.0,0.0,0.0,0.0,0.0,0.0,0.0,0.0,0.0,0.0,0.0,-4.4269,0.0,-4.4496,-4.4631,-4.5816,-4.6396,-4.6576,-4.7115,-4.7309,-4.7309,-4.7309,-4.7309,-4.7309,-4.7309,-4.7309,-4.7309,-4.7309,-4.7309,-4.7309,-4.7309,-4.7309,-4.7309,-4.7309,-4.7309,-4.7309,0.0,0.0,0.0,0.0,0.0,0.0,0.0,0.0,0.0,0.0,0.0,0.0,0.0,0.0,0.0,0.0,0.0,0.0,0.0,-5.084,-5.084,-5.084,-5.096,-5.0988,-5.0988,-5.1154,-5.1214,-5.1214,-5.1214,-5.1214,-5.1214,-5.1214,-5.1214,-5.1214,-5.1214,-5.1214,-5.1214,-5.1214,-5.1214,-5.1214,-5.1214,-5.1214,-5.1214,-5.1214,-5.1214,-5.1214,-5.1214,-5.0899,-5.0501,-5.0501,-5.0135,-4.9717,-4.4462,-4.4479,-4.4496,-4.4581,-4.4615,-4.4542,-4.4367,-4.4196,-4.4244,-4.458,-4.5166,-4.5549,-4.5549,-4.5616,-4.5665,-4.5665,-4.5748,-4.5798,-4.5798,-4.5798,-4.5798,-4.5798,-4.6427,-4.6775,-4.6775,-4.7421,-4.7752,-4.7752,-4.7835,-4.777,0.0,0.0,0.0,0.0,-4.6298,0.0,0.0,0.0,-4.4618,0.0,-4.5161,-4.5185,0.0,-4.6037,-4.6696,-4.7204,-4.7279,-4.7309,-4.7309,0.0,-4.7309,-4.7309,-4.7309,-4.7309,-4.7309,-4.7309,-4.7309,-4.7309,-4.7309,-4.7309,-4.7309,-4.7309,-4.7309,-4.7309,-4.7309,0.0,-4.7309,-4.7309,0.0,0.0,0.0,0.0,0.0,0.0,0.0,0.0,0.0,0.0,0.0,0.0,0.0,0.0,0.0,-4.9539,-4.9539,-4.9539,-5.0017,-5.03,-5.03,-5.09,-5.1214,-5.1214,-5.1214,-5.1214,-5.1214,-5.1214,-5.1214,-5.1214,-5.1214,-5.1214,-5.1214,-5.1214,-5.1214,-5.1214,-5.1214,-5.1214,-5.1214,-5.1214,-5.1214,-5.1214,-5.1214,-5.0899,-5.0501,-5.0501,-5.0135,-4.9717,-4.4615,-4.4615,-4.4615,-4.4615,-4.4615,-4.457,-4.4468,-4.4611,-4.4883,-4.5296,-4.5599,-4.5798,-4.5798,-4.6179,-4.6444,-4.6444,-4.6825,-4.7073,-4.7073,-4.7073,-4.7073,-4.7073,-4.7371,-4.7537,-4.7537,-4.7835,-4.8001,-4.8001,-4.8001,-4.7968,0.0,0.0,0.0,0.0,-4.6649,0.0,-4.6684,0.0,0.0,0.0,0.0,0.0,0.0,-4.6636,-4.7055,-4.7309,-4.7309,-4.7309,-4.7309,0.0,-4.7309,0.0,0.0,0.0,0.0,-4.7309,-4.7309,-4.7309,-4.7309,-4.7309,-4.7309,-4.7309,-4.7309,-4.7309,-4.7309,-4.7309,-4.7309,-4.7309,0.0,0.0,0.0,0.0,0.0,0.0,-4.7309,0.0,0.0,0.0,0.0,0.0,0.0,0.0,0.0,0.0,0.0,0.0,-4.9508,-4.9673,-4.9673,-5.0301,-5.0599,-5.0599,-5.102,-5.1214,-5.1214,-5.1214,-5.1214,-5.1214,-5.1214,-5.1214,-5.1214,-5.1214,-5.1214,-5.1214,-5.1214,-5.1214,-5.1214,-5.1214,-5.1214,-5.1214,-5.1214,-5.0899,-5.0501,-5.0342,-5.0038,-4.9717,-4.484,-4.475,0.0,0.0,0.0,-4.493,-4.5031,-4.5395,-4.5763,-4.6061,-4.6278,-4.6477,-4.6676,-4.7173,0.0,0.0,-4.8299,-4.8531,-4.8315,-4.8299,-4.8216,-4.8017,-4.8001,-4.8001,-4.8001,-4.8001,-4.8001,-4.8001,-4.8001,-4.8001,0.0,-4.7637,-4.7618,0.0,0.0,-4.7236,-4.7729,0.0,0.0,-4.7031,-4.6858,-4.6692,-4.6651,-4.7115,-4.7309,-4.7324,-4.7519,-4.7578,-4.7593,-4.7788,-4.7848,-4.7848,-4.7848,-4.7848,-4.7848,0.0,0.0,0.0,-4.7623,-4.7578,-4.7534,-4.7354,-4.7309,-4.7309,-4.7309,-4.7309,-4.7309,-4.7309,-4.7309,0.0,0.0,0.0,-4.7309,-4.7309,0.0,-4.7309,0.0,0.0,0.0,0.0,0.0,0.0,0.0,0.0,0.0,-4.8775,-4.894,-4.9045,-4.9045,-4.9628,-4.9972,-4.9972,-5.0616,-5.0945,-5.0945,-5.1124,-5.1214,-5.1214,-5.1214,-5.1214,-5.1214,-5.1214,-5.1214,-5.1214,-5.1214,-5.1214,-5.1214,-5.1214,-5.1214,-5.1167,-5.112,-5.0885,-5.0534,-5.0279,-4.999,-4.9717,-4.5517,-4.5077,0.0,0.0,0.0,0.0,0.0,0.0,0.0,0.0,0.0,0.0,0.0,0.0,0.0,0.0,0.0,-4.9839,-4.9127,-4.9077,-4.8746,-4.8034,-4.8001,-4.8001,-4.8001,-4.8001,-4.8001,-4.8001,-4.8001,-4.8001,0.0,-4.7637,-4.783,-4.8435,0.0,-4.8063,-4.8703,-4.8094,-4.7979,-4.8095,-4.7507,-4.7273,-4.7279,0.0,-4.7309,-4.7399,-4.8027,0.0,0.0,-4.903,-4.9254,-4.9254,-4.9254,-4.9254,-4.9254,0.0,0.0,0.0,-4.8431,-4.8252,-4.8102,-4.7459,-4.7309,-4.7309,-4.7309,-4.7309,-4.7309,-4.7309,-4.7309,-4.7309,-4.7309,-4.7309,-4.7309,-4.7309,-4.7309,0.0,0.0,0.0,0.0,0.0,0.0,0.0,0.0,0.0,0.0,-4.7369,-4.7952,-4.8312,-4.8312,-4.8985,-4.9344,-4.9344,-4.9927,-5.0226,-5.0226,-5.09,-5.1214,-5.1214,-5.1214,-5.1214,-5.1214,-5.1214,-5.1214,-5.1214,-5.1214,-5.1214,-5.1214,-5.1214,-5.1214,-5.1167,-5.0917,-5.0807,-5.0775,-5.0581,-5.0135,-4.9717,0.0,0.0,0.0,0.0,0.0,0.0,0.0,-4.7151,0.0,0.0,0.0,0.0,0.0,-4.9839,-4.9939,0.0,0.0,-5.0104,-4.9856,-4.9839,-4.9723,-4.9475,-4.9475,-4.9475,-4.9475,-4.9475,-4.9475,-4.9475,-4.9475,-4.9475,0.0,0.0,-4.9199,-4.9413,0.0,-4.9365,0.0,0.0,0.0,0.0,0.0,-4.7855,-4.7952,0.0,-4.7952,-4.8042,-4.8701,-4.8985,-4.9015,-4.9239,-4.9314,-4.9314,-4.9314,-4.9314,-4.9314,-4.9314,-4.9314,-4.9269,-4.9045,-4.8985,-4.8925,-4.87,-4.8596,-4.8596,-4.8596,-4.8596,-4.8596,-4.8596,-4.8596,-4.8596,-4.8596,-4.8596,-4.8461,-4.8027,-4.7952,-4.7803,0.0,0.0,0.0,0.0,0.0,0.0,0.0,0.0,0.0,-4.7309,-4.7519,-4.7638,-4.7638,-4.8252,-4.8626,-4.8626,-4.9673,-5.0196,-5.0196,-5.0838,-5.1214,-5.1214,-5.1214,-5.1214,-5.1214,-5.1214,-5.1214,-5.1214,-5.1214,-5.1214,-5.1214,-5.1214,-5.1214,-5.1167,-5.112,-5.0964,-5.076,-5.0581,-5.0294,-4.9926,-4.7141,0.0,0.0,0.0,0.0,0.0,0.0,0.0,0.0,0.0,-4.9342,0.0,-5.0502,0.0,-5.08,0.0,-5.1131,-5.0982,-5.0982,-5.0734,0.0,-5.022,-5.022,-5.022,-5.022,-5.022,-5.022,-5.022,-5.022,-5.022,0.0,0.0,0.0,0.0,0.0,0.0,0.0,0.0,-5.0413,0.0,0.0,-4.8572,0.0,0.0,-4.8925,-4.8716,0.0,-4.9613,-4.9643,-4.9883,-4.9957,-4.9957,-4.9957,-4.9957,-4.9957,-4.9957,-4.9957,-4.9912,-4.9673,-4.9613,-4.9553,-4.9359,-4.9314,-4.9314,-4.9314,-4.9314,-4.9314,-4.9314,-4.9314,-4.9314,-4.9314,-4.9314,-4.9179,-4.8745,-4.8685,-4.8401,0.0,-4.7459,0.0,0.0,0.0,0.0,0.0,0.0,-4.7309,-4.7309,-4.7309,-4.7309,0.0,-4.7713,-4.7938,-4.7938,-4.8985,-4.9658,-4.9898,-5.0495,-5.0943,-5.1214,-5.1214,-5.1214,-5.1214,-5.1214,-5.1214,-5.1214,-5.1214,-5.1214,-5.1214,-5.1214,-5.1214,-5.1214,-5.1214,-5.1073,-5.0917,-5.071,-5.0375,-5.0038,0.0,0.0,0.0,0.0,-4.7346,0.0,0.0,0.0,-4.9277,0.0,-4.9823,-5.0551,-5.1332,-5.1415,-5.1943,-5.3334,-5.287,-5.2489,-5.2489,-5.1829,0.0,-5.0402,-5.0336,-5.032,-5.032,-5.032,-5.032,-5.032,-5.032,-5.032,0.0,0.0,0.0,0.0,-5.0854,0.0,-5.1831,-5.161,-5.1258,-5.0759,-5.0301,-4.9527,-4.8859,-5.0155,-5.014,-4.9494,-5.0062,-5.024,-5.0345,-5.1005,-5.1214,-5.1214,-5.1214,-5.1214,-5.1214,-5.1214,-5.1214,-5.1079,-5.0405,-5.024,-5.0091,-4.9523,-4.9404,-4.9404,-4.9404,-4.9404,-4.9404,-4.9404,-4.9404,-4.9404,-4.9404,-4.9404,-4.9404,-4.9359,-4.9329,-4.909,-4.8371,-4.7743,-4.7339,0.0,0.0,0.0,0.0,-4.7309,-4.7309,-4.7309,-4.7309,-4.7309,0.0,-4.7309,-4.7309,-4.7309,-4.7982,-4.8685,-4.9299,-4.9942,-5.0554,-5.1214,-5.1214,-5.1214,-5.1214,-5.1214,-5.1214,-5.1214,-5.1214,-5.1214,-5.1214,-5.1214,-5.1214,-5.1214,-5.1214,-5.1214,-5.1167,-5.0917,-5.0489,-5.0086,-4.868,-4.8731,-4.8832,0.0,-4.892,-4.8813,0.0,0.0,0.0,0.0,-5.0883,-5.1479,-5.2738,-5.287,-5.3235,-5.4162,-5.408,0.0,0.0,0.0,0.0,-5.2605,-5.2092,-5.1827,-5.1827,-5.1827,-5.1827,-5.1827,-5.1827,-5.1827,-5.1827,0.0,0.0,0.0,0.0,0.0,-5.223,-5.1851,-5.1366,-5.0906,-5.1146,-5.0983,-5.0647,0.0,-5.1061,-5.1013,-5.0947,-5.096,-5.0943,-5.1154,-5.1214,-5.1214,-5.1214,-5.1214,-5.1214,-5.1214,-5.1214,-5.1184,-5.1005,-5.096,-5.093,-5.075,-5.072,-5.072,-5.072,-5.072,-5.072,-5.072,-5.072,-5.072,-5.072,-5.072,-5.0556,-5.0062,-4.9583,-4.909,-4.8371,-4.8132,-4.7863,-4.7369,0.0,0.0,0.0,-4.7309,-4.7309,-4.7309,-4.7309,-4.7309,0.0,0.0,-4.7309,-4.7309,-4.8416,-4.9149,-4.9314,-5.0391,-5.105,-5.1214,-5.1214,-5.1214,-5.1214,-5.1214,-5.1214,-5.1214,-5.1214,-5.1214,-5.1214,-5.1214,-5.1214,-5.1214,-5.1214,-5.1214,-5.1167,-5.071,-5.0486,-5.0342,-4.9475,0.0,0.0,-5.0507,0.0,0.0,-5.0056,-5.0358,0.0,-5.1682,-5.2026,0.0,-5.3781,-5.3861,-5.4195,-5.4903,-5.4672,0.0,-5.4936,0.0,0.0,-5.3861,-5.3218,-5.2837,-5.2837,-5.2539,-5.2409,-5.2409,-5.2409,-5.2409,-5.2409,0.0,0.0,0.0,0.0,-5.2409,0.0,-5.2415,-5.2178,-5.1877,-5.2472,0.0,0.0,-5.1975,-5.1925,-5.1711,-5.1448,-5.1308,-5.1214,-5.1214,-5.1214,-5.1214,-5.1214,-5.1214,-5.1214,-5.1214,-5.1214,-5.1214,-5.1214,-5.1214,-5.1214,-5.1214,-5.1214,-5.1214,-5.1214,-5.1214,-5.1214,-5.1214,-5.1214,-5.1214,-5.1214,-5.1214,-5.1094,-5.0689,-5.0122,-4.9568,-4.9194,-4.8895,-4.8476,0.0,-4.7743,0.0,-4.7339,-4.7309,-4.7309,-4.7309,-4.7309,-4.7309,0.0,0.0,-4.7309,-4.7309,-4.8297,-4.9015,-4.9314,-5.0272,-5.0883,-5.1214,-5.1214,-5.1214,-5.1214,-5.1214,-5.1214,-5.1214,-5.1214,-5.1214,-5.1214,-5.1214,-5.1214,-5.1214,-5.1214,-5.1214,-5.1167,-5.0742,-5.0581,-5.0405,0.0,0.0,0.0,0.0,0.0,0.0,0.0,-5.1631,0.0,-5.2698,0.0,-5.3868,-5.463,-5.4659,-5.4957,-5.5703,0.0,-5.5073,-5.5681,-5.5036,-5.4622,-5.4622,-5.3964,-5.3549,-5.3549,-5.297,-5.2605,-5.2523,-5.2523,-5.2473,-5.2409,0.0,0.0,0.0,0.0,0.0,0.0,-5.3251,-5.3406,-5.3269,-5.3963,-5.3598,-5.2723,-5.3012,-5.2652,-5.1972,-5.1726,-5.1448,-5.1214,-5.1214,-5.1214,-5.1214,-5.1214,-5.1214,-5.1214,-5.1214,-5.1214,-5.1214,-5.1214,-5.1214,-5.1214,-5.1214,-5.1214,-5.1214,-5.1214,-5.1214,-5.1214,-5.1214,-5.1214,-5.1214,-5.1214,-5.1214,-5.1214,-5.1214,-5.0689,-5.0285,-5.0196,-4.9748,-4.9149,-4.8491,0.0,0.0,0.0,0.0,0.0,-4.7309,-4.7309,0.0,0.0,0.0,-4.7339,-4.7429,-4.8072,-4.873,-4.9434,-5.0047,-5.0599,-5.1214,-5.1214,-5.1214,-5.1214,-5.1214,-5.1214,-5.1214,-5.1214,-5.1214,-5.1214,-5.1214,-5.1214,-5.1214,-5.1214,-5.1214,-5.1167,-5.0902,-5.0695,-5.0486,0.0,0.0,0.0,0.0,0.0,-5.3247,-5.3598,-5.3262,-5.3378,-5.4472,-5.472,-5.5015,-5.5601,-5.5647,-5.5854,-5.647,-5.6382,0.0,0.0,0.0,0.0,-5.54,-5.4688,-5.4291,-5.4291,-5.4212,-5.3848,-5.3235,-5.3235,-5.2937,-5.2409,0.0,0.0,0.0,0.0,0.0,-5.394,-5.4644,0.0,-5.4482,-5.5125,-5.4938,-5.429,-5.4024,-5.3334,-5.2487,-5.2063,-5.1602,-5.1214,-5.1214,-5.1214,-5.1214,-5.1214,-5.1214,-5.1214,-5.1214,-5.1214,-5.1214,-5.1214,-5.1214,-5.1214,-5.1214,-5.1214,-5.1214,-5.1214,-5.1214,-5.1214,-5.1214,-5.1214,-5.1214,-5.1214,-5.1214,-5.1214,-5.1214,-5.1124,-5.0808,-5.027,-5.0091,-4.9823,-4.9224,-4.9134,-4.888,0.0,0.0,0.0,0.0,0.0,0.0,0.0,0.0,-4.7549,0.0,-4.8805,-4.9404,0.0,0.0,-5.1063,-5.1214,-5.1214,-5.1214,-5.1214,-5.1214,-5.1214,-5.1214,-5.1214,-5.1214,-5.1214,-5.1214,-5.1214,-5.1214,-5.1214,-5.1214,-5.1167,-5.0902,-5.076,-5.068,0.0,0.0,0.0,0.0,0.0,0.0,0.0,-5.5289,-5.52,-5.5618,-5.5682,-5.5913,-5.6538,-5.6621,-5.6717,-5.6992,-5.7025,-5.7025,-5.7025,-5.667,-5.6471,-5.6471,-5.5771,-5.5351,-5.524,-5.4858,-5.4418,-5.398,-5.398,-5.3814,-5.35,-5.35,0.0,0.0,0.0,-5.432,0.0,0.0,0.0,-5.5618,-5.5922,-5.5677,-5.5008,-5.4454,-5.3667,-5.2802,-5.2216,-5.1664,-5.1214,-5.1214,-5.1214,-5.1214,-5.1214,-5.1214,-5.1214,-5.1214,-5.1214,-5.1214,-5.1214,-5.1214,-5.1214,-5.1214,-5.1214,-5.1214,-5.1214,-5.1214,-5.1214,-5.1214,-5.1214,-5.1214,-5.1214,-5.1214,-5.1214,-5.1214,-5.1214,-5.1109,-5.0749,-5.0704,-5.0496,-4.9838,-4.9778,-4.9508,-4.885,0.0,0.0,0.0,0.0,-4.7309,-4.7309,0.0,-4.7952,0.0,0.0,0.0,-5.0196,0.0,-5.1214,-5.1214,-5.1214,-5.1214,-5.1214,-5.1214,-5.1214,-5.1214,-5.1214,-5.1214,-5.1214,-5.1214,-5.1214,-5.1214,-5.1214,-5.1214,-5.1167,-5.1058,-5.1011,-5.0917,0.0,-5.482,0.0,0.0,-5.5852,0.0,-5.6917,-5.7171,-5.7164,-5.6835,-5.6798,-5.7066,-5.775,-5.7834,-5.7834,-5.7758,-5.7758,-5.7758,-5.7758,-5.7608,-5.7524,-5.7524,-5.6837,-5.6362,-5.6192,-5.5646,-5.5168,-5.4796,-5.4796,-5.4713,-5.449,-5.449,0.0,0.0,0.0,0.0,0.0,0.0,-5.6068,-5.6463,-5.6463,-5.6109,-5.5466,-5.4816,-5.3911,-5.2964,-5.2276,-5.1695,-5.1214,-5.1214,-5.1214,-5.1214,-5.1214,-5.1214,-5.1214,-5.1214,-5.1214,-5.1214,-5.1214,-5.1214,-5.1214,-5.1214,-5.1214,-5.1214,-5.1214,-5.1214,-5.1214,-5.1214,-5.1214,-5.1214,-5.1214,-5.1214,-5.1214,-5.1214,-5.1214,-5.1214,-5.1214,-5.1214,-5.102,-5.0465,-5.0405,-5.0197,-4.9538,0.0,0.0,0.0,0.0,-4.7728,-4.7728,-4.8222,-4.8551,0.0,0.0,-5.0255,-5.0405,0.0,-5.1214,-5.1214,-5.1214,-5.1214,-5.1214,-5.1214,-5.1214,-5.1214,-5.1214,-5.1214,-5.1214,-5.1214,-5.1214,-5.1214,-5.1214,-5.1214,-5.1214,-5.1214,-5.1214,-5.1135,0.0,0.0,0.0,0.0,0.0,0.0,-5.7679,-5.8355,-5.8775,-5.8738,-5.8738,-5.8933,-5.9506,-5.959,-5.9497,-5.9304,-5.9304,-5.9304,-5.9304,-5.8662,-5.8294,-5.8294,-5.7591,-5.7189,-5.7189,-5.7122,-5.6659,-5.5784,-5.5784,-5.5323,-5.449,-5.449,0.0,0.0,0.0,0.0,-5.6581,-5.6581,-5.663,-5.668,-5.668,-5.6424,-5.5966,-5.5287,-5.428,-5.3183,-5.2517,-5.1803,-5.1214,-5.1214,-5.1214,-5.1214,-5.1214,-5.1214,-5.1214,-5.1214,-5.1214,-5.1214,-5.1214,-5.1214,-5.1214,-5.1214,-5.1214,-5.1214,-5.1214,-5.1214,-5.1214,-5.1214,-5.1214,-5.1214,-5.1214,-5.1214,-5.1214,-5.1214,-5.1214,-5.1214,-5.1214,-5.1214,-5.1199,-5.1124,-5.1124,-5.087,-5.0166,-5.0106,0.0,0.0,-4.912,-4.912,-4.912,-4.9179,-4.9449,-4.9986,-5.0121,-5.048,-5.1124,-5.1184,-5.1214,-5.1214,-5.1214,-5.1214,-5.1214,-5.1214,-5.1214,-5.1214,-5.1214,-5.1214,-5.1214,-5.1214,-5.1214,-5.1214,-5.1214,-5.1214,-5.1214,-5.1214,-5.1214,-5.1167,0.0,0.0,0.0,0.0,0.0,0.0,0.0,-5.9471,-5.9844,-6.0334,-5.9962,-5.9738,-5.995,-5.9983,-5.9945,-5.9869,-5.9869,-5.9869,-5.9869,-5.9599,-5.9431,-5.9431,-5.8723,-5.8261,-5.8148,-5.7711,-5.723,-5.6742,-5.6742,-5.6479,-5.6008,-5.6008,-5.6158,-5.6457,-5.6571,-5.672,-5.6872,-5.6872,-5.6796,-5.668,-5.668,-5.6463,-5.6046,-5.5369,-5.4449,-5.3465,-5.3053,-5.2548,-5.2077,-5.2324,-5.2127,-5.1813,-5.1813,-5.2082,-5.2396,-5.2396,-5.2396,-5.2396,-5.2396,-5.2396,-5.2396,-5.2396,-5.2396,-5.2396,-5.2396,-5.2097,-5.1813,-5.1813,-5.1498,-5.1214,-5.1214,-5.1214,-5.1214,-5.1214,-5.1214,-5.1214,-5.1214,-5.1214,-5.1214,-5.1214,-5.1214,-5.1063,-5.0808,-5.0779,0.0,0.0,0.0,-4.9314,-4.9314,-4.9628,-4.9972,-5.0181,0.0,-5.0945,-5.1214,-5.1214,-5.1214,-5.1214,-5.1214,-5.1214,-5.1214,-5.1214,-5.1214,-5.1214,-5.1214,-5.1214,-5.1214,-5.1214,-5.1214,-5.1214,-5.1214,-5.1214,-5.1214,-5.1214,-5.1214,-5.1214,-5.7306,0.0,-5.8101,0.0,-5.9336,-5.959,-6.0334,-6.0452,-6.074,-6.1518,-6.1129,-6.0774,-6.0774,-6.0774,-6.0774,-6.0774,-6.0774,-6.0774,-6.0774,-6.0571,-6.0452,-6.0452,-5.9742,0.0,-5.9094,-5.8369,-5.7907,-5.7721,-5.7502,-5.7289,-5.7101,-5.7101,-5.7101,-5.7101,-5.7252,-5.7214,-5.7101,-5.7025,-5.6911,-5.6796,-5.6719,-5.6502,-5.6142,-5.5759,-5.5021,-5.4159,-5.4033,-5.3574,-5.3164,-5.3378,-5.3203,-5.2852,-5.2594,-5.2815,-5.3174,-5.3174,-5.3174,-5.3174,-5.3174,-5.3174,-5.3174,-5.3174,-5.3174,-5.3174,-5.3174,-5.2815,-5.2441,-5.2232,-5.1828,-5.1454,-5.1259,-5.1214,-5.1214,-5.1214,-5.1214,-5.1214,-5.1214,-5.1214,-5.1214,-5.1214,-5.1214,-5.1214,-5.1214,-5.1214,0.0,0.0,0.0,-4.9838,-4.9838,-5.0272,-5.048,0.0,0.0,0.0,-5.1214,-5.1214,-5.1214,-5.1214,-5.1214,-5.1214,-5.1214,-5.1214,-5.1214,-5.1214,-5.1214,-5.1214,-5.1214,-5.1214,-5.1214,-5.1214,-5.1214,-5.1214,-5.1214,-5.1214,-5.1214,-5.1214,-5.8846,-5.9573,-6.0063,-6.008,-6.008,-6.0368,-6.1163,-6.1298,-6.1552,-6.2279,-6.2364,-6.2364,-6.2364,-6.2364,-6.2364,-6.2364,-6.2364,-6.2364,-6.2364,-6.1687,-6.1298,0.0,0.0,-6.008,-6.008,-5.937,-5.8886,-5.8698,-5.7941,-5.7476,-5.7289,-5.7289,-5.7289,-5.7289,-5.7289,-5.7289,-5.7289,-5.7101,-5.6987,-5.6987,-5.6757,-5.658,-5.6412,-5.6678,-5.6221,-5.5391,-5.5426,-5.4977,-5.4354,-5.4086,-5.4222,-5.4402,-5.3481,-5.3174,-5.3174,-5.3174,-5.3174,-5.3174,-5.3174,-5.3174,-5.3174,-5.3174,-5.3174,-5.3174,-5.3174,-5.3174,-5.298,-5.2336,-5.2187,-5.1992,-5.1334,-5.1214,-5.1214,-5.1214,-5.1214,-5.1214,-5.1214,-5.1214,-5.1214,-5.1214,-5.1214,-5.1214,-5.1214,-5.1214,0.0,0.0,0.0,0.0,0.0,0.0,0.0,-5.1214,-5.1214,0.0,-5.1214,-5.1214,-5.1214,-5.1214,-5.1214,-5.1214,-5.1214,-5.1214,-5.1214,-5.1214,-5.1214,-5.1214,-5.1214,-5.1214,-5.1214,-5.1214,-5.1214,-5.1214,-5.1214,-5.1214,-5.1214,-5.1214,-5.9708,-5.9945,-6.0266,-6.0825,-6.0926,-6.118,-6.1924,-6.2042,-6.2127,-6.2364,-6.2381,-6.2381,-6.2381,-6.2381,-6.2381,0.0,-6.2381,-6.2381,0.0,-6.2178,-6.2042,-6.2042,-6.1315,-6.0926,-6.0926,-6.0148,-5.9721,-5.9629,-5.8903,-5.8204,-5.7514,-5.7514,-5.7514,-5.7514,-5.7662,-5.7625,-5.7476,-5.7289,-5.7439,-5.7736,-5.752,-5.7622,-5.7901,-5.7773,-5.73,-5.6632,-5.6791,-5.6504,-5.6046,-5.6105,-5.6079,-5.5926,-5.5258,-5.4819,-5.4551,-5.4551,-5.4551,-5.4551,-5.4551,-5.4551,-5.4551,-5.4551,-5.4551,-5.4551,-5.4551,-5.4206,-5.3683,-5.301,-5.2516,-5.2127,-5.1932,-5.1528,-5.1214,-5.1214,-5.1214,-5.1214,-5.1214,-5.1214,-5.1214,-5.1214,-5.1214,-5.1214,-5.1214,-5.1214,0.0,0.0,0.0,0.0,0.0,0.0,0.0,0.0,-5.1214,0.0,-5.1214,-5.1214,-5.1214,-5.1214,-5.1214,-5.1214,-5.1214,-5.1214,-5.1214,-5.1214,-5.1214,-5.1214,-5.1214,-5.1214,-5.1214,-5.1214,-5.1214,-5.1214,-5.1214,-5.1214,-5.1214,-5.1214,-6.0554,-6.0774,-6.1112,-6.162,-6.1704,-6.1873,-6.2313,-6.2381,-6.2381,-6.2381,-6.2381,-6.2381,-6.2381,-6.2381,0.0,-6.2381,-6.2381,-6.2381,-6.2381,-6.2381,-6.2381,-6.2381,-6.1958,-6.1704,-6.1704,-6.0943,-6.0554,-6.0554,-5.9793,-5.9109,-5.8525,-5.8525,-5.8525,-5.8525,-5.8673,-5.8636,-5.8525,-5.8241,-5.8318,-5.8597,-5.8401,-5.8525,-5.8852,-5.8856,-5.8525,-5.8102,-5.8277,-5.809,-5.7747,-5.7699,-5.7511,-5.7164,-5.6651,-5.6179,-5.5715,-5.533,-5.5194,-5.5194,-5.5194,-5.5194,-5.5194,-5.5194,-5.5194,-5.5194,-5.5194,-5.488,-5.4386,-5.3713,-5.3234,-5.28,-5.2291,-5.1872,-5.1498,-5.1259,-5.1214,-5.1214,-5.1214,-5.1214,-5.1214,-5.1214,-5.1214,-5.1214,-5.1214,-5.1214,-5.1214,0.0,0.0,0.0,0.0,0.0,-5.1214,-5.1214,-5.1214,-5.1214,-5.1214,-5.1214,-5.1214,-5.1214,-5.1214,-5.1214,-5.1214,-5.1214,-5.1214,-5.1214,-5.1214,-5.1214,-5.1214,-5.1214,-5.1214,-5.1214,-5.1214,-5.1214,-5.1214,-5.1214,-5.1214,-5.1214,-6.1383,-6.1924,-6.2381,-6.2381,-6.2381,-6.2415,-6.2465,-6.2415,-6.2415,-6.2465,-6.2415,-6.2381,-6.2381,-6.2381,-6.2381,-6.2381,0.0,0.0,-6.2381,-6.2381,-6.2381,-6.2381,-6.2381,-6.2381,-6.2381,-6.1721,-6.1349,-6.1298,-6.0554,-6.0148,-6.0097,-6.0097,-6.0097,-6.0097,-6.0097,-6.0097,-6.0059,-5.971,-5.955,-5.96,-5.9364,-5.9318,-5.9435,-5.9932,-5.9936,-5.9695,-5.9773,-5.9624,-5.9331,-5.8866,-5.8503,-5.8211,-5.7715,-5.7195,-5.6554,-5.5566,-5.5229,-5.5244,-5.5244,-5.5194,-5.5194,-5.5194,-5.5194,-5.5194,-5.5194,-5.5194,-5.5014,-5.4401,-5.4236,-5.3832,-5.2576,-5.2261,-5.2007,-5.1394,-5.1244,-5.1214,-5.1214,-5.1214,-5.1214,-5.1214,-5.1214,-5.1214,-5.1214,-5.1214,-5.1214,0.0,0.0,0.0,0.0,0.0,-5.1214,-5.1214,-5.1214,-5.1214,-5.1214,-5.1214,-5.1214,-5.1214,-5.1214,-5.1214,-5.1214,-5.1214,-5.1214,-5.1214,-5.1214,-5.1214,-5.1214,-5.1214,-5.1214,-5.1214,-5.1214,-5.1214,-5.1214,-5.1214,-5.1214,-5.1214,0.0,0.0,-6.2381,-6.2381,-6.2381,-6.2584,-6.3159,-6.2753,-6.2601,-6.3176,-6.2753,-6.2381,-6.2381,-6.2381,-6.2381,-6.2381,-6.2381,-6.2381,-6.2381,-6.2381,-6.2381,-6.2381,-6.2381,-6.2381,-6.2381,-6.2229,-6.1856,-6.1298,-6.1112,-6.0706,-6.0097,-6.0097,-6.0097,-6.0097,-6.0097,-6.0097,-6.0097,-5.9831,-6.0051,-6.0533,-6.0336,-6.0608,-6.1127,-6.127,-6.1068,-6.0729,-6.0769,-6.0479,-6.0076,-5.9783,-5.9387,-5.8956,-5.8503,-5.798,-5.7354,-5.6311,-5.5815,-5.5496,-5.5496,-5.5345,-5.5194,-5.5194,-5.5194,-5.5194,-5.5194,-5.5194,-5.5149,-5.4999,-5.4566,-5.4117,-5.3803,-5.289,-5.2157,-5.1992,-5.1543,-5.1214,-5.1214,-5.1214,-5.1214,-5.1214,-5.1214,-5.1214,-5.1214,-5.1214,-5.1214,-5.1214,0.0,-5.1214,-5.1214,-5.1214,-5.1214,-5.1214,-5.1214,-5.1214,-5.1214,-5.1214,-5.1214,-5.1214,-5.1214,-5.1214,-5.1214,-5.1214,-5.1214,-5.1214,-5.1214,-5.1214,-5.1214,-5.1214,-5.1214,-5.1214,-5.1214,-5.1214,-5.1214,-5.1214,-5.1214,-5.1214,-6.2837,-6.2905,-6.3007,-6.3345,-6.3396,-6.3531,-6.3954,-6.3666,-6.3548,-6.3954,-6.3649,-6.3277,-6.2939,-6.2905,-6.277,-6.2415,-6.2381,-6.2381,-6.2381,-6.2381,-6.2381,-6.2381,-6.2381,-6.2381,-6.2381,-6.2381,-6.2195,-6.1789,-6.1789,-6.1569,-6.1146,-6.1146,-6.1146,-6.1146,-6.1146,-6.1146,-6.1146,-6.088,-6.1038,-6.1408,-6.1289,-6.1484,-6.1854,-6.1854,-6.1692,-6.1482,-6.1276,-6.1069,-6.0802,-6.0447,-6.0147,-5.9843,-5.9387,-5.8985,-5.8517,-5.7731,-5.6844,-5.6047,-5.58,-5.5566,-5.533,-5.5244,-5.5194,-5.5194,-5.5194,-5.5194,-5.5194,-5.5194,-5.491,-5.4566,-5.4266,-5.3608,-5.292,-5.2291,-5.1902,-5.1558,-5.1259,-5.1214,-5.1214,-5.1214,-5.1214,-5.1214,-5.1214,-5.1214,-5.1214,-5.1214,-5.1214,0.0,-5.1214,-5.1214,-5.1214,-5.1214,-5.1214,-5.1214,-5.1214,-5.1214,-5.1214,-5.1214,-5.1214,-5.1214,-5.1214,-5.1214,-5.1214,-5.1214,-5.1214,-5.1214,-5.1214,-5.1214,-5.1214,-5.1214,-5.1214,-5.1214,-5.1214,-5.1214,-5.1214,-5.1214,-6.3396,-6.3599,-6.3869,-6.4495,-6.4597,-6.4647,-6.4749,-6.4664,-6.4647,-6.4749,-6.4664,-6.436,-6.3751,-6.3582,-6.326,-6.2618,-6.2448,-6.2381,-6.2381,-6.2381,-6.2381,-6.2381,-6.2381,-6.2381,-6.2381,-6.2381,-6.2381,-6.2381,-6.2381,-6.2381,-6.2381,-6.2381,-6.2381,-6.2381,-6.2381,-6.2381,-6.2398,-6.215,-6.2037,-6.2037,-6.2037,-6.2037,-6.2037,-6.2037,-6.2037,-6.1957,-6.1611,-6.1465,-6.1342,-6.0928,-6.076,-6.0616,-6.0216,-5.9973,-5.9712,-5.9257,-5.8088,-5.6844,-5.6213,-5.58,-5.5481,-5.5244,-5.5194,-5.5194,-5.5194,-5.5194,-5.5194,-5.5194,-5.5194,-5.5029,-5.4461,-5.4281,-5.3832,-5.2695,-5.2336,-5.2007,-5.1439,-5.1274,-5.1214,-5.1214,-5.1214,-5.1214,-5.1214,-5.1214,-5.1214,-5.1214,-5.1214,-5.1214,-5.1214,-5.1214,-5.1214,-5.1214,-5.1214,-5.1214,-5.1214,-5.1319,-5.1364,-5.1364,-5.1364,-5.1364,-5.1364,-5.1274,-5.1214,-5.1214,-5.1214,-5.1214,-5.1214,-5.1214,-5.1214,-5.1214,-5.1214,-5.1214,-5.1214,-5.1214,-5.1214,-5.1214,-6.3497,-6.4005,-6.4478,-6.458,-6.4597,-6.48,-6.5425,-6.5002,-6.4816,-6.5442,-6.4986,-6.4563,-6.4444,-6.3886,-6.3463,-6.3345,-6.2753,-6.2381,-6.2381,-6.2381,-6.2381,-6.2381,-6.2381,-6.2381,-6.2381,-6.2381,-6.2381,-6.2381,-6.2381,-6.2381,-6.2381,-6.2381,-6.2381,-6.2381,-6.2381,-6.2381,-6.2381,-6.2341,-6.2341,-6.2341,-6.2341,-6.2341,-6.2341,-6.2341,-6.2189,-6.198,-6.1917,-6.1692,-6.1383,-6.1301,-6.1053,-6.0675,-6.0616,-6.0463,-6.0222,-5.9744,-5.8972,-5.8026,-5.6892,-5.5948,-5.5229,-5.5194,-5.5194,-5.5194,-5.5194,-5.5194,-5.5194,-5.5194,-5.5194,-5.5164,-5.5059,-5.4581,-5.4147,-5.3922,-5.295,-5.2157,-5.2067,-5.1573,-5.1214,-5.1214,-5.1214,-5.1214,-5.1214,-5.1214,-5.1214,-5.1214,-5.1214,-5.1214,-5.1214,-5.1214,-5.1214,-5.1214,-5.1214,-5.1214,-5.1214,-5.1768,-5.2052,-5.2052,-5.2052,-5.2052,-5.2037,-5.1468,-5.1214,-5.1214,-5.1214,-5.1214,-5.1214,-5.1214,-5.1214,-5.1214,-5.1214,-5.1214,-5.1214,-5.1214,-5.1214,-5.1214,-6.4529,-6.4952,-6.5307,-6.573,-6.5797,-6.5899,-6.6237,-6.6,-6.5916,-6.6254,-6.6,-6.5628,-6.5239,-6.4529,-6.3937,-6.3548,-6.2821,-6.2381,-6.2381,-6.2381,-6.2381,-6.2381,-6.2381,-6.2381,-6.2381,-6.2381,-6.2381,-6.2381,-6.2381,-6.2381,-6.2381,-6.2381,-6.2381,-6.2381,-6.2381,-6.2381,-6.2381,-6.2381,-6.2381,-6.2381,-6.2381,-6.2381,-6.2381,-6.2381,-6.2325,-6.2189,-6.2037,-6.1877,-6.1692,-6.1465,-6.126,-6.1053,-6.0944,-6.0835,-6.0666,-6.0222,-5.8985,-5.7559,-5.657,-5.5765,-5.5194,-5.5194,-5.5194,-5.5194,-5.5194,-5.5194,-5.5194,-5.5194,-5.5194,-5.5194,-5.5194,-5.494,-5.4625,-5.4266,-5.3683,-5.3144,-5.2785,-5.2157,-5.1753,-5.1753,-5.1439,-5.1214,-5.1214,-5.1214,-5.1214,-5.1214,-5.1214,-5.1214,-5.1214,-5.1558,-5.1753,-5.1753,-5.1753,-5.1753,-5.1753,-5.2396,-5.2725,-5.2725,-5.2725,-5.2725,-5.271,-5.2052,-5.1753,-5.1723,-5.1379,-5.1214,-5.1214,-5.1214,-5.1214,-5.1214,-5.1214,-5.1214,-5.1214,-5.1214,-5.1214,-5.1214,-6.5476,-6.5831,-6.6136,-6.6711,-6.6812,-6.6812,-6.6812,-6.6812,-6.6812,-6.6812,-6.6812,-6.6592,-6.6017,-6.5138,-6.4377,-6.3818,-6.2922,-6.2381,-6.2381,-6.2381,-6.2381,-6.2381,-6.2381,-6.2381,-6.2381,-6.2381,-6.2381,-6.2381,-6.2381,-6.2381,-6.2381,-6.2381,-6.2381,-6.2381,-6.2381,-6.2381,-6.2381,-6.2381,-6.2381,-6.2381,-6.2381,-6.2381,-6.2381,-6.2381,-6.2381,-6.2381,-6.2189,-6.2037,-6.1957,-6.1652,-6.1506,-6.1424,-6.121,-6.1186,-6.1044,-6.0565,-5.8924,-5.7084,-5.621,-5.5631,-5.5194,-5.5194,-5.5194,-5.5194,-5.5194,-5.5194,-5.5194,-5.5194,-5.5194,-5.5194,-5.5194,-5.5194,-5.5029,-5.4521,-5.4311,-5.4027,-5.3488,-5.2845,-5.2426,-5.2426,-5.1977,-5.1678,-5.1678,-5.1678,-5.1678,-5.1678,-5.1678,-5.1678,-5.1678,-5.2157,-5.2426,-5.2426,-5.2426,-5.2426,-5.2426,-5.3084,-5.3414,-5.3414,-5.3414,-5.3414,-5.3384,-5.2576,-5.2202,-5.2157,-5.1498,-5.1214,-5.1214,-5.1214,-5.1214,-5.1214,-5.1214,-5.1214,-5.1214,-5.1214,-5.1214,-5.1214,-6.5662,-6.6254,-6.6745,-6.6795,-6.6812,-6.6812,-6.6812,-6.6812,-6.6812,-6.6812,-6.6812,-6.6795,-6.6728,-6.5459,-6.458,-6.4529,-6.321,-6.2381,-6.2381,-6.2381,-6.2381,-6.2381,-6.2381,-6.2381,-6.2381,-6.2381,-6.2381,-6.2381,-6.2381,-6.2381,-6.2381,-6.2381,-6.2381,-6.2381,-6.2381,-6.2381,-6.2381,-6.2381,-6.2381,-6.2381,-6.2381,-6.2381,-6.2381,-6.2381,-6.2381,-6.2381,-6.2381,-6.2189,-6.1997,-6.1957,-6.1854,-6.1628,-6.1424,-6.1383,-6.126,-6.0591,-5.9149,-5.7496,-5.6308,-5.5631,-5.5194,-5.5194,-5.5194,-5.5194,-5.5194,-5.5194,-5.5194,-5.5194,-5.5194,-5.5194,-5.5194,-5.5194,-5.5179,-5.5119,-5.461,-5.4192,-5.4147,-5.3548,-5.3114,-5.3114,-5.3069,-5.3039,-5.3039,-5.3039,-5.3039,-5.3039,-5.3039,-5.3039,-5.3039,-5.3084,-5.3114,-5.3114,-5.3114,-5.3114,-5.3114,-5.3788,-5.4132,-5.4132,-5.4132,-5.4132,-5.4087,-5.2785,-5.2202,-5.2157,-5.1498,-5.1214,-5.1214,-5.1214,-5.1214,-5.1214,-5.1214,-5.1214,-5.1214,-5.1214,-5.1214,-5.1214,-6.6288,-6.6626,-6.6812,-6.6812,-6.6812,-6.6812,-6.6812,-6.6812,-6.6812,-6.6812,-6.6812,-6.6643,-6.617,-6.5205,-6.4427,-6.3971,-6.299,-6.2381,-6.2381,-6.2381,-6.2381,-6.2381,-6.2381,-6.2381,-6.2381,-6.2381,-6.2381,-6.2381,-6.2381,-6.2381,-6.2381,-6.2381,-6.2381,-6.2381,-6.2381,-6.2381,-6.2381,-6.2381,-6.2381,-6.2381,-6.2381,-6.2381,-6.2381,-6.2381,-6.2381,-6.2381,-6.2381,-6.2325,-6.2229,-6.2037,-6.1957,-6.1854,-6.1669,-6.1588,-6.1367,-6.0243,-5.8892,-5.7574,-5.6457,-5.5815,-5.5396,-5.5244,-5.5194,-5.5194,-5.5194,-5.5194,-5.5194,-5.5194,-5.5194,-5.5194,-5.5194,-5.5194,-5.5194,-5.5194,-5.4985,-5.482,-5.482,-5.4236,-5.3817,-5.3817,-5.3443,-5.3174,-5.3174,-5.3174,-5.3174,-5.3174,-5.3174,-5.3174,-5.3174,-5.3578,-5.4012,-5.4416,-5.4431,-5.4221,-5.3817,-5.4491,-5.482,-5.482,-5.482,-5.482,-5.479,-5.3862,-5.3204,-5.277,-5.2112,-5.1588,-5.1214,-5.1214,-5.1214,-5.1214,-5.1214,-5.1214,-5.1214,-5.1214,-5.1214,-5.1214,-6.6711,-6.6812,-6.6812,-6.6812,-6.6812,-6.6812,-6.6812,-6.6812,-6.6728,-6.6491,-6.6457,-6.617,-6.5425,-6.4698,-6.4055,-6.3548,-6.2821,-6.2381,-6.2381,-6.2381,-6.2381,-6.2381,-6.2381,-6.2381,-6.2381,-6.2381,-6.2381,-6.2381,-6.2381,-6.2381,-6.2381,-6.2381,-6.2381,-6.2381,-6.2381,-6.2381,-6.2381,-6.2381,-6.2381,-6.2381,-6.2381,-6.2381,-6.2381,-6.2381,-6.2381,-6.2381,-6.2381,-6.2381,-6.2381,-6.2189,-6.2133,-6.2093,-6.1854,-6.1669,-6.1301,-6.0157,-5.9059,-5.7964,-5.6925,-5.6277,-5.5715,-5.528,-5.5194,-5.5194,-5.5194,-5.5194,-5.5194,-5.5194,-5.5194,-5.5194,-5.5194,-5.5194,-5.5194,-5.5194,-5.5194,-5.5194,-5.5194,-5.4805,-5.4521,-5.4521,-5.4102,-5.3817,-5.3817,-5.3817,-5.3817,-5.3817,-5.3817,-5.3817,-5.3817,-5.4266,-5.4715,-5.5179,-5.5194,-5.497,-5.4521,-5.497,-5.5194,-5.5194,-5.5194,-5.5194,-5.5164,-5.4506,-5.3952,-5.3443,-5.2576,-5.1947,-5.1513,-5.1304,-5.1214,-5.1214,-5.1214,-5.1214,-5.1214,-5.1214,-5.1214,-5.1214,-6.6812,-6.6812,-6.6812,-6.6812,-6.6812,-6.6812,-6.6812,-6.6795,-6.6542,-6.5781,-6.5679,-6.5392,-6.4664,-6.3954,-6.3514,-6.3497,-6.2821,-6.2381,-6.2381,-6.2381,-6.2381,-6.2381,-6.2381,-6.2381,-6.2381,-6.2381,-6.2381,-6.2381,-6.2381,-6.2381,-6.2381,-6.2381,-6.2381,-6.2381,-6.2381,-6.2381,-6.2381,-6.2381,-6.2381,-6.2381,-6.2381,-6.2381,-6.2381,-6.2381,-6.2381,-6.2381,-6.2381,-6.2381,-6.2381,-6.2381,-6.2381,-6.2341,-6.2093,-6.1588,-6.1019,-6.0522,-5.9744,-5.8762,-5.7762,-5.6892,-5.613,-5.5381,-5.5194,-5.5194,-5.5194,-5.5194,-5.5194,-5.5194,-5.5194,-5.5194,-5.5194,-5.5194,-5.5194,-5.5194,-5.5194,-5.5194,-5.5194,-5.5194,-5.5194,-5.5194,-5.5194,-5.5194,-5.5194,-5.5194,-5.5194,-5.5194,-5.5194,-5.5194,-5.5194,-5.5194,-5.5194,-5.5194,-5.5194,-5.5194,-5.5194,-5.5194,-5.5194,-5.5194,-5.5194,-5.5194,-5.5164,-5.4521,-5.4206,-5.4147,-5.2785,-5.2217,-5.2157,-5.1498,-5.1214,-5.1214,-5.1214,-5.1214,-5.1214,-5.1214,-5.1214,-5.1214,-6.6812,-6.6812,-6.6812,-6.6812,-6.6812,-6.6643,-6.6102,-6.6017,-6.5764,-6.5019,-6.4935,-6.4647,-6.392,-6.3649,-6.3311,-6.277,-6.2516,-6.2381,-6.2381,-6.2381,-6.2381,-6.2381,-6.2381,-6.2381,-6.2381,-6.2381,-6.2381,-6.2381,-6.2381,-6.2381,-6.2381,-6.2381,-6.2381,-6.2381,-6.2381,-6.2381,-6.2381,-6.2381,-6.2381,-6.2381,-6.2381,-6.2381,-6.2381,-6.2381,-6.2381,-6.2381,-6.2381,-6.2381,-6.2381,-6.2381,-6.2381,-6.2398,-6.2302,-6.1847,-6.1235,-6.076,-5.9859,-5.8762,-5.7762,-5.7036,-5.6409,-5.5666,-5.5345,-5.5194,-5.5194,-5.5194,-5.5194,-5.5194,-5.5194,-5.5194,-5.5194,-5.5194,-5.5194,-5.5194,-5.5194,-5.5194,-5.5194,-5.5194,-5.5194,-5.5194,-5.5194,-5.5194,-5.5194,-5.5194,-5.5194,-5.5194,-5.5194,-5.5194,-5.5194,-5.5194,-5.5194,-5.5194,-5.5194,-5.5194,-5.5194,-5.5194,-5.5194,-5.5194,-5.5194,-5.5194,-5.5179,-5.4985,-5.464,-5.4192,-5.3788,-5.3069,-5.2187,-5.1992,-5.1633,-5.1214,-5.1214,-5.1214,-5.1214,-5.1214,-5.1214,-5.1214,-6.6812,-6.6576,-6.6356,-6.6356,-6.6119,-6.5781,-6.5324,-6.5256,-6.5002,-6.4275,-6.4174,-6.3886,-6.3159,-6.3057,-6.2888,-6.2431,-6.2381,-6.2381,-6.2381,-6.2381,-6.2381,-6.2381,-6.2381,-6.2381,-6.2381,-6.2381,-6.2381,-6.2381,-6.2381,-6.2381,-6.2381,-6.2381,-6.2381,-6.2381,-6.2381,-6.2381,-6.2381,-6.2381,-6.2381,-6.2381,-6.2381,-6.2381,-6.2381,-6.2381,-6.2381,-6.2381,-6.2381,-6.2381,-6.2381,-6.2381,-6.2381,-6.2381,-6.2381,-6.2047,-6.153,-6.1094,-6.0276,-5.9375,-5.8457,-5.77,-5.7052,-5.6488,-5.5864,-5.5345,-5.5244,-5.5194,-5.5194,-5.5194,-5.5194,-5.5194,-5.5194,-5.5194,-5.5194,-5.5194,-5.5194,-5.5194,-5.5194,-5.5194,-5.5194,-5.5194,-5.5194,-5.5194,-5.5194,-5.5194,-5.5194,-5.5194,-5.5194,-5.5194,-5.5194,-5.5194,-5.5194,-5.5194,-5.5194,-5.5194,-5.5194,-5.5194,-5.5194,-5.5194,-5.5194,-5.5194,-5.5194,-5.5194,-5.497,-5.4581,-5.4326,-5.3593,-5.2561,-5.2306,-5.1813,-5.1214,-5.1214,-5.1214,-5.1214,-5.1214,-5.1214,-5.1214,-6.6609,-6.6068,-6.5595,-6.5595,-6.5036,-6.458,-6.4512,-6.4512,-6.4241,-6.3514,-6.3413,-6.3159,-6.2465,-6.2381,-6.2381,-6.2381,-6.2381,-6.2381,-6.2381,-6.2381,-6.2381,-6.2381,-6.2381,-6.2381,-6.2381,-6.2381,-6.2381,-6.2381,-6.2381,-6.2381,-6.2381,-6.2381,-6.2381,-6.2381,-6.2381,-6.2381,-6.2381,-6.2381,-6.2381,-6.2381,-6.2381,-6.2381,-6.2381,-6.2381,-6.2381,-6.2381,-6.2381,-6.2381,-6.2381,-6.2381,-6.2381,-6.2381,-6.2381,-6.2229,-6.1917,-6.1547,-6.0969,-6.0249,-5.9536,-5.8685,-5.7918,-5.7637,-5.6682,-5.5681,-5.533,-5.5229,-5.5244,-5.5179,-5.5194,-5.5194,-5.5194,-5.5194,-5.5194,-5.5194,-5.5194,-5.5194,-5.5194,-5.5194,-5.5194,-5.5194,-5.5194,-5.5194,-5.5194,-5.5194,-5.5194,-5.5194,-5.5194,-5.5194,-5.5194,-5.5194,-5.5194,-5.5194,-5.5194,-5.5194,-5.5194,-5.5194,-5.5194,-5.5194,-5.5194,-5.5194,-5.5194,-5.5194,-5.5194,-5.5164,-5.4551,-5.3907,-5.3219,-5.2561,-5.1902,-5.1304,-5.1244,-5.1214,-5.1214,-5.1214,-5.1214,-5.1214,-6.5087,-6.4952,-6.4833,-6.4833,-6.4715,-6.441,-6.3835,-6.3751,-6.348,-6.2736,-6.2634,-6.2567,-6.2415,-6.2381,-6.2381,-6.2381,-6.2381,-6.2381,-6.2381,-6.2381,-6.2381,-6.2381,-6.2381,-6.2381,-6.2381,-6.2381,-6.2381,-6.2381,-6.2381,-6.2381,-6.2381,-6.2381,-6.2381,-6.2381,-6.2381,-6.2381,-6.2381,-6.2381,-6.2381,-6.2381,-6.2381,-6.2381,-6.2381,-6.2381,-6.2381,-6.2381,-6.2381,-6.2381,-6.2381,-6.2381,-6.2381,-6.2381,-6.2381,-6.2229,-6.1957,-6.1709,-6.1177,-6.0532,-6.0001,-5.9314,-5.8671,-5.8181,-5.7559,-5.686,-5.5933,-5.5616,-5.5431,-5.5244,-5.5194,-5.5194,-5.5194,-5.5194,-5.5194,-5.5194,-5.5194,-5.5194,-5.5194,-5.5194,-5.5194,-5.5194,-5.5194,-5.5194,-5.5194,-5.5194,-5.5194,-5.5194,-5.5194,-5.5194,-5.5194,-5.5194,-5.5194,-5.5194,-5.5194,-5.5194,-5.5194,-5.5194,-5.5194,-5.5194,-5.5194,-5.5194,-5.5194,-5.5194,-5.5194,-5.5179,-5.5044,-5.4596,-5.3937,-5.3249,-5.2576,-5.1932,-5.1424,-5.1214,-5.1214,-5.1214,-5.1214,-5.1214,-6.4597,-6.4326,-6.4089,-6.4089,-6.3785,-6.3413,-6.304,-6.299,-6.2837,-6.2431,-6.2381,-6.2381,-6.2381,-6.2381,-6.2381,-6.2381,-6.2381,-6.2381,-6.2381,-6.2381,-6.2381,-6.2381,-6.2381,-6.2381,-6.2381,-6.2381,-6.2381,-6.2381,-6.2381,-6.2381,-6.2381,-6.2381,-6.2381,-6.2381,-6.2381,-6.2381,-6.2381,-6.2381,-6.2381,-6.2381,-6.2381,-6.2381,-6.2381,-6.2381,-6.2381,-6.2381,-6.2381,-6.2381,-6.2381,-6.2381,-6.2381,-6.2381,-6.2381,-6.2285,-6.215,-6.1894,-6.153,-6.1094,-6.0633,-6.012,-5.9552,-5.9149,-5.8624,-5.7902,-5.6748,-5.6179,-5.5899,-5.575,-5.5666,-5.5531,-5.5431,-5.5381,-5.533,-5.5244,-5.5194,-5.5194,-5.5194,-5.5194,-5.5194,-5.5194,-5.5194,-5.5194,-5.5194,-5.5194,-5.5194,-5.5194,-5.5194,-5.5194,-5.5194,-5.5194,-5.5194,-5.5194,-5.5194,-5.5194,-5.5194,-5.5194,-5.5194,-5.5194,-5.5194,-5.5194,-5.5194,-5.5194,-5.5194,-5.5194,-5.5194,-5.482,-5.4177,-5.3817,-5.3084,-5.2172,-5.1813,-5.1498,-5.1214,-5.1214,-5.1214,-5.1214,-6.4224,-6.3734,-6.3328,-6.3328,-6.2804,-6.2381,-6.2381,-6.2381,-6.2381,-6.2381,-6.2381,-6.2381,-6.2381,-6.2381,-6.2381,-6.2381,-6.2381,-6.2381,-6.2381,-6.2381,-6.2381,-6.2381,-6.2381,-6.2381,-6.2381,-6.2381,-6.2381,-6.2381,-6.2381,-6.2381,-6.2381,-6.2381,-6.2381,-6.2381,-6.2381,-6.2381,-6.2381,-6.2381,-6.2381,-6.2381,-6.2381,-6.2381,-6.2381,-6.2381,-6.2381,-6.2381,-6.2381,-6.2381,-6.2381,-6.2381,-6.2381,-6.2381,-6.2381,-6.2381,-6.2341,-6.2133,-6.1934,-6.1669,-6.1318,-6.0902,-6.0506,-6.0276,-5.9712,-5.8972,-5.784,-5.7069,-5.6539,-5.6491,-5.6326,-5.6111,-5.5815,-5.5715,-5.5581,-5.5295,-5.5244,-5.5194,-5.5194,-5.5194,-5.5194,-5.5194,-5.5194,-5.5194,-5.5194,-5.5194,-5.5194,-5.5194,-5.5194,-5.5194,-5.5194,-5.5194,-5.5194,-5.5194,-5.5194,-5.5194,-5.5194,-5.5194,-5.5194,-5.5194,-5.5194,-5.5194,-5.5194,-5.5194,-5.5194,-5.5194,-5.5194,-5.488,-5.4371,-5.4266,-5.3548,-5.2531,-5.2411,-5.1962,-5.1379,-5.1259,-5.1214,-5.1214,-6.2685,-6.2618,-6.2533,-6.2533,-6.2465,-6.2381,-6.2381,-6.2381,-6.2381,-6.2381,-6.2381,-6.2381,-6.2381,-6.2381,-6.2381,-6.2381,-6.2381,-6.2381,-6.2381,-6.2381,-6.2381,-6.2381,-6.2381,-6.2381,-6.2381,-6.2381,-6.2381,-6.2381,-6.2381,-6.2381,-6.2381,-6.2381,-6.2381,-6.2381,-6.2381,-6.2381,-6.2381,-6.2381,-6.2381,-6.2381,-6.2381,-6.2381,-6.2381,-6.2381,-6.2381,-6.2381,-6.2381,-6.2381,-6.2381,-6.2381,-6.2381,-6.2381,-6.2381,-6.2381,-6.2381,-6.2341,-6.215,-6.1957,-6.1877,-6.1571,-6.1219,-6.1002,-6.0565,-6.012,-5.9679,-5.8576,-5.7527,-5.7291,-5.7069,-5.686,-5.6603,-5.6164,-5.5785,-5.5581,-5.533,-5.5194,-5.5194,-5.5194,-5.5194,-5.5194,-5.5194,-5.5194,-5.5194,-5.5194,-5.5194,-5.5194,-5.5194,-5.5194,-5.5194,-5.5194,-5.5194,-5.5194,-5.5194,-5.5194,-5.5194,-5.5194,-5.5194,-5.5194,-5.5194,-5.5194,-5.5194,-5.5194,-5.5194,-5.5194,-5.5194,-5.5149,-5.5014,-5.4446,-5.4102,-5.3877,-5.3279,-5.265,-5.1992,-5.1424,-5.1214,-5.1214,-6.2381,-6.2381,-6.2381,-6.2381,-6.2381,-6.2381,-6.2381,-6.2381,-6.2381,-6.2381,-6.2381,-6.2381,-6.2381,-6.2381,-6.2381,-6.2381,-6.2381,-6.2381,-6.2381,-6.2381,-6.2381,-6.2381,-6.2381,-6.2381,-6.2381,-6.2381,-6.2381,-6.2381,-6.2381,-6.2381,-6.2381,-6.2381,-6.2381,-6.2381,-6.2381,-6.2381,-6.2381,-6.2381,-6.2381,-6.2381,-6.2381,-6.2381,-6.2381,-6.2381,-6.2381,-6.2381,-6.2381,-6.2381,-6.2381,-6.2381,-6.2381,-6.2381,-6.2381,-6.2381,-6.2381,-6.2381,-6.2325,-6.2189,-6.2037,-6.1877,-6.1692,-6.1482,-6.1194,-6.0886,-6.0692,-6.0001,-5.9222,-5.8592,-5.8165,-5.7746,-5.7212,-5.6684,-5.6164,-5.5666,-5.5381,-5.5194,-5.5194,-5.5194,-5.5194,-5.5194,-5.5194,-5.5194,-5.5194,-5.5194,-5.5194,-5.5194,-5.5194,-5.5194,-5.5194,-5.5194,-5.5194,-5.5194,-5.5194,-5.5194,-5.5194,-5.5194,-5.5194,-5.5194,-5.5194,-5.5194,-5.5194,-5.5194,-5.5194,-5.5194,-5.5194,-5.5194,-5.5164,-5.488,-5.4536,-5.4177,-5.3877,-5.3114,-5.2127,-5.1468,-5.1214,-5.1214]},{"header":{"parameterUnit":"m.s-1","parameterCategory":1,"la1":30.6,"la2":28.766,"lo1":-90.7593,"lo2":-88.6598,"dy":0.0162,"dx":0.0183,"nx":116,"ny":114,"refTime":"2023-06-11T12:00:00:Z","depth":0,"parameterNumber":3,"parameterNumberName":"V-component_of_WINDS"},"data":[0.0,0.0,0.0,0.0,0.0,0.0,0.0,0.0,0.0,0.0,0.0,0.0,0.0,0.0,0.0,0.0,0.0,0.0,0.0,0.0,0.0,0.0,0.0,0.0,0.0,0.0,0.0,0.0,0.0,0.0,0.0,0.0,0.0,0.0,0.0,0.0,0.0,0.0,0.0,0.0,0.0,0.0,0.0,0.0,0.0,0.0,0.0,0.0,0.0,0.0,0.0,0.0,0.0,0.0,0.0,0.0,0.0,0.0,0.0,0.0,0.0,0.0,0.0,0.0,0.0,0.0,0.0,0.0,0.0,0.0,0.0,0.0,0.0,0.0,0.0,0.0,0.0,0.0,0.0,0.0,0.0,0.0,0.0,0.0,0.0,0.0,0.0,0.0,0.0,0.0,0.0,0.0,0.0,0.0,0.0,0.0,0.0,0.0,0.0,0.0,0.0,0.0,0.0,0.0,0.0,0.0,0.0,0.0,0.0,0.0,0.0,0.0,0.0,0.0,0.0,0.0,0.0,0.0,0.0,0.0,0.0,0.0,0.0,0.0,0.0,0.0,0.0,0.0,0.0,0.0,0.0,0.0,0.0,0.0,0.0,0.0,0.0,0.0,0.0,0.0,0.0,0.0,0.0,0.0,0.0,0.0,0.0,0.0,0.0,0.0,0.0,0.0,0.0,0.0,0.0,0.0,0.0,0.0,0.0,0.0,0.0,0.0,0.0,0.0,0.0,0.0,0.0,0.0,0.0,0.0,0.0,0.0,0.0,0.0,0.0,0.0,0.0,0.0,0.0,0.0,0.0,0.0,0.0,0.0,0.0,0.0,0.0,0.0,0.0,0.0,0.0,0.0,0.0,0.0,0.0,0.0,0.0,0.0,0.0,0.0,0.0,0.0,0.0,0.0,0.0,0.0,0.0,0.0,0.0,0.0,0.0,0.0,0.0,0.0,0.0,0.0,0.0,0.0,0.0,0.0,0.0,0.0,0.0,0.0,0.0,0.0,0.0,0.0,0.0,0.0,0.0,0.0,0.0,0.0,0.0,0.0,0.0,0.0,0.0,0.0,0.0,0.0,0.0,0.0,0.0,0.0,0.0,0.0,0.0,0.0,0.0,0.0,0.0,0.0,0.0,0.0,0.0,0.0,0.0,0.0,0.0,0.0,0.0,0.0,0.0,0.0,0.0,0.0,0.0,0.0,0.0,0.0,0.0,0.0,0.0,0.0,0.0,0.0,0.0,0.0,0.0,0.0,0.0,0.0,0.0,0.0,0.0,0.0,0.0,0.0,0.0,0.0,0.0,0.0,0.0,0.0,0.0,0.0,0.0,0.0,0.0,0.0,0.0,0.0,0.0,0.0,0.0,0.0,0.0,0.0,0.0,0.0,0.0,0.0,0.0,0.0,0.0,0.0,0.0,0.0,0.0,0.0,0.0,0.0,0.0,0.0,0.0,0.0,0.0,0.0,0.0,0.0,0.0,0.0,0.0,0.0,0.0,0.0,0.0,0.0,0.0,0.0,0.0,0.0,0.0,0.0,0.0,0.0,0.0,0.0,0.0,0.0,0.0,0.0,0.0,0.0,0.0,0.0,0.0,0.0,0.0,0.0,0.0,0.0,0.0,0.0,0.0,0.0,0.0,0.0,0.0,0.0,0.0,0.0,0.0,0.0,0.0,0.0,0.0,0.0,0.0,0.0,0.0,0.0,0.0,0.0,0.0,0.0,0.0,0.0,0.0,0.0,0.0,0.0,0.0,0.0,0.0,0.0,0.0,0.0,0.0,0.0,0.0,0.0,0.0,0.0,0.0,0.0,0.0,0.0,0.0,0.0,0.0,0.0,0.0,0.0,0.0,0.0,0.0,0.0,0.0,0.0,0.0,0.0,0.0,0.0,0.0,0.0,0.0,0.0,0.0,0.0,0.0,0.0,0.0,0.0,0.0,0.0,0.0,0.0,0.0,0.0,0.0,0.0,0.0,0.0,0.0,0.0,0.0,0.0,0.0,0.0,0.0,0.0,0.0,0.0,0.0,0.0,0.0,0.0,0.0,0.0,0.0,0.0,0.0,0.0,0.0,0.0,0.0,0.0,0.0,0.0,0.0,0.0,0.0,0.0,0.0,0.0,0.0,0.0,0.0,0.0,0.0,0.0,0.0,0.0,0.0,0.0,0.0,0.0,0.0,0.0,0.0,0.0,0.0,0.0,0.0,0.0,0.0,0.0,0.0,0.0,0.0,0.0,0.0,0.0,0.0,0.0,0.0,0.0,0.0,0.0,0.0,0.0,0.0,0.0,0.0,0.0,0.0,0.0,0.0,0.0,0.0,0.0,0.0,0.0,0.0,0.0,0.0,0.0,0.0,0.0,0.0,0.0,0.0,0.0,0.0,0.0,0.0,0.0,0.0,0.0,0.0,0.0,0.0,0.0,0.0,0.0,0.0,0.0,0.0,0.0,0.0,0.0,0.0,0.0,0.0,0.0,0.0,0.0,0.0,0.0,0.0,0.0,0.0,0.0,0.0,0.0,0.0,0.0,0.0,0.0,0.0,0.0,0.0,0.0,0.0,0.0,0.0,0.0,0.0,0.0,0.0,0.0,0.0,0.0,0.0,0.0,0.0,0.0,0.0,0.0,0.0,0.0,0.0,0.0,0.0,0.0,0.0,0.0,0.0,0.0,0.0,0.0,0.0,0.0,0.0,0.0,0.0,0.0,0.0,0.0,0.0,0.0,0.0,0.0,0.0,0.0,0.0,0.0,0.0,0.0,0.0,0.0,0.0,0.0,0.0,0.0,0.0,0.0,0.0,0.0,0.0,0.0,0.0,0.0,0.0,0.0,0.0,0.0,0.0,0.0,0.0,0.0,0.0,0.0,0.0,0.0,0.0,0.0,0.0,0.0,0.0,0.0,0.0,0.0,0.0,0.0,0.0,0.0,0.0,0.0,0.0,0.0,0.0,0.0,0.0,0.0,0.0,0.0,0.0,0.0,0.0,0.0,0.0,0.0,0.0,0.0,0.0,0.0,0.0,0.0,0.0,0.0,0.0,0.0,0.0,0.0,0.0,0.0,0.0,0.0,0.0,0.0,0.0,0.0,0.0,0.0,0.0,0.0,0.0,0.0,0.0,0.0,0.0,0.0,0.0,0.0,0.0,0.0,0.0,0.0,0.0,0.0,0.0,0.0,0.0,0.0,0.0,0.0,0.0,0.0,0.0,0.0,0.0,0.0,0.0,0.0,0.0,0.0,0.0,0.0,0.0,0.0,0.0,0.0,0.0,0.0,0.0,0.0,0.0,0.0,0.0,0.0,0.0,0.0,0.0,0.0,0.0,0.0,0.0,0.0,0.0,0.0,0.0,0.0,0.0,0.0,0.0,0.0,0.0,0.0,0.0,0.0,0.0,0.0,0.0,0.0,0.0,0.0,0.0,0.0,0.0,0.0,0.0,0.0,0.0,0.0,0.0,0.0,0.0,0.0,0.0,0.0,0.0,0.0,0.0,0.0,0.0,0.0,0.0,0.0,0.0,0.0,0.0,0.0,0.0,0.0,0.0,0.0,0.0,0.0,0.0,0.0,0.0,0.0,0.0,0.0,0.0,0.0,0.0,0.0,0.0,0.0,0.0,0.0,0.0,0.0,0.0,0.0,0.0,0.0,0.0,0.0,0.0,0.0,0.0,0.0,0.0,0.0,0.0,0.0,0.0,0.0,0.0,0.0,0.0,0.0,0.0,0.0,0.0,0.0,0.0,0.0,0.0,0.0,0.0,0.0,0.0,0.0,0.0,0.0,0.0,0.0,0.0,0.0,0.0,0.0,0.0,0.0,0.0,0.0,0.0,0.0,0.0,0.0,0.0,0.0,0.0,0.0,0.0,0.0,0.0,0.0,0.0,0.0,0.0,0.0,0.0,0.0,0.0,0.0,0.0,0.0,0.0,0.0,0.0,0.0,0.0,0.0,0.0,0.0,0.0,0.0,0.0,0.0,0.0,0.0,0.0,0.0,0.0,0.0,0.0,0.0,0.0,0.0,0.0,0.0,0.0,0.0,0.0,0.0,0.0,0.0,0.0,0.0,0.0,0.0,0.0,0.0,0.0,0.0,0.0,0.0,0.0,0.0,0.0,0.0,0.0,0.0,0.0,0.0,0.0,0.0,0.0,0.0,0.0,0.0,0.0,0.0,0.0,0.0,0.0,0.0,0.0,0.0,0.0,0.0,0.0,0.0,0.0,0.0,0.0,0.0,0.0,0.0,0.0,0.0,0.0,0.0,0.0,0.0,0.0,0.0,0.0,0.0,0.0,0.0,0.0,0.0,0.0,0.0,0.0,0.0,0.0,0.0,0.0,0.0,0.0,0.0,0.0,0.0,0.0,0.0,0.0,0.0,0.0,0.0,0.0,0.0,0.0,0.0,0.0,0.0,0.0,0.0,0.0,0.0,0.0,0.0,0.0,0.0,0.0,0.0,0.0,0.0,0.0,0.0,0.0,0.0,0.0,0.0,0.0,0.0,0.0,0.0,0.0,0.0,0.0,0.0,0.0,0.0,0.0,0.0,0.0,0.0,0.0,0.0,0.0,0.0,0.0,0.0,0.0,0.0,0.0,0.0,0.0,0.0,0.0,0.0,0.0,0.0,0.0,0.0,0.0,0.0,0.0,0.0,0.0,0.0,0.0,0.0,0.0,0.0,0.0,0.0,0.0,0.0,0.0,0.0,0.0,0.0,0.0,0.0,0.0,0.0,0.0,0.0,0.0,0.0,0.0,0.0,0.0,0.0,0.0,0.0,0.0,0.0,0.0,0.0,0.0,0.0,0.0,0.0,0.0,0.0,0.0,0.0,0.0,0.0,0.0,0.0,0.0,0.0,0.0,0.0,0.0,0.0,0.0,0.0,0.0,0.0,0.0,0.0,0.0,0.0,0.0,0.0,0.0,0.0,0.0,0.0,0.0,0.0,0.0,0.0,0.0,0.0,0.0,0.0,0.0,0.0,0.0,0.0,0.0,0.0,0.0,0.0,0.0,0.0,0.0,0.0,0.0,0.0,0.0,0.0,0.0,0.0,0.0,0.0,0.0,0.0,0.0,0.0,0.0,0.0,0.0,0.0,0.0,0.0,0.0,0.0,0.0,0.0,0.0,0.0,0.0,0.0,0.0,0.0,0.0,0.0,0.0,0.0,0.0,0.0,0.0,0.0,0.0,0.0,0.0,0.0,0.0,0.0,0.0,0.0,0.0,0.0,0.0,0.0,0.0,0.0,0.0,0.0,0.0,0.0,0.0,0.0,0.0,0.0,0.0,0.0,0.0,0.0,0.0,0.0,0.0,0.0,0.0,0.0,0.0,0.0,0.0,0.0,0.0,0.0,0.0,0.0,0.0,0.0,0.0,0.0,0.0,0.0,0.0,0.0,0.0,0.0,0.0,0.0,0.0,0.0,0.0,0.0,0.0,0.0,0.0,0.0,0.0,0.0,0.0,0.0,0.0,0.0,0.0,0.0,0.0,0.0,0.0,0.0,0.0,0.0,0.0,0.0,0.0,0.0,0.0,0.0,0.0,0.0,0.0,0.0,0.0,0.0,0.0,0.0,0.0,0.0,0.0,0.0,0.0,0.0,0.0,0.0,0.0,0.0,0.0,0.0,0.0,0.0,0.0,0.0,0.0,0.0,0.0,0.0,0.0,0.0,0.0,0.0,0.0,0.0,0.0,0.0,0.0,0.0,0.0,0.0,0.0,0.0,0.0,0.0,0.0,0.0,0.0,0.0,0.0,0.0,0.0,0.0,0.0,0.0,0.0,0.0,0.0,0.0,0.0,0.0,0.0,0.0,0.0,0.0,0.0,0.0,0.0,0.0,0.0,0.0,0.0,0.0,0.0,0.0,0.0,0.0,0.0,0.0,0.0,0.0,0.0,0.0,0.0,0.0,0.0,0.0,0.0,0.0,0.0,0.0,0.0,0.0,0.0,0.0,0.0,0.0,0.0,0.0,0.0,0.0,0.0,0.0,0.0,0.0,0.0,0.0,0.0,0.0,0.0,0.0,0.0,0.0,0.0,0.0,0.0,0.0,0.0,0.0,0.0,0.0,0.0,0.0,0.0,0.0,0.0,0.0,0.0,0.0,0.0,0.0,0.0,0.0,-3.2777,0.0,0.0,0.0,0.0,0.0,0.0,0.0,0.0,0.0,0.0,0.0,0.0,0.0,0.0,0.0,0.0,0.0,0.0,0.0,0.0,0.0,0.0,0.0,0.0,0.0,0.0,0.0,0.0,0.0,0.0,0.0,0.0,0.0,0.0,0.0,0.0,0.0,0.0,0.0,0.0,0.0,0.0,0.0,0.0,0.0,0.0,0.0,0.0,0.0,0.0,0.0,0.0,0.0,0.0,0.0,0.0,0.0,0.0,0.0,0.0,0.0,0.0,0.0,0.0,0.0,0.0,0.0,0.0,0.0,0.0,0.0,0.0,0.0,0.0,0.0,0.0,0.0,0.0,0.0,0.0,0.0,0.0,0.0,0.0,0.0,0.0,0.0,0.0,0.0,0.0,0.0,0.0,0.0,0.0,0.0,0.0,0.0,0.0,0.0,0.0,0.0,0.0,0.0,0.0,0.0,0.0,0.0,0.0,0.0,0.0,0.0,0.0,0.0,0.0,0.0,0.0,-3.3637,0.0,0.0,0.0,0.0,0.0,0.0,0.0,0.0,0.0,0.0,0.0,0.0,0.0,0.0,0.0,0.0,0.0,0.0,0.0,0.0,0.0,0.0,0.0,0.0,0.0,0.0,0.0,0.0,0.0,0.0,0.0,0.0,0.0,0.0,0.0,0.0,0.0,0.0,0.0,0.0,0.0,0.0,0.0,0.0,0.0,0.0,0.0,0.0,0.0,0.0,0.0,0.0,0.0,0.0,0.0,0.0,0.0,0.0,0.0,0.0,0.0,0.0,0.0,0.0,0.0,0.0,0.0,0.0,0.0,0.0,0.0,0.0,0.0,0.0,0.0,0.0,0.0,0.0,0.0,0.0,0.0,0.0,0.0,0.0,0.0,0.0,0.0,0.0,0.0,0.0,0.0,0.0,0.0,0.0,0.0,0.0,0.0,0.0,0.0,0.0,0.0,0.0,0.0,0.0,0.0,0.0,0.0,0.0,-3.6899,-3.7563,-3.7692,-3.8262,-3.8508,-3.8352,-3.5859,-3.476,-3.476,-3.476,0.0,0.0,0.0,0.0,0.0,0.0,0.0,0.0,0.0,0.0,0.0,0.0,0.0,0.0,0.0,0.0,0.0,0.0,0.0,0.0,0.0,0.0,0.0,0.0,0.0,0.0,0.0,0.0,0.0,0.0,0.0,0.0,0.0,0.0,0.0,0.0,0.0,0.0,0.0,-2.5535,-2.591,-2.6062,0.0,0.0,0.0,0.0,0.0,0.0,0.0,0.0,0.0,0.0,0.0,0.0,0.0,0.0,0.0,0.0,0.0,0.0,0.0,0.0,0.0,0.0,0.0,0.0,0.0,0.0,0.0,0.0,0.0,0.0,0.0,0.0,0.0,0.0,0.0,0.0,0.0,0.0,0.0,0.0,0.0,0.0,0.0,0.0,-2.9024,-2.9139,0.0,0.0,0.0,0.0,0.0,0.0,0.0,0.0,0.0,0.0,0.0,0.0,0.0,-3.5162,-3.6501,-3.6801,-3.7264,-3.7862,-3.8194,-3.8352,-3.8385,-3.8477,-3.8508,-3.8492,-3.8073,0.0,-3.792,-3.792,0.0,0.0,0.0,0.0,0.0,0.0,0.0,0.0,0.0,0.0,0.0,0.0,0.0,0.0,0.0,0.0,0.0,0.0,0.0,0.0,0.0,0.0,0.0,0.0,0.0,0.0,0.0,0.0,0.0,0.0,0.0,0.0,0.0,0.0,0.0,0.0,0.0,0.0,0.0,0.0,0.0,-2.605,-2.6245,-2.6383,-2.6499,-2.6658,0.0,0.0,0.0,0.0,0.0,0.0,0.0,0.0,0.0,0.0,0.0,0.0,0.0,0.0,0.0,0.0,0.0,0.0,0.0,0.0,0.0,0.0,0.0,0.0,0.0,0.0,0.0,0.0,0.0,0.0,0.0,0.0,0.0,0.0,0.0,0.0,0.0,0.0,0.0,-2.899,-2.9652,-3.0101,-3.0551,-3.0896,0.0,0.0,0.0,0.0,0.0,0.0,0.0,0.0,0.0,-3.619,-3.6571,-3.729,-3.8384,-3.8882,-3.9453,-4.0159,-4.0597,-4.0816,-4.0816,-4.0816,-4.0816,-4.0816,-4.0816,-4.0816,-4.0693,-3.9154,-3.849,-3.8424,0.0,0.0,0.0,0.0,-3.8343,-3.8424,0.0,0.0,0.0,0.0,0.0,0.0,0.0,0.0,0.0,0.0,0.0,0.0,0.0,0.0,0.0,0.0,0.0,0.0,0.0,0.0,0.0,0.0,0.0,0.0,0.0,0.0,0.0,0.0,0.0,0.0,0.0,0.0,0.0,0.0,0.0,-2.7027,-2.6726,-2.6977,-2.7079,0.0,0.0,0.0,0.0,0.0,0.0,0.0,0.0,0.0,0.0,0.0,0.0,0.0,0.0,0.0,0.0,0.0,0.0,0.0,0.0,0.0,0.0,0.0,0.0,0.0,0.0,0.0,0.0,0.0,0.0,0.0,0.0,0.0,0.0,0.0,0.0,0.0,0.0,-2.9575,-3.0335,-3.1122,-3.1826,-3.2382,0.0,0.0,0.0,0.0,0.0,0.0,-3.5747,-3.6936,-3.7798,-3.8129,-3.8803,-3.9496,-4.0309,-4.0782,-4.1324,-4.1863,-4.2371,-4.2602,-4.2602,-4.2602,-4.2602,-4.2602,-4.2602,-4.2602,-4.2448,-4.0401,-3.9554,-3.9554,-3.9554,-3.9554,-3.9554,-3.9554,-3.9554,-3.9554,0.0,0.0,0.0,0.0,0.0,0.0,0.0,0.0,0.0,0.0,0.0,0.0,0.0,0.0,0.0,0.0,0.0,0.0,0.0,0.0,0.0,0.0,0.0,0.0,0.0,0.0,0.0,0.0,0.0,0.0,0.0,0.0,0.0,0.0,0.0,0.0,-2.6726,-2.7134,-2.7268,-2.7302,0.0,0.0,0.0,0.0,0.0,0.0,0.0,0.0,0.0,0.0,0.0,0.0,0.0,0.0,0.0,0.0,0.0,0.0,0.0,0.0,0.0,0.0,0.0,0.0,0.0,0.0,0.0,0.0,0.0,0.0,0.0,0.0,0.0,0.0,0.0,0.0,0.0,0.0,0.0,-3.2307,-3.3397,0.0,0.0,0.0,0.0,-3.6532,-3.6982,-3.7499,-3.829,-3.8998,-3.9674,-4.032,-4.1028,-4.1771,-4.2448,-4.2494,-4.2525,-4.2556,-4.2586,-4.2602,-4.2602,-4.2602,-4.2602,-4.2602,-4.2602,-4.2602,-4.2602,-4.2463,-4.2402,-4.2402,-4.2402,-4.2402,-4.2402,-4.2402,-4.2402,-4.2402,0.0,0.0,0.0,0.0,0.0,0.0,0.0,0.0,0.0,0.0,0.0,0.0,0.0,0.0,0.0,0.0,0.0,0.0,0.0,0.0,0.0,0.0,0.0,0.0,0.0,0.0,0.0,0.0,0.0,0.0,0.0,0.0,0.0,0.0,0.0,0.0,0.0,0.0,-2.8591,-2.8591,-2.866,-2.866,0.0,0.0,0.0,0.0,0.0,0.0,0.0,0.0,0.0,0.0,0.0,0.0,0.0,0.0,0.0,0.0,0.0,0.0,0.0,0.0,0.0,0.0,0.0,0.0,0.0,0.0,0.0,0.0,0.0,0.0,0.0,0.0,0.0,0.0,0.0,0.0,0.0,-3.4106,-3.518,0.0,-3.6342,-3.7322,-3.8074,-3.84,-3.9443,-4.0178,-4.0493,-4.114,-4.1617,-4.1848,-4.2125,-4.2571,-4.3217,-4.3648,-4.4095,-4.4526,-4.4972,-4.5172,-4.5172,-4.5172,-4.5172,-4.5172,-4.5172,-4.5172,-4.5172,-4.5172,-4.4172,-4.2602,-4.2602,-4.2602,-4.2602,-4.2602,-4.2602,-4.2602,0.0,0.0,0.0,0.0,0.0,0.0,0.0,0.0,0.0,0.0,0.0,0.0,0.0,0.0,0.0,0.0,0.0,0.0,0.0,0.0,0.0,0.0,0.0,0.0,0.0,0.0,0.0,0.0,0.0,0.0,0.0,0.0,0.0,0.0,0.0,0.0,0.0,0.0,0.0,-2.931,-2.931,-2.931,-2.931,0.0,0.0,0.0,0.0,0.0,0.0,0.0,0.0,0.0,0.0,0.0,0.0,0.0,0.0,0.0,0.0,0.0,0.0,0.0,0.0,0.0,0.0,0.0,0.0,0.0,0.0,0.0,0.0,0.0,0.0,0.0,0.0,0.0,0.0,0.0,-3.482,-3.606,-3.7083,-3.7997,-3.8641,-3.9671,-4.0312,-4.0312,-4.1311,-4.194,-4.194,-4.2786,-4.3279,-4.3279,-4.371,-4.4156,-4.4625,-4.5033,-4.548,-4.5926,-4.6388,-4.6603,-4.6603,-4.6603,-4.6603,-4.6603,-4.6603,-4.6603,-4.6603,-4.6603,-4.5557,-4.3941,-4.371,-4.3618,-4.3587,-4.3356,-4.3279,-4.3279,0.0,0.0,0.0,0.0,0.0,0.0,0.0,0.0,0.0,0.0,0.0,0.0,0.0,0.0,0.0,0.0,0.0,0.0,0.0,0.0,0.0,0.0,0.0,0.0,0.0,0.0,0.0,0.0,0.0,0.0,0.0,0.0,0.0,0.0,0.0,0.0,0.0,0.0,0.0,0.0,-2.9401,-2.9388,-2.9362,0.0,0.0,0.0,0.0,0.0,0.0,0.0,0.0,0.0,0.0,0.0,0.0,0.0,0.0,0.0,0.0,0.0,0.0,0.0,0.0,0.0,0.0,0.0,0.0,0.0,0.0,0.0,0.0,0.0,0.0,0.0,0.0,0.0,-3.4302,-3.5331,-3.664,-3.8106,-3.9172,-4.0034,-4.0682,-4.173,-4.2377,-4.2377,-4.2585,-4.2725,-4.2725,-4.3941,-4.4671,-4.4671,-4.5911,-4.6603,-4.6603,-4.6619,-4.6619,-4.6634,-4.665,-4.6665,-4.6665,-4.6665,-4.6665,-4.6665,-4.6665,-4.6665,-4.6665,-4.6665,-4.6665,-4.6588,-4.5895,-4.5618,-4.5541,-4.4918,-4.4671,-4.4671,0.0,0.0,0.0,0.0,0.0,0.0,0.0,0.0,0.0,0.0,0.0,0.0,0.0,0.0,0.0,0.0,0.0,0.0,0.0,0.0,0.0,0.0,0.0,0.0,0.0,0.0,0.0,0.0,0.0,0.0,0.0,0.0,0.0,0.0,0.0,0.0,0.0,0.0,0.0,0.0,0.0,-3.0882,-3.0516,0.0,0.0,0.0,0.0,0.0,0.0,0.0,0.0,0.0,0.0,0.0,0.0,0.0,0.0,0.0,0.0,0.0,0.0,0.0,0.0,0.0,0.0,0.0,0.0,0.0,0.0,0.0,0.0,0.0,0.0,0.0,0.0,-3.7054,-3.614,-3.7293,-3.8686,-3.9884,-4.0794,-4.1513,-4.1827,-4.3155,-4.3958,-4.3958,-4.4903,-4.5495,-4.5495,-4.5849,-4.6034,-4.6034,-4.6403,-4.6603,-4.6603,-4.708,-4.7327,-4.7327,-4.7819,-4.8065,-4.8065,-4.8065,-4.8065,-4.8065,-4.8065,-4.8065,-4.8065,-4.8065,-4.8065,-4.7942,-4.6773,-4.6326,-4.6296,-4.6111,-4.6034,-4.6034,0.0,0.0,0.0,0.0,0.0,0.0,0.0,0.0,0.0,0.0,0.0,0.0,0.0,0.0,0.0,0.0,0.0,0.0,0.0,0.0,0.0,0.0,0.0,0.0,0.0,0.0,0.0,0.0,0.0,0.0,0.0,0.0,0.0,0.0,0.0,0.0,0.0,0.0,0.0,0.0,0.0,0.0,-3.1352,-3.1352,-3.0986,-3.049,-3.049,-3.0281,-2.9954,-2.9719,0.0,0.0,0.0,0.0,0.0,0.0,0.0,0.0,0.0,0.0,0.0,0.0,0.0,0.0,0.0,0.0,0.0,0.0,0.0,0.0,0.0,0.0,0.0,0.0,-3.8091,-3.9276,-3.9432,-3.9825,-4.0539,-4.1821,-4.2478,-4.3122,-4.3899,-4.4841,-4.5418,-4.5418,-4.6157,-4.6603,-4.6603,-4.7127,-4.745,-4.745,-4.8004,-4.8312,-4.8312,-4.8696,-4.8897,-4.8897,-4.9297,-4.9481,-4.9481,-4.9481,-4.9481,-4.9481,-4.9481,-4.9481,-4.9481,-4.9481,-4.9481,0.0,0.0,0.0,0.0,0.0,-4.6603,-4.6603,0.0,0.0,0.0,0.0,0.0,0.0,0.0,0.0,0.0,0.0,0.0,0.0,0.0,0.0,0.0,0.0,0.0,0.0,0.0,0.0,0.0,0.0,0.0,0.0,0.0,0.0,0.0,0.0,0.0,0.0,0.0,0.0,0.0,0.0,0.0,0.0,0.0,0.0,0.0,0.0,0.0,0.0,-3.1889,-3.1836,-3.1484,-3.1065,-3.1013,-3.0986,-3.0908,-3.0361,0.0,0.0,0.0,0.0,0.0,0.0,0.0,0.0,0.0,0.0,0.0,0.0,0.0,0.0,0.0,0.0,0.0,0.0,0.0,0.0,0.0,0.0,0.0,0.0,-3.9749,-4.1135,-4.305,-4.2462,-4.2383,-4.3805,-4.4098,-4.4789,-4.6217,-4.6545,-4.6742,-4.6819,-4.6896,-4.6973,-4.705,0.0,0.0,0.0,0.0,-5.0697,-5.0697,-5.0697,-5.0697,-5.0697,-5.0697,-5.0697,-5.0697,-5.0697,-5.0697,-5.0697,-5.0697,-5.0697,-5.0697,-5.0697,-5.0697,-5.0513,-4.8666,-4.7958,-4.7881,-4.7281,-4.7004,-4.6942,0.0,0.0,0.0,0.0,0.0,0.0,0.0,0.0,0.0,0.0,0.0,0.0,0.0,0.0,0.0,0.0,0.0,0.0,0.0,0.0,0.0,0.0,0.0,0.0,0.0,0.0,0.0,0.0,0.0,0.0,0.0,0.0,0.0,0.0,0.0,0.0,0.0,0.0,0.0,0.0,0.0,0.0,-3.2476,-3.198,-3.1732,-3.1575,-3.1156,-3.0986,-3.096,-3.0869,-3.083,-3.0803,-3.0686,0.0,0.0,0.0,0.0,0.0,0.0,0.0,0.0,0.0,0.0,0.0,0.0,0.0,0.0,0.0,0.0,0.0,0.0,0.0,0.0,-4.0453,-4.1766,-4.2817,-4.3314,-4.4047,-4.4794,-4.547,-4.5597,-4.5849,-4.6493,-4.7056,-4.7635,-4.8189,-4.8758,-4.9328,-4.9882,-5.0143,-5.0297,-5.0297,-5.0559,-5.0697,-5.0697,-5.0697,-5.0697,-5.0697,0.0,0.0,-5.0697,-5.0697,-5.0697,-5.0697,-5.0697,-5.0697,-5.0697,-5.0697,-5.0697,-5.0651,-5.0251,-5.0097,-5.0082,-4.9943,-4.9558,-4.9097,0.0,0.0,0.0,0.0,0.0,0.0,0.0,0.0,0.0,0.0,0.0,0.0,0.0,0.0,0.0,0.0,0.0,0.0,0.0,0.0,0.0,0.0,0.0,0.0,0.0,0.0,0.0,0.0,0.0,0.0,0.0,0.0,0.0,0.0,0.0,0.0,0.0,0.0,0.0,0.0,0.0,0.0,-3.3483,-3.2934,-3.2319,-3.1758,-3.1522,-3.1222,-3.0986,-3.0986,-3.0986,-3.0986,-3.0986,-3.079,-3.0555,0.0,0.0,0.0,0.0,0.0,0.0,0.0,0.0,0.0,0.0,0.0,0.0,0.0,0.0,-3.7348,0.0,0.0,-4.1557,-4.2118,-4.3384,-4.4451,-4.4811,-4.5693,-4.6341,-4.6466,-4.6807,-4.7307,-4.8071,-4.8758,-4.9297,-4.9635,-4.9989,-5.0343,-5.0682,-5.1021,-5.1205,-5.1205,-5.1528,-5.1698,-5.1698,-5.1698,-5.1698,-5.1698,-5.1698,-5.1698,-5.1698,-5.1698,-5.1698,-5.1698,-5.1698,-5.1698,-5.1698,-5.1698,-5.1698,-5.1698,-5.1698,-5.1282,-5.0697,-5.0697,-5.0482,-5.0189,0.0,0.0,0.0,0.0,0.0,0.0,0.0,0.0,0.0,0.0,0.0,0.0,0.0,0.0,0.0,0.0,0.0,0.0,0.0,0.0,0.0,0.0,0.0,0.0,0.0,0.0,0.0,0.0,0.0,0.0,0.0,0.0,0.0,0.0,0.0,0.0,0.0,0.0,0.0,0.0,0.0,0.0,-3.4332,-3.3796,-3.2999,-3.2111,-3.1889,-3.1497,-3.113,-3.1026,-3.0986,-3.0986,-3.0986,-3.0986,-3.0986,-3.0986,-3.1065,0.0,0.0,0.0,0.0,0.0,0.0,0.0,0.0,0.0,-3.4882,-3.7015,-3.7834,-3.8822,-4.0803,-4.2312,-4.3358,-4.3648,-4.4706,-4.5738,-4.6411,-4.7085,-4.7512,-4.7516,-4.804,-4.8801,-4.9793,-5.0374,-5.0743,-5.0882,-5.0897,-5.0944,-5.1082,-5.1605,-5.1898,-5.1898,-5.2421,-5.2713,-5.2713,-5.2713,-5.2713,-5.2713,-5.2713,-5.2713,-5.2713,-5.2713,-5.2713,-5.2713,-5.2713,-5.2713,-5.2713,-5.2713,-5.2713,-5.2713,-5.2713,-5.2052,-5.1082,-5.1082,-5.1005,-5.0897,0.0,0.0,0.0,0.0,0.0,0.0,0.0,0.0,0.0,0.0,0.0,0.0,0.0,0.0,0.0,0.0,0.0,0.0,0.0,0.0,0.0,0.0,0.0,0.0,0.0,0.0,0.0,0.0,0.0,0.0,0.0,0.0,0.0,0.0,0.0,0.0,0.0,0.0,0.0,0.0,0.0,0.0,-3.4332,-3.3796,-3.3509,-3.326,-3.2176,-3.1758,-3.1628,-3.1156,-3.0986,-3.0986,-3.0986,-3.0986,-3.0986,-3.0986,0.0,-3.1706,-3.1706,-3.211,-3.2515,-3.2581,-3.3404,-3.4326,0.0,0.0,-3.7161,-3.8376,-3.9385,-4.0596,-4.2173,-4.3275,-4.4177,-4.4949,-4.5708,-4.6441,-4.71,-4.7758,-4.8445,-4.9206,-4.9593,-4.9976,-5.0531,-5.0651,-5.0944,-5.1544,-5.159,-5.1852,-5.2452,-5.256,-5.2606,-5.2606,-5.2667,-5.2713,-5.2713,-5.2713,-5.2713,-5.2713,-5.2713,-5.2713,-5.2713,-5.2713,-5.2713,-5.2713,-5.2713,-5.2713,-5.2713,-5.2713,-5.2713,-5.2713,-5.2713,-5.2621,-5.2483,-5.2483,-5.2113,-5.159,0.0,0.0,0.0,0.0,0.0,0.0,0.0,0.0,0.0,0.0,0.0,0.0,0.0,0.0,0.0,0.0,0.0,0.0,0.0,0.0,0.0,0.0,0.0,0.0,0.0,0.0,0.0,0.0,0.0,0.0,0.0,0.0,0.0,0.0,0.0,0.0,0.0,0.0,0.0,0.0,0.0,0.0,-3.3901,-3.3679,-3.3378,-3.296,-3.2098,-3.1588,0.0,0.0,-3.0986,-3.0986,-3.0986,-3.1209,-3.1483,-3.1483,-3.1888,0.0,-3.2333,-3.2999,0.0,0.0,-3.4541,-3.5519,-3.5958,-3.6655,-3.7675,-3.9311,-4.0266,-4.1337,-4.3228,-4.4312,-4.5154,0.0,-4.677,-4.7563,-4.7833,-4.876,-4.9614,-5.011,-5.0623,-5.097,-5.1034,-5.1385,-5.1826,-5.2267,-5.2298,-5.2406,-5.2698,-5.2713,-5.2713,-5.2713,-5.2713,-5.2713,-5.2713,-5.2713,-5.2713,-5.2713,-5.2713,-5.2713,-5.2713,-5.2563,-5.2427,-5.2307,-5.2307,-5.2337,-5.2457,-5.2457,-5.2563,-5.2713,-5.2713,-5.2713,-5.2713,-5.2713,-5.2529,-5.2298,0.0,0.0,0.0,0.0,0.0,0.0,0.0,0.0,0.0,0.0,0.0,0.0,0.0,0.0,0.0,0.0,0.0,0.0,0.0,0.0,0.0,0.0,0.0,0.0,0.0,0.0,0.0,0.0,0.0,0.0,0.0,0.0,0.0,0.0,0.0,0.0,0.0,0.0,0.0,0.0,0.0,0.0,-3.3245,-3.3075,-3.2789,-3.2424,-3.2137,-3.181,0.0,0.0,-3.1457,-3.1457,-3.1457,-3.1744,-3.2032,-3.2032,-3.2489,-3.3012,-3.3326,0.0,0.0,-3.4829,-3.5613,-3.6485,-3.7052,-3.7443,-3.8283,-4.0214,-4.0861,-4.175,-4.3878,-4.4879,0.0,-4.6332,-4.749,-4.8341,-4.8536,-4.9523,-5.0347,-5.0711,-5.1193,-5.1437,-5.1394,-5.1895,-5.2276,-5.2488,-5.2488,-5.2488,-5.2488,-5.2488,-5.2488,-5.2488,-5.2563,-5.2608,-5.2608,-5.2669,-5.2669,-5.2608,-5.2608,-5.2563,-5.2488,-5.2337,-5.2155,-5.2002,-5.2002,-5.2063,-5.2231,-5.2231,-5.2322,-5.2488,-5.2488,-5.2488,-5.2533,-5.2563,-5.2653,-5.2713,0.0,0.0,0.0,0.0,0.0,0.0,0.0,0.0,0.0,0.0,0.0,0.0,0.0,0.0,0.0,0.0,0.0,0.0,0.0,0.0,0.0,0.0,0.0,0.0,0.0,0.0,0.0,0.0,0.0,0.0,0.0,0.0,0.0,0.0,0.0,0.0,0.0,0.0,0.0,0.0,0.0,0.0,-3.2354,-3.1772,-3.1669,-3.1902,-3.2476,0.0,0.0,0.0,-3.2633,-3.2633,-3.2633,-3.2659,0.0,-3.2659,-3.3091,0.0,0.0,0.0,-3.5391,-3.5926,-3.6515,-3.7161,-3.7983,-3.8609,-3.9468,-4.1031,-4.1384,-4.2007,-4.4099,-4.4732,-4.5361,-4.6652,-4.7701,-4.8506,-4.9194,-4.9823,-5.042,-5.1109,-5.1199,-5.1293,0.0,-5.1818,-5.1987,-5.2033,-5.2033,-5.2033,-5.2033,-5.2033,-5.2033,-5.2033,-5.2231,-5.2306,-5.2306,-5.2563,-5.2563,-5.2306,-5.2306,-5.2231,-5.2033,-5.1987,-5.2002,-5.2002,-5.2002,-5.1987,-5.1987,-5.1987,-5.1987,-5.2033,-5.2033,-5.2033,-5.2033,-5.2231,-5.2457,-5.2713,0.0,0.0,0.0,0.0,0.0,0.0,0.0,0.0,0.0,0.0,0.0,0.0,0.0,0.0,0.0,0.0,0.0,0.0,0.0,0.0,0.0,0.0,0.0,0.0,0.0,0.0,0.0,0.0,0.0,0.0,0.0,0.0,0.0,0.0,0.0,0.0,0.0,0.0,0.0,0.0,0.0,0.0,-3.1589,-3.1396,-3.1513,-3.1876,0.0,0.0,0.0,0.0,0.0,0.0,-3.2685,0.0,0.0,-3.4201,-3.4567,-3.4881,0.0,0.0,-3.6475,-3.6658,-3.7429,-3.8234,-3.8708,-3.9255,-3.9965,-4.1025,-4.1538,-4.2279,-4.3887,-4.4644,-4.5411,-4.6506,-4.7793,-4.8865,-4.9224,-5.0197,-5.0928,-5.1184,-5.1214,0.0,0.0,0.0,0.0,-5.2002,-5.2002,-5.2002,-5.2002,-5.2002,-5.2002,-5.2002,-5.2078,-5.2109,-5.2109,-5.2216,-5.2216,-5.2109,-5.2109,-5.1972,-5.1741,-5.1741,-5.1649,-5.1463,-5.1463,-5.1556,-5.1741,-5.1741,-5.1834,-5.2002,-5.2002,-5.2002,-5.2002,-5.2078,-5.217,-5.2261,0.0,0.0,0.0,0.0,0.0,0.0,0.0,0.0,0.0,0.0,0.0,0.0,0.0,0.0,0.0,0.0,0.0,0.0,0.0,0.0,0.0,0.0,0.0,0.0,0.0,0.0,0.0,0.0,0.0,0.0,0.0,0.0,0.0,0.0,0.0,0.0,0.0,0.0,0.0,0.0,0.0,0.0,-3.0582,-3.0647,-3.0997,0.0,0.0,0.0,0.0,0.0,0.0,0.0,0.0,-3.3561,-3.4071,-3.5012,-3.5299,-3.5456,0.0,-3.6711,-3.7103,-3.7521,-3.8161,-3.8875,-3.9436,-3.9694,-4.0017,-4.09,-4.1197,-4.17,-4.3172,-4.3938,-4.4807,-4.6002,-4.7479,-4.8609,-4.9089,-5.0136,-5.0913,-5.1184,-5.1214,0.0,0.0,0.0,0.0,-5.1695,-5.1695,-5.1695,-5.1695,-5.1695,-5.1695,-5.1695,-5.1803,-5.1849,-5.1849,-5.1941,-5.1941,-5.1849,-5.1741,-5.1602,-5.1448,-5.1448,-5.1354,-5.1214,-5.1214,-5.1308,-5.1448,-5.1448,-5.1556,-5.1695,-5.1695,-5.1695,-5.171,-5.1849,-5.1803,-5.1741,0.0,0.0,0.0,0.0,0.0,0.0,0.0,0.0,0.0,0.0,0.0,0.0,0.0,0.0,0.0,0.0,0.0,0.0,0.0,0.0,0.0,0.0,0.0,0.0,0.0,0.0,0.0,0.0,0.0,0.0,0.0,0.0,0.0,0.0,0.0,0.0,0.0,0.0,0.0,0.0,0.0,0.0,-2.9419,-2.9702,0.0,0.0,0.0,0.0,0.0,0.0,0.0,0.0,0.0,0.0,-3.4554,-3.5155,-3.5365,-3.5626,-3.6737,-3.7063,-3.7351,-3.8436,-3.8749,-3.9076,-4.0135,-4.0004,-3.9843,-4.0597,-4.0351,-4.0459,0.0,0.0,-4.3592,-4.5164,-4.6616,-4.7879,-4.8727,-4.9625,-5.0435,0.0,0.0,0.0,0.0,0.0,0.0,-5.1214,0.0,-5.1214,-5.1214,-5.1214,-5.1214,-5.1214,-5.1448,-5.1587,-5.1587,-5.1834,-5.1834,-5.1587,-5.1308,-5.1214,-5.1214,-5.1214,-5.1214,-5.1214,-5.1214,-5.1214,-5.1214,-5.1214,-5.1214,-5.1214,-5.1214,-5.1214,-5.1214,-5.1494,-5.1401,-5.1261,0.0,0.0,0.0,0.0,0.0,0.0,0.0,0.0,0.0,0.0,0.0,0.0,0.0,0.0,0.0,0.0,0.0,0.0,0.0,0.0,0.0,0.0,0.0,0.0,0.0,0.0,0.0,0.0,0.0,0.0,0.0,0.0,0.0,0.0,0.0,0.0,0.0,0.0,0.0,0.0,0.0,0.0,-2.9197,0.0,0.0,0.0,0.0,0.0,0.0,0.0,0.0,0.0,0.0,0.0,-3.5182,-3.573,0.0,-3.6737,-3.7469,-3.7965,-3.8344,-3.8645,-3.9351,-3.9952,-3.9847,-4.0017,-4.0135,-3.997,-3.9943,-4.0245,0.0,0.0,0.0,-4.4123,-4.572,0.0,-4.8439,-4.9395,0.0,0.0,0.0,-5.1214,-5.1214,-5.1214,0.0,0.0,-5.1214,-5.1214,-5.1214,-5.1214,-5.1214,-5.1214,-5.1261,-5.1308,-5.1308,-5.1354,-5.1354,-5.1308,-5.1214,-5.1214,-5.1214,-5.1214,-5.1214,-5.1214,-5.1214,-5.1214,-5.1214,-5.1214,-5.1214,-5.1214,-5.1214,-5.1214,-5.1214,-5.1261,-5.1261,-5.1214,0.0,0.0,0.0,0.0,0.0,0.0,0.0,0.0,0.0,0.0,0.0,0.0,0.0,0.0,0.0,0.0,0.0,0.0,0.0,0.0,0.0,0.0,0.0,0.0,0.0,0.0,0.0,0.0,0.0,0.0,0.0,0.0,0.0,0.0,0.0,0.0,0.0,0.0,0.0,0.0,0.0,0.0,0.0,0.0,0.0,0.0,0.0,0.0,0.0,0.0,0.0,-3.4397,-3.4397,-3.4816,-3.5404,-3.594,0.0,-3.7181,-3.8031,-3.8475,-3.8828,-3.9324,-3.9756,-4.0043,-3.9978,-3.9808,-3.9586,-3.9272,-3.9165,0.0,0.0,0.0,0.0,0.0,0.0,0.0,-4.7936,-4.8913,-4.9875,0.0,-5.1214,0.0,-5.1214,-5.1214,-5.1214,0.0,-5.1214,-5.1214,-5.1214,-5.1214,-5.1214,-5.1214,-5.1214,-5.1214,-5.1214,-5.1214,-5.1214,-5.1214,-5.1214,-5.1214,-5.1214,-5.1214,-5.1214,-5.1214,0.0,-5.1214,-5.1214,-5.1214,-5.1214,-5.1214,-5.1214,-5.1214,-5.1214,-5.1214,-5.1214,-5.1214,0.0,0.0,0.0,0.0,0.0,0.0,0.0,0.0,0.0,0.0,0.0,0.0,0.0,0.0,0.0,0.0,0.0,0.0,0.0,0.0,0.0,0.0,0.0,0.0,0.0,0.0,0.0,0.0,0.0,0.0,0.0,0.0,0.0,0.0,0.0,0.0,0.0,0.0,0.0,0.0,0.0,0.0,0.0,0.0,0.0,0.0,0.0,0.0,0.0,0.0,-3.4397,-3.4397,-3.4397,-3.4868,-3.5495,-3.5966,-3.6593,-3.7351,-3.8423,-3.8762,-3.9089,-4.0148,-4.0069,-3.9821,-4.0213,-3.9481,-3.8697,-3.8619,0.0,0.0,-3.8873,0.0,-4.0324,-4.198,0.0,-4.4901,-4.7369,-4.8343,-4.9398,-5.0956,-5.1167,-5.1214,-5.1214,-5.1214,-5.1214,-5.1214,-5.1214,-5.1214,-5.1214,-5.1214,-5.1214,-5.1214,-5.1214,-5.1214,-5.1214,-5.1214,-5.1214,-5.1214,-5.1214,-5.1214,-5.1214,-5.1214,-5.1214,-5.1214,-5.1214,-5.1214,-5.1214,-5.1214,-5.1214,-5.1214,-5.1214,-5.1214,-5.1214,-5.1214,-5.1214,-5.1229,0.0,0.0,0.0,0.0,0.0,0.0,0.0,0.0,0.0,0.0,-1.8008,-1.8008,0.0,0.0,0.0,0.0,0.0,0.0,0.0,0.0,0.0,0.0,0.0,0.0,0.0,0.0,0.0,0.0,0.0,0.0,0.0,0.0,0.0,0.0,0.0,0.0,0.0,0.0,0.0,0.0,0.0,0.0,0.0,0.0,0.0,0.0,0.0,0.0,0.0,0.0,-3.4397,-3.4397,-3.4397,-3.5116,-3.5979,-3.607,-3.6881,-3.7887,-3.854,-3.9076,-3.9612,-4.0252,-4.0344,-4.0187,-3.9834,-3.9207,0.0,0.0,0.0,-3.8005,-3.8299,0.0,0.0,-4.111,0.0,0.0,0.0,0.0,0.0,0.0,0.0,0.0,0.0,0.0,0.0,0.0,0.0,-5.1214,-5.1214,-5.1214,-5.1214,-5.1214,-5.1214,-5.1214,-5.1214,-5.1214,-5.1214,-5.1214,-5.1214,-5.1214,-5.1214,-5.1214,-5.1214,-5.1214,-5.1214,0.0,-5.1214,-5.1214,-5.1214,-5.1214,-5.1214,-5.1214,-5.1214,-5.1214,-5.1214,-5.1289,0.0,0.0,0.0,0.0,0.0,0.0,0.0,-1.8247,-1.8008,-1.8008,-1.8008,-1.8008,-1.8008,-1.8008,0.0,0.0,0.0,0.0,0.0,0.0,0.0,0.0,0.0,0.0,0.0,0.0,0.0,0.0,0.0,0.0,0.0,0.0,0.0,0.0,0.0,0.0,0.0,0.0,0.0,0.0,0.0,0.0,0.0,0.0,0.0,0.0,0.0,0.0,0.0,0.0,-3.4314,-3.4397,-3.4397,-3.5182,-3.6109,-3.6109,-3.6959,-3.8096,-3.8945,-3.939,-3.9743,-4.0278,-4.02,-3.9847,-3.9272,0.0,0.0,0.0,0.0,-3.7946,-3.8011,0.0,0.0,0.0,0.0,0.0,0.0,0.0,0.0,0.0,0.0,0.0,0.0,0.0,0.0,0.0,0.0,-5.1214,-5.1214,-5.1214,-5.1214,-5.1214,-5.1214,-5.1214,-5.1214,-5.1214,-5.1214,-5.1214,-5.1214,-5.1214,-5.1214,-5.1214,-5.1214,-5.1214,-5.1214,0.0,-5.1214,-5.1214,-5.1214,-5.1214,-5.1214,-5.1214,-5.1214,-5.1214,-5.1439,-5.1768,0.0,0.0,0.0,0.0,0.0,0.0,0.0,-1.8305,-1.8008,-1.8008,-1.8008,-1.8008,-1.8008,-1.8008,-1.8008,0.0,0.0,0.0,0.0,0.0,0.0,0.0,0.0,0.0,0.0,0.0,0.0,0.0,0.0,0.0,0.0,0.0,0.0,0.0,0.0,0.0,0.0,0.0,0.0,0.0,0.0,0.0,0.0,0.0,0.0,0.0,0.0,0.0,0.0,0.0,-3.4202,-3.4356,-3.4397,-3.5182,-3.6109,-3.6109,-3.6959,-3.8122,-3.9141,-3.9416,-3.9547,-4.0109,-3.9821,-3.9298,-3.8815,-3.8292,0.0,0.0,0.0,-3.79,-3.79,0.0,0.0,0.0,0.0,0.0,0.0,0.0,0.0,0.0,0.0,0.0,0.0,0.0,0.0,0.0,0.0,0.0,-5.1214,-5.1214,-5.1214,-5.1214,-5.1214,-5.1214,-5.1214,-5.1214,-5.1214,-5.1214,-5.1214,-5.1214,-5.1214,-5.1214,-5.1214,-5.1214,-5.1214,0.0,0.0,-5.1214,-5.1214,-5.1214,-5.1214,-5.1214,-5.1214,-5.1214,-5.1633,-5.2217,0.0,0.0,0.0,0.0,0.0,0.0,0.0,-1.8535,-1.8008,-1.8008,-1.8008,-1.8008,-1.8008,-1.8008,-1.8008,0.0,0.0,0.0,0.0,0.0,0.0,0.0,0.0,0.0,0.0,0.0,0.0,0.0,0.0,0.0,0.0,0.0,0.0,0.0,0.0,0.0,0.0,0.0,0.0,0.0,0.0,0.0,0.0,0.0,0.0,0.0,0.0,0.0,0.0,0.0,0.0,-3.416,-3.4356,-3.5182,-3.6109,-3.6109,0.0,0.0,-3.8632,-3.8789,-3.8932,-3.9534,-3.9233,-3.8776,-3.8723,0.0,0.0,0.0,-3.79,-3.79,-3.79,-3.79,0.0,0.0,0.0,0.0,0.0,0.0,0.0,0.0,0.0,0.0,0.0,0.0,0.0,0.0,0.0,0.0,-5.1214,-5.1214,-5.1214,-5.1214,-5.1214,-5.1214,-5.1214,-5.1214,-5.1214,-5.1214,-5.1214,-5.1214,-5.1214,-5.1214,-5.1214,-5.1214,-5.1214,0.0,0.0,-5.1214,-5.1214,-5.1214,-5.1214,-5.1214,-5.1214,-5.1214,-5.1633,-5.2291,0.0,0.0,0.0,0.0,0.0,0.0,-1.9287,-1.8564,-1.8008,-1.8008,-1.8008,-1.8008,-1.8008,-1.8008,-1.8008,0.0,0.0,0.0,0.0,0.0,0.0,0.0,0.0,0.0,0.0,0.0,0.0,0.0,0.0,0.0,0.0,0.0,0.0,0.0,0.0,0.0,0.0,0.0,0.0,0.0,0.0,0.0,0.0,0.0,0.0,0.0,0.0,0.0,0.0,0.0,0.0,0.0,-3.4356,-3.4959,0.0,0.0,-3.6698,-3.756,-3.8462,-3.871,-3.8762,-3.9011,-3.8893,-3.8619,-3.8292,0.0,0.0,-3.79,-3.79,-3.79,-3.79,-3.79,-3.8129,0.0,0.0,0.0,0.0,0.0,0.0,0.0,0.0,0.0,0.0,0.0,0.0,0.0,0.0,0.0,-5.1214,-5.1214,-5.1214,-5.1214,-5.1214,-5.1214,-5.1214,-5.1214,-5.1214,-5.1214,-5.1214,-5.1214,-5.1214,-5.1214,-5.1214,-5.1214,-5.1214,0.0,0.0,-5.1214,-5.1214,-5.1259,-5.1648,-5.1813,-5.1858,-5.2261,-5.283,-5.3443,0.0,0.0,0.0,0.0,0.0,-1.9248,-1.9111,-1.8477,-1.8008,-1.8008,-1.8008,-1.8008,-1.8008,-1.8008,-1.8008,-1.8008,0.0,0.0,0.0,0.0,0.0,0.0,0.0,0.0,0.0,0.0,-2.1807,-2.1807,-2.1807,-2.1807,0.0,0.0,0.0,0.0,0.0,0.0,0.0,0.0,0.0,0.0,0.0,0.0,0.0,0.0,0.0,0.0,0.0,0.0,0.0,0.0,0.0,0.0,0.0,0.0,0.0,0.0,-3.6397,-3.7181,-3.7978,-3.8331,-3.8462,-3.8462,-3.8462,-3.837,0.0,0.0,0.0,-3.79,-3.79,-3.79,-3.79,-3.79,-3.8031,0.0,0.0,0.0,0.0,0.0,0.0,0.0,0.0,0.0,0.0,0.0,0.0,0.0,0.0,0.0,0.0,-5.1214,-5.1214,-5.1214,-5.1214,-5.1214,-5.1214,-5.1214,-5.1214,-5.1214,-5.1214,-5.1214,-5.1214,-5.1214,-5.1214,-5.1214,-5.1214,0.0,0.0,-5.1214,-5.1334,-5.1558,-5.2022,-5.2321,-5.2546,-5.301,-5.3608,-5.4206,0.0,0.0,0.0,0.0,0.0,0.0,-1.8676,-1.8247,-1.8008,-1.8008,-1.8008,-1.8008,-1.8008,-1.8008,-1.8008,-1.8008,0.0,0.0,0.0,0.0,0.0,0.0,0.0,0.0,0.0,0.0,-2.1807,-2.1807,-2.1807,-2.1807,-2.1807,-2.1807,0.0,0.0,0.0,0.0,0.0,0.0,0.0,0.0,0.0,0.0,0.0,0.0,0.0,0.0,0.0,0.0,0.0,0.0,0.0,0.0,0.0,0.0,0.0,0.0,-3.6109,-3.6998,-3.7024,-3.7456,-3.7913,-3.7913,-3.7913,-3.7913,0.0,0.0,0.0,-3.79,-3.79,-3.79,-3.79,-3.79,-3.79,-3.7913,-3.9089,0.0,0.0,0.0,0.0,0.0,0.0,0.0,0.0,0.0,0.0,0.0,0.0,0.0,0.0,-5.1214,-5.1214,-5.1214,-5.1214,-5.1214,-5.1214,-5.1214,-5.1214,-5.1214,-5.1214,-5.1214,-5.1214,-5.1214,-5.1214,0.0,0.0,0.0,0.0,-5.1214,-5.1603,-5.2187,-5.2202,-5.2591,-5.3174,-5.3174,-5.3608,-5.4206,0.0,0.0,0.0,0.0,0.0,0.0,0.0,-1.8247,-1.8008,-1.8008,-1.8008,-1.8008,-1.8008,-1.8008,-1.8008,-1.8008,0.0,0.0,0.0,0.0,0.0,0.0,0.0,0.0,0.0,0.0,-2.1807,-2.1807,-2.1807,-2.1807,-2.1807,-2.1807,-2.188,-2.2056,0.0,0.0,0.0,0.0,0.0,0.0,0.0,0.0,0.0,0.0,0.0,0.0,0.0,0.0,0.0,0.0,0.0,0.0,0.0,0.0,0.0,0.0,0.0,0.0,-3.6789,-3.7142,-3.739,-3.7808,-3.79,-3.79,-3.79,0.0,0.0,-3.79,-3.79,-3.79,-3.79,-3.79,-3.8031,-3.8397,-3.9325,0.0,0.0,0.0,0.0,0.0,0.0,0.0,0.0,0.0,0.0,0.0,0.0,0.0,0.0,-5.1214,-5.1214,-5.1214,-5.1214,-5.1214,-5.1214,-5.1214,-5.1214,-5.1214,-5.1214,-5.1214,-5.1214,-5.1214,-5.1214,0.0,0.0,0.0,0.0,-5.1217,-5.1465,-5.1746,-5.2847,-5.3421,-5.3675,-5.4336,-5.4685,-5.488,0.0,0.0,0.0,0.0,0.0,0.0,0.0,-1.8149,-1.8008,-1.8008,-1.8008,-1.8008,-1.8008,-1.8008,-1.8008,-1.8008,0.0,0.0,0.0,0.0,0.0,0.0,0.0,0.0,-2.0886,-2.1504,-2.1807,-2.1807,-2.1807,-2.1807,-2.1807,-2.1807,-2.1901,-2.2097,-2.2853,0.0,0.0,0.0,0.0,0.0,0.0,0.0,-2.8259,0.0,0.0,0.0,0.0,0.0,0.0,0.0,0.0,0.0,0.0,0.0,0.0,0.0,-3.463,0.0,0.0,-3.6515,-3.6815,-3.7416,-3.756,0.0,0.0,0.0,0.0,0.0,0.0,-3.79,-3.79,-3.79,-3.8083,-3.8619,-3.9349,0.0,0.0,0.0,0.0,0.0,0.0,0.0,0.0,0.0,0.0,0.0,0.0,0.0,0.0,-5.1214,-5.1214,-5.1214,-5.1214,-5.1214,-5.1214,-5.1214,-5.1214,-5.1214,-5.1214,-5.1214,-5.1214,-5.112,-5.1026,0.0,0.0,0.0,0.0,-5.0745,-5.1119,-5.1441,-5.2696,-5.3457,-5.3926,-5.4508,-5.4758,-5.486,0.0,0.0,0.0,0.0,0.0,0.0,0.0,0.0,-1.8008,-1.8008,-1.8008,-1.8008,-1.8008,-1.8008,-1.8008,-1.8008,0.0,0.0,0.0,0.0,0.0,0.0,0.0,0.0,-2.0964,-2.1515,-2.1807,-2.1807,-2.1807,-2.1807,-2.1807,-2.1807,-2.2056,-2.2511,-2.2977,-2.3463,0.0,0.0,0.0,0.0,0.0,-2.7632,0.0,0.0,0.0,0.0,0.0,0.0,0.0,0.0,0.0,0.0,0.0,0.0,0.0,0.0,0.0,0.0,0.0,0.0,0.0,0.0,0.0,0.0,0.0,0.0,0.0,0.0,0.0,0.0,0.0,-3.7939,-3.8135,-3.8684,-3.9272,0.0,0.0,0.0,0.0,0.0,0.0,0.0,0.0,0.0,0.0,0.0,0.0,0.0,0.0,-5.1167,-5.1167,-5.1214,-5.1214,-5.1214,-5.1214,-5.1214,-5.1167,-5.1167,-5.1167,-5.1167,-5.112,-5.087,-5.0647,0.0,0.0,0.0,0.0,-4.9875,-5.0507,-5.1147,-5.1822,-5.2755,-5.38,-5.38,-5.3993,-5.42,0.0,0.0,0.0,0.0,0.0,0.0,0.0,0.0,0.0,0.0,-1.8008,-1.8008,-1.8008,-1.8008,-1.8008,0.0,0.0,0.0,0.0,0.0,0.0,0.0,0.0,0.0,-2.1566,-2.1718,-2.1807,-2.1807,-2.1807,-2.1807,-2.1807,-2.1807,-2.2056,-2.2511,-2.2977,-2.3629,0.0,0.0,0.0,0.0,-2.7062,-2.7914,0.0,0.0,0.0,0.0,-3.1863,-3.2478,0.0,0.0,0.0,0.0,0.0,0.0,0.0,0.0,-3.4118,-3.4228,-3.4525,0.0,-3.5626,-3.6175,-3.6319,0.0,0.0,0.0,0.0,0.0,0.0,0.0,0.0,0.0,0.0,0.0,0.0,0.0,0.0,0.0,0.0,0.0,0.0,0.0,0.0,0.0,0.0,0.0,0.0,0.0,0.0,-5.0902,-5.1011,-5.1167,-5.1214,-5.1214,-5.1214,-5.1214,-5.112,-5.0902,-5.0902,-5.0728,-5.0375,-5.0264,-5.0023,0.0,0.0,0.0,-4.8373,-4.9282,-4.9778,-5.0016,-5.1327,-5.2105,-5.2609,-5.2837,-5.3088,-5.3285,0.0,0.0,0.0,0.0,0.0,0.0,0.0,0.0,0.0,0.0,0.0,0.0,0.0,0.0,0.0,0.0,0.0,0.0,0.0,0.0,0.0,0.0,0.0,-2.1165,-2.1797,-2.1807,-2.1807,-2.1807,-2.1807,-2.1807,-2.1807,-2.2025,-2.2366,-2.2842,-2.3505,-2.4116,-2.47,-2.5031,-2.5653,-2.6393,-2.7296,0.0,0.0,0.0,0.0,0.0,-3.2102,-3.2591,0.0,-3.3124,-3.3124,-3.3124,0.0,0.0,0.0,0.0,-3.3949,-3.4118,-3.4243,-3.4562,-3.5012,-3.5587,-3.5926,-3.6266,0.0,0.0,0.0,0.0,0.0,0.0,0.0,0.0,0.0,0.0,0.0,0.0,0.0,0.0,0.0,0.0,0.0,0.0,0.0,0.0,0.0,0.0,0.0,0.0,0.0,-5.0489,-5.06,-5.0852,-5.0757,-5.079,-5.1011,-5.0947,-5.0757,-5.0504,-5.0235,-4.9994,-4.9732,-4.9488,-4.9065,0.0,0.0,-4.7759,-4.716,-4.8253,-4.8747,-4.8843,-5.023,-5.0975,-5.1402,-5.1512,-5.1839,-5.2218,0.0,0.0,0.0,0.0,0.0,0.0,0.0,0.0,0.0,0.0,0.0,0.0,0.0,0.0,0.0,0.0,0.0,0.0,0.0,0.0,0.0,0.0,-2.0914,-2.1275,-2.1797,-2.1807,-2.1807,-2.1807,-2.188,-2.1911,-2.1921,-2.2387,-2.2853,-2.3329,-2.4209,-2.47,-2.4903,-2.52,-2.5779,-2.6569,-2.7528,0.0,0.0,0.0,0.0,0.0,0.0,0.0,0.0,-3.3124,-3.3124,-3.3124,-3.3124,0.0,0.0,0.0,0.0,0.0,-3.4076,-3.4243,-3.4473,-3.5038,-3.5574,-3.6136,0.0,0.0,0.0,0.0,0.0,0.0,0.0,0.0,0.0,0.0,0.0,0.0,0.0,0.0,0.0,0.0,0.0,0.0,0.0,0.0,0.0,0.0,0.0,0.0,0.0,-4.9844,-4.999,-5.0231,-5.0023,-5.0057,-5.0475,-5.0375,-5.0183,-4.9892,-4.936,-4.9065,-4.8966,-4.8481,-4.7911,-4.7373,0.0,0.0,-4.5955,-4.7147,-4.7685,-4.7779,-4.8986,-4.977,-5.0194,-5.0194,-5.0586,-5.1017,0.0,0.0,0.0,0.0,0.0,0.0,0.0,0.0,0.0,0.0,0.0,0.0,0.0,0.0,0.0,0.0,0.0,0.0,0.0,0.0,0.0,-2.1352,-2.1552,-2.1697,-2.1807,-2.1807,-2.1807,-2.1807,-2.2201,-2.2387,-2.2397,-2.2863,-2.3329,-2.3836,-2.4513,-2.4861,-2.4946,-2.5549,-2.6093,-2.6603,-2.7946,0.0,0.0,0.0,0.0,0.0,0.0,0.0,0.0,-3.3124,-3.3124,-3.3124,-3.3124,0.0,0.0,0.0,0.0,0.0,-3.3992,-3.4118,-3.4228,-3.4473,-3.4986,-3.5574,0.0,0.0,0.0,0.0,0.0,0.0,0.0,0.0,0.0,0.0,0.0,0.0,0.0,0.0,0.0,0.0,0.0,0.0,0.0,0.0,0.0,0.0,0.0,0.0,0.0,-4.8745,-4.8866,-4.9057,-4.9007,-4.8937,-4.8866,-4.9277,-4.9326,-4.9093,-4.8503,-4.7999,-4.7596,-4.7208,-4.678,-4.6257,0.0,-4.5861,-4.5434,-4.6544,-4.702,-4.7139,-4.8374,-4.901,-4.9284,-4.9284,-4.9556,-4.984,0.0,0.0,0.0,0.0,0.0,0.0,0.0,0.0,0.0,0.0,0.0,0.0,0.0,0.0,0.0,0.0,0.0,0.0,0.0,0.0,-2.1374,-2.1645,-2.1769,-2.1807,-2.1807,-2.1807,-2.1932,-2.218,-2.2387,-2.2625,-2.2884,-2.335,-2.3805,-2.424,-2.4692,-2.4946,-2.5115,-2.5644,-2.6362,-2.7194,0.0,0.0,0.0,0.0,0.0,0.0,0.0,0.0,0.0,0.0,-3.3124,-3.3124,-3.3124,0.0,0.0,0.0,0.0,0.0,-3.381,-3.4211,-3.4584,-3.4839,-3.5312,-3.5874,0.0,0.0,0.0,0.0,0.0,0.0,0.0,0.0,0.0,0.0,0.0,0.0,0.0,0.0,0.0,0.0,0.0,0.0,0.0,0.0,0.0,0.0,0.0,0.0,0.0,0.0,-4.7976,-4.8187,-4.7869,-4.768,-4.7554,-4.7541,-4.7708,-4.8055,-4.7298,-4.6832,-4.6599,-4.6284,-4.5967,-4.5542,0.0,-4.5328,-4.503,-4.5829,-4.6409,-4.6777,-4.763,-4.8213,-4.865,-4.8837,-4.8952,-4.9125,0.0,0.0,0.0,0.0,0.0,0.0,0.0,0.0,0.0,0.0,0.0,0.0,0.0,0.0,0.0,0.0,0.0,0.0,0.0,0.0,-2.1578,-2.1731,-2.1769,-2.1807,-2.1807,-2.1911,-2.2139,-2.2501,-2.2718,-2.3049,-2.3515,-2.3867,-2.4219,-2.4497,-2.4828,-2.5073,-2.5253,-2.5931,-2.6774,-2.7713,0.0,0.0,0.0,0.0,0.0,0.0,0.0,0.0,0.0,0.0,0.0,0.0,0.0,0.0,0.0,-3.3124,-3.3197,-3.3356,-3.3598,-3.4234,-3.4926,-3.5327,0.0,-3.6436,-3.6894,0.0,0.0,0.0,0.0,0.0,0.0,0.0,0.0,0.0,0.0,0.0,0.0,0.0,0.0,0.0,0.0,0.0,0.0,0.0,0.0,0.0,0.0,0.0,0.0,-4.7029,-4.7015,-4.7195,-4.6728,-4.6533,-4.6533,-4.606,-4.6231,-4.6977,-4.6179,-4.5808,-4.5808,-4.5542,-4.5274,-4.5072,-4.5072,-4.4951,-4.4774,-4.5375,-4.5963,-4.6538,-4.7113,-4.7689,-4.8243,-4.8489,-4.8606,-4.8606,0.0,0.0,0.0,0.0,0.0,0.0,0.0,0.0,0.0,0.0,0.0,0.0,0.0,0.0,0.0,0.0,0.0,0.0,0.0,0.0,-2.1512,-2.1512,-2.1693,-2.1807,-2.1807,-2.2232,-2.247,-2.2501,-2.336,-2.4012,-2.4404,-2.4435,-2.4466,-2.4497,-2.4999,-2.52,-2.5274,-2.662,-2.7395,-2.7846,-2.9636,0.0,0.0,0.0,0.0,0.0,0.0,0.0,0.0,0.0,0.0,0.0,0.0,0.0,-3.3124,-3.3124,-3.3124,-3.3154,-3.3356,-3.4032,-3.4812,-3.5577,0.0,0.0,-3.6998,0.0,0.0,0.0,0.0,0.0,0.0,0.0,0.0,0.0,0.0,0.0,0.0,0.0,0.0,0.0,0.0,0.0,0.0,0.0,0.0,0.0,0.0,0.0,0.0,-4.5755,-4.5755,-4.5755,-4.5702,-4.5702,-4.5702,-4.5395,-4.5555,-4.6073,-4.5555,-4.5234,-4.5234,-4.4897,-4.4722,-4.4735,-4.4735,-4.4722,-4.4774,-4.5375,-4.5963,-4.6538,-4.7113,-4.7689,-4.8185,-4.8243,-4.8243,-4.8243,0.0,0.0,0.0,0.0,0.0,0.0,0.0,0.0,0.0,0.0,0.0,0.0,0.0,0.0,0.0,0.0,0.0,0.0,0.0,-2.1359,-2.1673,-2.2105,-2.2193,-2.2366,-2.2656,-2.2553,-2.278,-2.336,-2.3991,-2.4332,-2.4497,-2.4497,-2.4497,-2.4497,-2.4988,-2.536,-2.5733,-2.6999,-2.8034,-2.893,-3.0237,-3.1245,0.0,0.0,0.0,0.0,0.0,0.0,0.0,0.0,-3.3124,0.0,0.0,0.0,-3.3124,-3.3124,-3.3124,-3.3242,-3.373,-3.4499,-3.5339,-3.6115,0.0,0.0,0.0,0.0,0.0,0.0,0.0,0.0,0.0,0.0,0.0,0.0,0.0,0.0,0.0,0.0,0.0,0.0,0.0,0.0,0.0,0.0,0.0,0.0,0.0,0.0,0.0,-4.5448,-4.5341,-4.5341,-4.5167,-4.5059,-4.5059,-4.4951,-4.5005,-4.5207,-4.5005,-4.4897,-4.4897,-4.4789,-4.4668,-4.4668,-4.4668,-4.4668,-4.4748,-4.497,-4.5415,-4.6042,-4.6913,-4.7689,-4.8185,-4.8185,-4.8185,-4.8185,0.0,0.0,0.0,0.0,0.0,0.0,0.0,0.0,0.0,0.0,0.0,0.0,0.0,0.0,0.0,0.0,0.0,0.0,-2.1318,-2.1561,-2.2009,-2.2618,-2.2678,-2.2925,-2.3391,-2.3091,-2.3246,-2.3919,-2.428,-2.4497,-2.4497,-2.4497,-2.4612,-2.4876,-2.5252,-2.5776,-2.6454,-2.7639,-2.874,-2.9822,-3.083,-3.1741,0.0,0.0,0.0,0.0,0.0,0.0,0.0,0.0,0.0,0.0,0.0,0.0,0.0,0.0,-3.3206,-3.3463,-3.3959,-3.4914,-3.5878,0.0,0.0,0.0,0.0,0.0,0.0,0.0,0.0,0.0,0.0,0.0,0.0,0.0,0.0,0.0,0.0,0.0,0.0,0.0,0.0,0.0,0.0,0.0,0.0,0.0,0.0,0.0,0.0,-4.5126,-4.5018,-4.5018,-4.4843,-4.4668,-4.4668,-4.4668,-4.4668,-4.4668,-4.4668,-4.4668,-4.4668,-4.4668,-4.4668,-4.4668,-4.4668,-4.4668,-4.4668,-4.4668,-4.5033,-4.5686,-4.6821,-4.7571,-4.7937,-4.812,-4.8185,-4.8185,0.0,0.0,0.0,0.0,0.0,0.0,0.0,0.0,0.0,0.0,0.0,0.0,0.0,0.0,0.0,0.0,0.0,0.0,-2.1581,-2.1988,-2.244,-2.29,-2.3113,-2.3412,-2.3919,-2.3929,-2.3929,-2.3929,-2.428,-2.4497,-2.4497,-2.4507,-2.4918,-2.5607,-2.5826,-2.6486,-2.7469,-2.8633,-2.9546,-3.0307,-3.1508,-3.2307,-3.2723,0.0,0.0,0.0,0.0,0.0,0.0,0.0,0.0,0.0,0.0,0.0,0.0,0.0,-3.347,-3.3897,-3.3909,-3.506,0.0,0.0,0.0,0.0,0.0,0.0,0.0,0.0,0.0,0.0,0.0,0.0,0.0,0.0,0.0,0.0,0.0,0.0,0.0,0.0,0.0,0.0,0.0,0.0,0.0,0.0,0.0,0.0,0.0,-4.4668,-4.4668,-4.4668,-4.4668,-4.4668,-4.4668,-4.4668,-4.4668,-4.4668,-4.4668,-4.4668,-4.4668,-4.4668,-4.4668,-4.4668,-4.4668,-4.4668,-4.4668,-4.4668,-4.5033,-4.5686,-4.6821,-4.7265,-4.7344,-4.7963,-4.8185,-4.8185,0.0,0.0,0.0,0.0,0.0,0.0,0.0,0.0,0.0,0.0,0.0,0.0,0.0,0.0,0.0,0.0,0.0,0.0,-2.2473,-2.2625,-2.2951,-2.3567,-2.367,-2.3888,-2.429,-2.4301,-2.4301,-2.4301,-2.4435,-2.4497,-2.4507,-2.5034,-2.5394,-2.5662,-2.6682,-2.7502,-2.8187,-2.9565,-3.0537,-3.1277,-3.2147,-3.2711,-3.2982,0.0,0.0,0.0,0.0,0.0,0.0,0.0,0.0,0.0,0.0,0.0,0.0,-3.3124,-3.347,-3.3985,-3.4374,0.0,0.0,0.0,0.0,0.0,0.0,0.0,0.0,0.0,0.0,0.0,0.0,0.0,0.0,0.0,0.0,0.0,0.0,0.0,0.0,0.0,0.0,0.0,0.0,0.0,0.0,0.0,0.0,0.0,0.0,-4.4668,-4.4668,-4.4668,-4.4668,-4.4668,-4.4668,-4.4668,-4.4668,-4.4668,-4.4668,-4.4668,-4.4668,-4.4668,-4.4668,-4.4668,-4.4668,-4.4668,-4.4668,-4.4668,-4.5033,-4.5607,-4.5947,-4.656,-4.7291,-4.7519,-4.7845,-4.8185,0.0,0.0,0.0,0.0,0.0,0.0,0.0,0.0,0.0,0.0,-2.0723,-2.083,0.0,0.0,0.0,0.0,0.0,0.0,0.0,-2.3258,-2.3546,-2.4126,-2.4146,-2.4271,-2.4487,-2.4497,-2.459,-2.4776,-2.459,-2.4633,-2.4939,-2.5394,-2.6017,-2.6732,-2.7723,-2.8611,-2.9443,-3.0543,-3.1348,-3.1957,-3.2494,-3.2853,-3.3124,0.0,0.0,0.0,0.0,0.0,0.0,0.0,0.0,0.0,0.0,0.0,0.0,-3.3345,-3.3796,-3.4349,0.0,0.0,0.0,0.0,0.0,0.0,0.0,0.0,0.0,0.0,0.0,0.0,0.0,0.0,0.0,0.0,0.0,0.0,0.0,0.0,0.0,0.0,0.0,0.0,0.0,0.0,0.0,0.0,0.0,0.0,0.0,-4.4668,-4.4668,-4.4668,-4.4668,-4.4668,-4.4668,-4.4668,-4.4668,-4.4668,-4.4668,-4.4668,-4.4668,-4.4668,-4.4668,-4.4668,-4.4668,-4.4668,-4.4668,-4.4668,-4.489,-4.5297,-4.5477,-4.6186,-4.7022,-4.7244,-4.7689,-4.8185,0.0,0.0,0.0,0.0,0.0,0.0,0.0,0.0,0.0,0.0,-2.1016,-2.1289,0.0,0.0,0.0,0.0,0.0,0.0,0.0,0.0,-2.4115,-2.4476,-2.4497,-2.4518,-2.4559,-2.4559,-2.4786,-2.5241,-2.4786,-2.4959,-2.567,-2.5713,-2.6709,-2.8432,-2.8791,-2.969,-3.0982,-3.1504,-3.1957,-3.2444,-3.2636,-3.2896,-3.3124,-3.3124,0.0,0.0,0.0,0.0,0.0,0.0,0.0,0.0,0.0,0.0,0.0,-3.3734,-3.4286,0.0,0.0,0.0,0.0,0.0,0.0,0.0,0.0,0.0,0.0,0.0,0.0,0.0,0.0,0.0,0.0,0.0,0.0,0.0,0.0,0.0,0.0,0.0,0.0,0.0,0.0,0.0,0.0,0.0,0.0,0.0,0.0,-4.4668,-4.4668,-4.4668,-4.4668,-4.4668,-4.4668,-4.4668,-4.4668,-4.4668,-4.4668,-4.4668,-4.4681,-4.4668,-4.4668,-4.4668,-4.4668,-4.4668,-4.4668,-4.4668,-4.4668,-4.472,-4.5268,-4.5898,-4.646,-4.6983,-4.7571,-4.8107,0.0,0.0,0.0,0.0,0.0,0.0,0.0,0.0,0.0,0.0,0.0,0.0,0.0,0.0,0.0,0.0,0.0,0.0,0.0,0.0,-2.4394,-2.4497,-2.4497,-2.4662,-2.5034,-2.5034,-2.5295,-2.574,-2.5295,-2.5448,-2.6165,-2.6692,-2.7457,-2.8454,-2.9692,-3.0608,-3.1261,-3.2089,-3.2537,-3.268,-3.2896,-3.3038,-3.3124,-3.3124,-3.3124,0.0,0.0,0.0,0.0,0.0,0.0,0.0,0.0,-3.3124,-3.3224,-3.3734,-3.4286,0.0,0.0,0.0,0.0,0.0,0.0,0.0,0.0,0.0,0.0,0.0,0.0,0.0,0.0,0.0,0.0,0.0,0.0,0.0,0.0,0.0,0.0,0.0,0.0,0.0,0.0,0.0,0.0,0.0,0.0,0.0,-4.4668,-4.4668,-4.4668,-4.4668,-4.4668,-4.4668,-4.4668,-4.4668,-4.4668,0.0,-4.4668,-4.4572,-4.4367,-4.4626,-4.4668,-4.4668,-4.4668,-4.4668,-4.4668,-4.4668,-4.4668,-4.4735,-4.4811,-4.5284,-4.5833,-4.5895,-4.6643,-4.7519,0.0,0.0,0.0,0.0,0.0,0.0,0.0,0.0,0.0,0.0,0.0,0.0,0.0,0.0,0.0,0.0,0.0,0.0,0.0,0.0,-2.46,-2.4817,-2.4828,-2.5034,-2.5533,-2.5544,-2.5761,-2.6262,-2.5989,-2.617,-2.6809,-2.7133,-2.7998,-2.9297,-3.0303,-3.1149,-3.1893,-3.2593,-3.2896,-3.2896,-3.3025,-3.3124,-3.3124,-3.3124,-3.3124,-3.3124,-3.3124,0.0,0.0,0.0,0.0,0.0,0.0,0.0,-3.3583,-3.4135,-3.4675,0.0,0.0,0.0,0.0,0.0,0.0,0.0,0.0,0.0,0.0,0.0,0.0,0.0,0.0,0.0,0.0,0.0,0.0,0.0,0.0,0.0,0.0,0.0,0.0,0.0,0.0,0.0,0.0,0.0,0.0,-4.4572,-4.4668,-4.4572,-4.4572,-4.4668,-4.4572,-4.4518,-4.4518,-4.4367,-4.4313,-4.4313,-4.4313,-4.4258,-4.4107,-4.4367,-4.4572,-4.4668,-4.4668,-4.4668,-4.4668,-4.4668,-4.4668,-4.4668,-4.4668,-4.5101,-4.5568,-4.5568,-4.6173,-4.6931,0.0,0.0,0.0,0.0,0.0,0.0,0.0,0.0,0.0,0.0,0.0,0.0,0.0,0.0,0.0,0.0,0.0,0.0,0.0,0.0,0.0,-2.5282,-2.5303,-2.5544,-2.5989,-2.6044,-2.6273,-2.6739,-2.6739,-2.7007,0.0,-2.7402,-2.8444,-3.0216,-3.0689,-3.146,-3.2431,-3.2909,-3.3124,-3.3124,-3.3124,-3.3124,-3.3124,-3.3124,-3.3124,-3.3124,-3.3124,-3.3124,-3.3124,-3.3124,0.0,0.0,0.0,0.0,-3.4022,-3.4675,-3.5144,-3.5621,0.0,0.0,0.0,0.0,0.0,0.0,0.0,0.0,0.0,0.0,0.0,0.0,0.0,0.0,0.0,0.0,0.0,0.0,0.0,0.0,0.0,0.0,0.0,0.0,0.0,0.0,0.0,0.0,0.0,-4.4313,-4.4572,-4.4367,-4.4313,-4.4572,-4.4367,-4.4203,-4.4203,-4.3997,-4.3899,-4.3899,-4.3844,-4.3832,-4.3899,-4.4039,-4.43,-4.4572,-4.4572,-4.4572,-4.4626,-4.4626,-4.4681,-4.4668,-4.4668,-4.5036,-4.5412,-4.5412,-4.5846,-4.6329,0.0,0.0,0.0,0.0,0.0,0.0,0.0,0.0,0.0,0.0,0.0,0.0,0.0,0.0,0.0,0.0,0.0,0.0,0.0,0.0,0.0,-2.5771,-2.5792,-2.6009,-2.6511,-2.6521,-2.675,-2.7216,-2.7405,0.0,0.0,0.0,0.0,-3.0216,-3.0689,-3.146,-3.2431,-3.2909,-3.3124,-3.3124,-3.3124,-3.3124,-3.3124,-3.3124,-3.3124,-3.3124,-3.3124,-3.3124,-3.3124,-3.3124,-3.3124,0.0,0.0,0.0,-3.411,-3.5094,-3.5445,0.0,0.0,0.0,0.0,0.0,0.0,0.0,0.0,0.0,0.0,0.0,0.0,0.0,0.0,0.0,0.0,0.0,0.0,0.0,0.0,0.0,0.0,0.0,0.0,0.0,0.0,0.0,0.0,0.0,-4.4107,-4.3955,-4.3997,-4.3955,-4.3955,-4.3997,-4.3955,-4.3955,-4.3955,-4.3899,-4.3899,-4.3899,-4.3585,-4.364,-4.3899,-4.364,-4.3696,-4.3997,-4.3997,-4.4161,-4.4367,-4.4367,-4.4463,-4.4668,-4.4668,-4.4774,-4.4839,-4.4839,-4.5218,-4.5741,0.0,0.0,0.0,0.0,0.0,0.0,0.0,0.0,0.0,0.0,0.0,0.0,0.0,0.0,0.0,0.0,0.0,0.0,0.0,0.0,0.0,-2.6248,-2.6314,-2.6532,-2.6988,-2.7009,-2.7102,-2.7309,0.0,0.0,0.0,-2.8139,-2.8896,0.0,0.0,-3.1371,-3.2189,-3.268,-3.3127,-3.3533,-3.3533,-3.3721,-3.3997,-3.3997,-3.3997,-3.3997,-3.3997,-3.3997,-3.3997,-3.3997,-3.3997,-3.4035,-3.4286,0.0,0.0,0.0,-3.5768,0.0,0.0,0.0,0.0,0.0,0.0,0.0,0.0,0.0,0.0,0.0,0.0,0.0,0.0,0.0,0.0,0.0,0.0,0.0,0.0,0.0,0.0,0.0,0.0,0.0,0.0,0.0,0.0,0.0,-4.3819,-4.3708,-4.3899,-4.3708,-4.3708,-4.3899,-4.3708,-4.364,-4.364,-4.3487,-4.3376,-4.3376,-4.3252,-4.3252,-4.3376,-4.3252,-4.3419,-4.3899,-4.3899,-4.3955,-4.4107,-4.4258,-4.4367,-4.4463,-4.4626,-4.4668,-4.4668,-4.4668,-4.4837,-4.5127,0.0,0.0,0.0,0.0,0.0,0.0,0.0,0.0,0.0,0.0,0.0,0.0,0.0,0.0,0.0,0.0,0.0,0.0,0.0,0.0,0.0,-2.677,-2.6791,-2.6957,-2.7299,-2.7309,-2.7309,-2.7309,0.0,0.0,-2.7987,-2.8477,-2.9093,0.0,-3.0499,-3.125,0.0,0.0,0.0,-3.3909,-3.406,-3.4349,-3.468,-3.468,-3.468,-3.468,-3.468,-3.468,-3.468,-3.468,-3.468,-3.4705,-3.4843,-3.5169,0.0,0.0,0.0,0.0,0.0,0.0,0.0,0.0,0.0,0.0,0.0,0.0,0.0,0.0,0.0,0.0,0.0,0.0,0.0,0.0,0.0,0.0,0.0,0.0,0.0,0.0,0.0,0.0,0.0,0.0,0.0,0.0,-4.3474,-4.3419,-4.3666,-4.3419,-4.3406,-4.3666,-4.3419,-4.3283,-4.3283,-4.3085,-4.2974,-4.2974,-4.2974,-4.2974,-4.2974,-4.2974,-4.3265,-4.3666,-4.3666,-4.3721,-4.3776,-4.3984,-4.4148,-4.4313,-4.4518,-4.4626,-4.4668,-4.4668,-4.4668,-4.4668,0.0,0.0,0.0,0.0,0.0,0.0,0.0,0.0,0.0,0.0,0.0,0.0,-2.3797,-2.4452,-2.4982,-2.5148,-2.5595,0.0,0.0,0.0,0.0,-2.7247,-2.7268,0.0,-2.7309,-2.7309,-2.7309,0.0,0.0,0.0,-2.8045,-2.8967,-2.9485,-2.9531,-3.0306,-3.1149,-3.2057,0.0,0.0,0.0,-3.4462,-3.47,-3.468,-3.468,-3.468,-3.468,-3.468,-3.468,-3.468,-3.468,-3.468,-3.4768,-3.5295,-3.547,-3.5596,0.0,0.0,0.0,0.0,0.0,0.0,0.0,0.0,0.0,0.0,0.0,0.0,0.0,0.0,0.0,0.0,0.0,0.0,0.0,0.0,0.0,0.0,0.0,0.0,0.0,0.0,0.0,0.0,0.0,0.0,0.0,-4.3184,-4.303,-4.303,-4.303,-4.303,-4.303,-4.303,-4.303,-4.303,-4.303,-4.2974,-4.2974,-4.2974,-4.2974,-4.2974,-4.2974,-4.3042,-4.303,-4.303,-4.3197,-4.3449,-4.3449,-4.3793,-4.4313,-4.4313,-4.4463,-4.4668,-4.4668,-4.4668,-4.4668,0.0,0.0,0.0,0.0,0.0,0.0,0.0,0.0,0.0,0.0,0.0,0.0,0.0,-2.4734,-2.5259,-2.5627,-2.6061,0.0,0.0,0.0,0.0,-2.7299,-2.7309,-2.7309,-2.7309,-2.7309,0.0,0.0,0.0,-2.7998,-2.8045,-2.8839,-2.9405,-2.9794,-3.0835,-3.1703,-3.2381,-3.3379,0.0,0.0,0.0,-3.5466,-3.5768,-3.5768,-3.5768,-3.5768,-3.5768,-3.5768,-3.5768,-3.5768,-3.5768,-3.5805,-3.6006,-3.6069,-3.6107,-3.6355,-3.6405,-3.6405,0.0,0.0,0.0,0.0,0.0,0.0,0.0,0.0,0.0,0.0,0.0,0.0,0.0,0.0,0.0,0.0,0.0,0.0,0.0,0.0,0.0,0.0,0.0,0.0,0.0,0.0,0.0,0.0,0.0,-4.2974,-4.2974,-4.2974,-4.2974,-4.2974,-4.2974,-4.2974,-4.2974,-4.2974,-4.2974,-4.2974,-4.2974,-4.2974,-4.2974,-4.2974,-4.2974,-4.2974,-4.2974,-4.303,-4.3129,-4.3338,-4.3504,-4.3738,-4.4148,-4.4367,-4.4463,-4.4626,-4.4668,-4.4668,0.0,0.0,0.0,0.0,0.0,0.0,0.0,0.0,-2.3149,-2.3296,0.0,0.0,0.0,0.0,-2.5764,-2.6299,-2.6677,-2.6978,-2.7289,-2.7309,-2.7309,-2.7309,-2.7309,-2.7309,-2.7309,0.0,0.0,0.0,0.0,0.0,0.0,-2.8943,-2.9643,-3.0204,-3.161,-3.2383,0.0,0.0,0.0,-3.552,0.0,0.0,-3.6405,-3.6405,-3.6405,-3.6405,-3.6405,-3.6405,-3.6405,-3.6405,-3.6405,-3.6405,-3.6405,-3.6405,-3.6405,-3.6405,-3.6405,-3.6405,-3.6405,0.0,0.0,0.0,0.0,0.0,0.0,0.0,0.0,0.0,0.0,0.0,0.0,0.0,0.0,0.0,0.0,0.0,0.0,0.0,0.0,0.0,0.0,0.0,0.0,0.0,0.0,0.0,0.0,0.0,-4.2974,-4.2974,-4.2974,-4.2974,-4.2974,-4.2974,-4.2974,-4.2974,-4.2974,-4.2974,-4.2974,-4.2974,-4.2974,-4.2974,-4.2974,-4.2974,-4.2974,-4.2974,-4.303,-4.3184,-4.3338,-4.3449,-4.3848,-4.4136,-4.4313,-4.4518,-4.4626,-4.4668,0.0,0.0,0.0,0.0,0.0,0.0,0.0,0.0,-2.3286,-2.375,0.0,0.0,0.0,0.0,0.0,-2.722,-2.7309,-2.7309,-2.7309,-2.7309,-2.7309,-2.7309,-2.7309,0.0,0.0,0.0,0.0,0.0,0.0,0.0,0.0,0.0,-3.0227,-3.082,-3.2522,-3.3155,-3.2946,0.0,-3.5322,-3.5571,0.0,-3.6405,-3.6405,0.0,-3.6417,-3.643,-3.643,-3.6443,-3.6455,-3.6455,-3.6455,-3.643,-3.6417,-3.6405,-3.6405,-3.6405,-3.6405,-3.6405,0.0,0.0,0.0,0.0,0.0,0.0,0.0,0.0,0.0,0.0,0.0,0.0,0.0,0.0,0.0,0.0,0.0,0.0,0.0,0.0,0.0,0.0,0.0,0.0,0.0,0.0,0.0,0.0,-4.2974,-4.2974,-4.2974,-4.2974,-4.2974,-4.2974,-4.2974,-4.2974,-4.2974,-4.2974,-4.2974,-4.2974,-4.2974,-4.2974,-4.2974,-4.2974,-4.2974,-4.2974,-4.2974,-4.2974,-4.2974,-4.2974,-4.3129,-4.3394,-4.3394,-4.3738,-4.4313,-4.4313,-4.4463,-4.4668,0.0,0.0,0.0,0.0,0.0,-2.3613,-2.3613,-2.3867,-2.4102,0.0,0.0,0.0,-2.5601,-2.6468,-2.707,-2.7299,-2.7309,-2.7309,-2.7309,-2.7309,-2.7309,-2.7309,-2.7309,-2.7309,-2.7309,0.0,0.0,0.0,0.0,0.0,0.0,0.0,0.0,0.0,-3.296,-3.3823,-3.4299,-3.5328,0.0,0.0,-3.6342,-3.6405,0.0,0.0,0.0,0.0,0.0,-3.7211,-3.755,-3.755,-3.7287,-3.6885,-3.6531,-3.6405,-3.6405,-3.6405,-3.6405,-3.6405,-3.6405,0.0,0.0,0.0,0.0,0.0,0.0,0.0,0.0,0.0,0.0,0.0,0.0,0.0,0.0,0.0,0.0,0.0,0.0,0.0,0.0,0.0,0.0,0.0,0.0,0.0,0.0,0.0,-4.2974,-4.2974,-4.2974,-4.2974,-4.2974,-4.2974,-4.2974,-4.2974,-4.2974,-4.2974,-4.2974,-4.2974,-4.2974,-4.2974,-4.2974,-4.2974,-4.2974,-4.2974,-4.2974,-4.2974,-4.2974,-4.2974,-4.303,-4.3129,-4.3338,-4.364,-4.4052,-4.4203,-4.4463,-4.4668,0.0,0.0,0.0,0.0,0.0,-2.4053,-2.4053,-2.4258,-2.4529,0.0,0.0,0.0,-2.6337,-2.6954,-2.7309,-2.7309,-2.7309,-2.7309,-2.7309,-2.7309,-2.7309,-2.7309,-2.7309,-2.7309,-2.7309,-2.7309,0.0,0.0,0.0,0.0,0.0,0.0,0.0,0.0,0.0,0.0,0.0,0.0,0.0,0.0,-3.6405,0.0,0.0,-3.6669,-3.6958,0.0,0.0,0.0,-3.8002,-3.8002,-3.7789,-3.7475,-3.7149,-3.7048,-3.7048,-3.7048,-3.7048,-3.7048,-3.7048,-3.7462,-3.7965,-3.8291,0.0,0.0,0.0,0.0,0.0,0.0,0.0,0.0,0.0,0.0,0.0,0.0,0.0,0.0,0.0,0.0,0.0,0.0,0.0,0.0,0.0,-4.2974,-4.2974,-4.2974,-4.2974,-4.2974,-4.2974,-4.2974,-4.2974,-4.2974,-4.2974,-4.2974,-4.2974,-4.2974,-4.2974,-4.2974,-4.2974,-4.2974,-4.2974,-4.2974,-4.2974,-4.2974,-4.2974,-4.2974,-4.2974,-4.2974,-4.2974,-4.303,-4.3184,-4.3487,-4.3899,-4.4052,-4.4367,-4.4668,0.0,0.0,-2.3975,-2.4355,-2.4453,-2.4492,-2.4492,-2.4531,-2.4837,0.0,-2.5762,-2.629,-2.721,-2.7309,-2.7309,-2.7309,-2.7309,-2.7309,-2.7309,-2.7309,-2.7309,-2.7309,-2.7351,-2.7382,-2.7382,-2.7434,-2.7455,0.0,0.0,0.0,0.0,0.0,-3.1435,-3.2569,0.0,0.0,0.0,0.0,0.0,-3.6358,-3.6405,-3.6443,0.0,0.0,-3.7262,-3.7437,-3.7927,-3.814,-3.8191,-3.8128,-3.8103,-3.809,-3.8027,-3.8002,-3.8002,-3.8002,-3.8002,-3.8002,-3.8002,-3.8429,-3.8919,-3.8919,-3.9283,0.0,-3.9697,-3.9697,-3.9697,0.0,0.0,0.0,0.0,0.0,0.0,0.0,0.0,0.0,0.0,0.0,0.0,0.0,0.0,0.0,0.0,-4.2974,-4.2974,-4.2974,-4.2974,-4.2974,-4.2974,-4.2974,-4.2974,-4.2974,-4.2974,-4.2974,-4.2974,-4.2974,-4.2974,-4.2974,-4.2974,-4.2974,-4.2974,-4.2974,-4.2974,-4.2974,-4.2974,-4.2974,-4.2974,-4.2974,-4.2974,-4.2974,-4.2974,-4.3376,-4.3899,-4.3899,-4.4258,-4.4668,0.0,0.0,-2.4316,-2.4404,-2.4707,-2.4941,-2.4941,-2.5425,-2.5825,-2.5962,-2.6365,-2.6836,-2.7251,-2.7309,-2.7309,-2.7309,-2.7309,-2.7309,-2.7309,-2.7309,-2.7309,-2.7309,-2.7603,-2.779,-2.779,-2.8162,-2.8349,-2.8349,0.0,0.0,0.0,0.0,-3.1368,-3.276,0.0,0.0,0.0,0.0,0.0,-3.6098,-3.6323,0.0,-3.7036,-3.7149,-3.7751,-3.8555,-3.8668,-3.8981,-3.9295,-3.8856,-3.8693,-3.8617,-3.8153,-3.8002,-3.8002,-3.8002,-3.8002,-3.8002,-3.8002,-3.8429,-3.8919,-3.8919,-3.9283,0.0,-3.9697,-3.9697,-3.9697,0.0,0.0,0.0,0.0,0.0,0.0,0.0,0.0,0.0,0.0,0.0,0.0,0.0,0.0,0.0,-4.2974,-4.2974,-4.2974,-4.2974,-4.2974,-4.2974,-4.2974,-4.2974,-4.2974,-4.2974,-4.2974,-4.2974,-4.2974,-4.2974,-4.2974,-4.2974,-4.2974,-4.2974,-4.2974,-4.2974,-4.2974,-4.2974,-4.2974,-4.2974,-4.2974,-4.2974,-4.2974,-4.2974,-4.2974,-4.3376,-4.3899,-4.3899,-4.4258,-4.4668,-2.4697,-2.4746,-2.4814,-2.4992,-2.5254,-2.54,-2.54,-2.5817,-2.6149,-2.6294,-2.6784,-2.7177,-2.7309,-2.7458,-2.7593,-2.7593,-2.78,-2.7935,-2.7935,-2.7935,-2.7935,-2.7935,-2.8152,-2.8266,-2.8266,-2.8493,-2.8618,-2.8618,0.0,0.0,0.0,0.0,0.0,0.0,0.0,0.0,0.0,0.0,-3.5572,-3.5837,-3.6528,0.0,-3.7249,-3.7814,-3.8429,-3.8957,-3.9182,-3.9459,-3.9647,-3.9371,-3.9283,-3.9233,-3.8931,-3.8856,-3.8856,-3.8856,-3.8856,-3.8856,-3.8856,-3.9057,-3.9283,-3.9283,-3.9484,0.0,0.0,-3.9697,0.0,0.0,0.0,0.0,0.0,0.0,0.0,0.0,0.0,0.0,0.0,0.0,0.0,0.0,0.0,0.0,-4.2974,-4.2974,-4.2974,-4.2974,-4.2974,-4.2974,-4.2974,-4.2974,-4.2974,-4.2974,-4.2974,-4.2974,-4.2974,-4.2974,-4.2974,-4.2974,-4.2974,-4.2974,-4.2974,-4.2974,-4.2974,-4.2974,-4.2974,-4.2974,-4.2974,-4.2974,-4.2974,-4.2974,-4.2974,-4.3376,-4.3899,-4.3899,-4.4258,-4.4668,-2.5127,-2.5195,-2.5312,-2.5625,-2.5693,-2.5742,-2.5781,-2.6004,-2.6324,-2.6703,-2.7229,-2.7569,-2.7569,-2.7841,-2.8059,-2.8059,-2.84,-2.8618,-2.8618,-2.8618,-2.8618,-2.8618,-2.87,-2.8742,-2.8742,-2.8835,-2.8876,-2.8876,0.0,0.0,0.0,0.0,0.0,0.0,0.0,0.0,0.0,0.0,0.0,-3.5769,0.0,-3.7337,-3.745,-3.8529,-3.8931,-3.9082,-3.9534,-3.9697,-3.9697,-3.9697,-3.9697,-3.9697,-3.9697,-3.9697,-3.9697,-3.9697,-3.9697,-3.9697,-3.9697,-3.9697,-3.9697,-3.9697,-3.9697,-3.9697,0.0,0.0,0.0,0.0,0.0,0.0,0.0,0.0,0.0,0.0,0.0,0.0,0.0,0.0,0.0,0.0,0.0,0.0,0.0,-4.266,-4.266,-4.266,-4.276,-4.2879,-4.2879,-4.2924,-4.2974,-4.2974,-4.2974,-4.2974,-4.2974,-4.2974,-4.2974,-4.2974,-4.2974,-4.2974,-4.2974,-4.2974,-4.2974,-4.2974,-4.2974,-4.2974,-4.2974,-4.2974,-4.2974,-4.2974,-4.2974,-4.3376,-4.3899,-4.3899,-4.4258,-4.4668,-2.5606,-2.5615,-2.5625,-2.5674,-2.5693,-2.5781,-2.6004,-2.6294,-2.6782,-2.7654,-2.8154,-2.8462,-2.8462,-2.8504,-2.8535,-2.8535,-2.8587,-2.8618,-2.8618,-2.8618,-2.8618,-2.8618,-2.9011,-2.9228,-2.9228,-2.9632,-2.9839,-2.9839,-2.9891,-3.0068,0.0,0.0,0.0,0.0,-3.2493,0.0,0.0,0.0,-3.5491,0.0,-3.7394,-3.7914,0.0,-3.863,-3.9182,-3.9609,-3.9672,-3.9697,-3.9697,0.0,-3.9697,-3.9697,-3.9697,-3.9697,-3.9697,-3.9697,-3.9697,-3.9697,-3.9697,-3.9697,-3.9697,-3.9697,-3.9697,-3.9697,-3.9697,0.0,-3.9697,-3.9697,0.0,0.0,0.0,0.0,0.0,0.0,0.0,0.0,0.0,0.0,0.0,0.0,0.0,0.0,0.0,-4.1476,-4.1476,-4.1476,-4.1969,-4.2301,-4.2301,-4.271,-4.2974,-4.2974,-4.2974,-4.2974,-4.2974,-4.2974,-4.2974,-4.2974,-4.2974,-4.2974,-4.2974,-4.2974,-4.2974,-4.2974,-4.2974,-4.2974,-4.2974,-4.2974,-4.2974,-4.2974,-4.2974,-4.3376,-4.3899,-4.3899,-4.4258,-4.4668,-2.5693,-2.5693,-2.5693,-2.5693,-2.5693,-2.5732,-2.5868,-2.6475,-2.7236,-2.8167,-2.8493,-2.8618,-2.8618,-2.8856,-2.9021,-2.9021,-2.9259,-2.9415,-2.9415,-2.9415,-2.9415,-2.9415,-2.9601,-2.9704,-2.9704,-2.9891,-2.9994,-2.9994,-2.9994,-3.0047,0.0,0.0,0.0,0.0,-3.1986,0.0,-3.33,0.0,0.0,0.0,0.0,0.0,0.0,-3.9132,-3.9484,-3.9697,-3.9697,-3.9697,-3.9697,0.0,-3.9697,0.0,0.0,0.0,0.0,-3.9697,-3.9697,-3.9697,-3.9697,-3.9697,-3.9697,-3.9697,-3.9697,-3.9697,-3.9697,-3.9697,-3.9697,-3.9697,0.0,0.0,0.0,0.0,0.0,0.0,-3.9697,0.0,0.0,0.0,0.0,0.0,0.0,0.0,0.0,0.0,0.0,0.0,-4.1543,-4.1681,-4.1681,-4.2208,-4.2552,-4.2552,-4.2811,-4.2974,-4.2974,-4.2974,-4.2974,-4.2974,-4.2974,-4.2974,-4.2974,-4.2974,-4.2974,-4.2974,-4.2974,-4.2974,-4.2974,-4.2974,-4.2974,-4.2974,-4.2974,-4.3376,-4.3899,-4.4052,-4.4367,-4.4668,-2.5889,-2.5771,0.0,0.0,0.0,-2.6006,-2.6261,-2.7142,-2.8043,-2.8712,-2.8918,-2.9042,-2.9166,-2.9477,0.0,0.0,-3.018,-3.0325,-3.0191,-3.018,-3.0129,-3.0005,-2.9994,-2.9994,-2.9994,-2.9994,-2.9994,-2.9994,-2.9994,-2.9994,0.0,-3.0568,-3.085,0.0,0.0,-3.2616,-3.3343,0.0,0.0,-3.6497,-3.7692,-3.8576,-3.9145,-3.9534,-3.9697,-3.971,-3.9873,-3.9923,-3.9936,-4.0099,-4.0149,-4.0149,-4.0149,-4.0149,-4.0149,0.0,0.0,0.0,-3.9961,-3.9923,-3.9885,-3.9735,-3.9697,-3.9697,-3.9697,-3.9697,-3.9697,-3.9697,-3.9697,0.0,0.0,0.0,-3.9697,-3.9697,0.0,-3.9697,0.0,0.0,0.0,0.0,0.0,0.0,0.0,0.0,0.0,-4.0837,-4.0974,-4.1062,-4.1062,-4.1643,-4.1932,-4.1932,-4.2472,-4.2748,-4.2748,-4.2898,-4.2974,-4.2974,-4.2974,-4.2974,-4.2974,-4.2974,-4.2974,-4.2974,-4.2974,-4.2974,-4.2974,-4.2974,-4.2974,-4.303,-4.3085,-4.3364,-4.3832,-4.4094,-4.4422,-4.4668,-2.6279,-2.6025,0.0,0.0,0.0,0.0,0.0,0.0,0.0,0.0,0.0,0.0,0.0,0.0,0.0,0.0,0.0,-3.1143,-3.0698,-3.0667,-3.046,-3.0015,-2.9994,-2.9994,-2.9994,-2.9994,-2.9994,-2.9994,-2.9994,-2.9994,0.0,-3.0568,-3.1061,-3.1529,0.0,-3.3033,-3.3551,-3.4384,-3.5341,-3.649,-3.7284,-3.8452,-3.9672,0.0,-3.9697,-3.9772,-4.03,0.0,0.0,-4.105,-4.1238,-4.1238,-4.1238,-4.1238,-4.1238,0.0,0.0,0.0,-4.0639,-4.0488,-4.0362,-3.9823,-3.9697,-3.9697,-3.9697,-3.9697,-3.9697,-3.9697,-3.9697,-3.9697,-3.9697,-3.9697,-3.9697,-3.9697,-3.9697,0.0,0.0,0.0,0.0,0.0,0.0,0.0,0.0,0.0,0.0,-3.9747,-4.0237,-4.0538,-4.0538,-4.1012,-4.1313,-4.1313,-4.1894,-4.2238,-4.2238,-4.271,-4.2974,-4.2974,-4.2974,-4.2974,-4.2974,-4.2974,-4.2974,-4.2974,-4.2974,-4.2974,-4.2974,-4.2974,-4.2974,-4.303,-4.3295,-4.3394,-4.3462,-4.3776,-4.4258,-4.4668,0.0,0.0,0.0,0.0,0.0,0.0,0.0,-2.8542,0.0,0.0,0.0,0.0,0.0,-3.1143,-3.1205,0.0,0.0,-3.1309,-3.1153,-3.1143,-3.1071,-3.0915,-3.0915,-3.0915,-3.0915,-3.0915,-3.0915,-3.0915,-3.0915,-3.0915,0.0,0.0,-3.157,-3.1707,0.0,-3.2674,0.0,0.0,0.0,0.0,0.0,-3.9099,-4.0237,0.0,-4.0237,-4.0312,-4.0865,-4.1012,-4.1037,-4.1225,-4.1288,-4.1288,-4.1288,-4.1288,-4.1288,-4.1288,-4.1288,-4.125,-4.1062,-4.1012,-4.0962,-4.0774,-4.0777,-4.0777,-4.0777,-4.0777,-4.0777,-4.0777,-4.0777,-4.0777,-4.0777,-4.0777,-4.0664,-4.03,-4.0237,-4.0111,0.0,0.0,0.0,0.0,0.0,0.0,0.0,0.0,0.0,-3.9697,-3.9873,-3.9973,-3.9973,-4.0488,-4.0802,-4.0802,-4.1681,-4.2213,-4.2213,-4.2753,-4.2974,-4.2974,-4.2974,-4.2974,-4.2974,-4.2974,-4.2974,-4.2974,-4.2974,-4.2974,-4.2974,-4.2974,-4.2974,-4.303,-4.3085,-4.324,-4.3449,-4.3776,-4.4107,-4.4463,-2.7217,0.0,0.0,0.0,0.0,0.0,0.0,0.0,0.0,0.0,-3.0833,0.0,-3.1557,0.0,-3.1743,0.0,-3.195,-3.1857,-3.1857,-3.1702,0.0,-3.1381,-3.1381,-3.1381,-3.1381,-3.1381,-3.1381,-3.1381,-3.1381,-3.1381,0.0,0.0,0.0,0.0,0.0,0.0,0.0,0.0,-3.4648,0.0,0.0,-3.9332,0.0,0.0,-4.0871,-4.0877,0.0,-4.163,-4.1656,-4.1856,-4.1919,-4.1919,-4.1919,-4.1919,-4.1919,-4.1919,-4.1919,-4.1882,-4.1681,-4.163,-4.158,-4.1326,-4.1288,-4.1288,-4.1288,-4.1288,-4.1288,-4.1288,-4.1288,-4.1288,-4.1288,-4.1288,-4.1175,-4.0811,-4.0761,-4.0614,0.0,-3.9823,0.0,0.0,0.0,0.0,0.0,0.0,-3.9697,-3.9697,-3.9697,-3.9697,0.0,-4.0036,-4.0224,-4.0224,-4.1103,-4.1668,-4.1869,-4.2464,-4.2841,-4.2974,-4.2974,-4.2974,-4.2974,-4.2974,-4.2974,-4.2974,-4.2974,-4.2974,-4.2974,-4.2974,-4.2974,-4.2974,-4.2974,-4.3141,-4.3295,-4.3598,-4.3984,-4.4367,0.0,0.0,0.0,0.0,-2.768,0.0,0.0,0.0,-3.0345,0.0,-3.1133,-3.1588,-3.1998,-3.205,-3.2457,-3.3327,-3.3037,-3.2799,-3.2799,-3.2308,0.0,-3.1495,-3.1454,-3.1443,-3.1443,-3.1443,-3.1443,-3.1443,-3.1443,-3.1443,0.0,0.0,0.0,0.0,-3.2789,0.0,-3.3579,-3.3918,-3.4412,-3.5213,-3.7391,-3.9044,-4.0277,-4.1253,-4.1517,-4.1438,-4.2007,-4.225,-4.2338,-4.2798,-4.2974,-4.2974,-4.2974,-4.2974,-4.2974,-4.2974,-4.2974,-4.2861,-4.2389,-4.225,-4.2125,-4.1555,-4.1363,-4.1363,-4.1363,-4.1363,-4.1363,-4.1363,-4.1363,-4.1363,-4.1363,-4.1363,-4.1363,-4.1326,-4.13,-4.11,-4.0588,-4.0061,-3.9722,0.0,0.0,0.0,0.0,-3.9697,-3.9697,-3.9697,-3.9697,-3.9697,0.0,-3.9697,-3.9697,-3.9697,-4.0262,-4.0761,-4.1275,-4.1907,-4.2514,-4.2974,-4.2974,-4.2974,-4.2974,-4.2974,-4.2974,-4.2974,-4.2974,-4.2974,-4.2974,-4.2974,-4.2974,-4.2974,-4.2974,-4.2974,-4.303,-4.3295,-4.3793,-4.4313,-2.8105,-2.8135,-2.8193,0.0,-2.8315,-2.8538,0.0,0.0,0.0,0.0,-3.1795,-3.2168,-3.2954,-3.3037,-3.3265,-3.3844,-3.3793,0.0,0.0,0.0,0.0,-3.2871,-3.2551,-3.2385,-3.2385,-3.2385,-3.2385,-3.2385,-3.2385,-3.2385,-3.2385,0.0,0.0,0.0,0.0,0.0,-3.2955,-3.3512,-3.481,-3.6563,-3.776,-3.9209,-4.0648,0.0,-4.1533,-4.2239,-4.2655,-4.276,-4.2841,-4.2924,-4.2974,-4.2974,-4.2974,-4.2974,-4.2974,-4.2974,-4.2974,-4.2949,-4.2798,-4.276,-4.2735,-4.2585,-4.2559,-4.2559,-4.2559,-4.2559,-4.2559,-4.2559,-4.2559,-4.2559,-4.2559,-4.2559,-4.2421,-4.2007,-4.1605,-4.11,-4.0588,-4.0388,-4.0162,-3.9747,0.0,0.0,0.0,-3.9697,-3.9697,-3.9697,-3.9697,-3.9697,0.0,0.0,-3.9697,-3.9697,-4.0626,-4.115,-4.1288,-4.2283,-4.2836,-4.2974,-4.2974,-4.2974,-4.2974,-4.2974,-4.2974,-4.2974,-4.2974,-4.2974,-4.2974,-4.2974,-4.2974,-4.2974,-4.2974,-4.2974,-4.303,-4.3598,-4.3887,-4.4052,-2.8564,0.0,0.0,-2.916,0.0,0.0,-3.0003,-3.0258,0.0,-3.2138,-3.2509,0.0,-3.3606,-3.3738,-3.3865,-3.4391,-3.4246,0.0,-3.4411,0.0,0.0,-3.3738,-3.3254,-3.3016,-3.3016,-3.283,-3.2669,-3.2669,-3.2669,-3.2669,-3.2669,0.0,0.0,0.0,0.0,-3.2669,0.0,-3.3392,-3.4864,-3.6748,-3.7428,0.0,0.0,-4.0607,-4.1395,-4.2344,-4.2694,-4.2862,-4.2974,-4.2974,-4.2974,-4.2974,-4.2974,-4.2974,-4.2974,-4.2974,-4.2974,-4.2974,-4.2974,-4.2974,-4.2974,-4.2974,-4.2974,-4.2974,-4.2974,-4.2974,-4.2974,-4.2974,-4.2974,-4.2974,-4.2974,-4.2974,-4.2873,-4.2627,-4.2057,-4.1593,-4.1279,-4.1028,-4.0676,0.0,-4.0061,0.0,-3.9722,-3.9697,-3.9697,-3.9697,-3.9697,-3.9697,0.0,0.0,-3.9697,-3.9697,-4.0526,-4.1037,-4.1288,-4.2183,-4.2791,-4.2974,-4.2974,-4.2974,-4.2974,-4.2974,-4.2974,-4.2974,-4.2974,-4.2974,-4.2974,-4.2974,-4.2974,-4.2974,-4.2974,-4.2974,-4.303,-4.353,-4.3776,-4.401,0.0,0.0,0.0,0.0,0.0,0.0,0.0,-3.0947,0.0,-3.2611,0.0,-3.3579,-3.4054,-3.4155,-3.4341,-3.4807,0.0,-3.4414,-3.4878,-3.4474,-3.4214,-3.4214,-3.372,-3.3461,-3.3461,-3.3099,-3.2871,-3.282,-3.282,-3.2789,-3.2669,0.0,0.0,0.0,0.0,0.0,0.0,-3.368,-3.4848,-3.6355,-3.6828,-3.7967,-3.937,-4.022,-4.1136,-4.1992,-4.2356,-4.2694,-4.2974,-4.2974,-4.2974,-4.2974,-4.2974,-4.2974,-4.2974,-4.2974,-4.2974,-4.2974,-4.2974,-4.2974,-4.2974,-4.2974,-4.2974,-4.2974,-4.2974,-4.2974,-4.2974,-4.2974,-4.2974,-4.2974,-4.2974,-4.2974,-4.2974,-4.2974,-4.2627,-4.2288,-4.2213,-4.1743,-4.1241,-4.0689,0.0,0.0,0.0,0.0,0.0,-3.9697,-3.9697,0.0,0.0,0.0,-3.9722,-3.9798,-4.0337,-4.089,-4.1388,-4.1995,-4.2552,-4.2974,-4.2974,-4.2974,-4.2974,-4.2974,-4.2974,-4.2974,-4.2974,-4.2974,-4.2974,-4.2974,-4.2974,-4.2974,-4.2974,-4.2974,-4.303,-4.3283,-4.3585,-4.3887,0.0,0.0,0.0,0.0,0.0,-3.0897,-3.1651,-3.1452,-3.1678,-3.2892,-3.3124,-3.3466,-3.4156,-3.4268,-3.4564,-3.5201,-3.5231,0.0,0.0,0.0,0.0,-3.4702,-3.4256,-3.4007,-3.4007,-3.3875,-3.3648,-3.3265,-3.3265,-3.3078,-3.2669,0.0,0.0,0.0,0.0,0.0,-3.4198,-3.4728,0.0,-3.6232,-3.6746,-3.7582,-3.8546,-3.9251,-4.0281,-4.1378,-4.1972,-4.2538,-4.2974,-4.2974,-4.2974,-4.2974,-4.2974,-4.2974,-4.2974,-4.2974,-4.2974,-4.2974,-4.2974,-4.2974,-4.2974,-4.2974,-4.2974,-4.2974,-4.2974,-4.2974,-4.2974,-4.2974,-4.2974,-4.2974,-4.2974,-4.2974,-4.2974,-4.2974,-4.2898,-4.2728,-4.2275,-4.2125,-4.1806,-4.1213,-4.1137,-4.0924,0.0,0.0,0.0,0.0,0.0,0.0,0.0,0.0,-3.9898,0.0,-4.0862,-4.1455,0.0,0.0,-4.2942,-4.2974,-4.2974,-4.2974,-4.2974,-4.2974,-4.2974,-4.2974,-4.2974,-4.2974,-4.2974,-4.2974,-4.2974,-4.2974,-4.2974,-4.2974,-4.303,-4.3283,-4.3449,-4.3572,0.0,0.0,0.0,0.0,0.0,0.0,0.0,-3.2243,-3.2434,-3.3336,-3.3457,-3.3679,-3.4308,-3.4359,-3.4501,-3.4839,-3.4859,-3.4859,-3.4859,-3.4728,-3.4605,-3.4605,-3.4177,-3.4002,-3.4183,-3.3947,-3.384,-3.3731,-3.3731,-3.3627,-3.343,-3.343,0.0,0.0,0.0,-3.4108,0.0,0.0,0.0,-3.6032,-3.6316,-3.6939,-3.7894,-3.8752,-3.9802,-4.0976,-4.1814,-4.2494,-4.2974,-4.2974,-4.2974,-4.2974,-4.2974,-4.2974,-4.2974,-4.2974,-4.2974,-4.2974,-4.2974,-4.2974,-4.2974,-4.2974,-4.2974,-4.2974,-4.2974,-4.2974,-4.2974,-4.2974,-4.2974,-4.2974,-4.2974,-4.2974,-4.2974,-4.2974,-4.2974,-4.2886,-4.2678,-4.264,-4.2371,-4.1819,-4.1769,-4.1543,-4.099,0.0,0.0,0.0,0.0,-3.9697,-3.9697,0.0,-4.0237,0.0,0.0,0.0,-4.2213,0.0,-4.2974,-4.2974,-4.2974,-4.2974,-4.2974,-4.2974,-4.2974,-4.2974,-4.2974,-4.2974,-4.2974,-4.2974,-4.2974,-4.2974,-4.2974,-4.2974,-4.303,-4.3129,-4.3184,-4.3295,0.0,-3.165,0.0,0.0,-3.2246,0.0,-3.2861,-3.3008,-3.3254,-3.3813,-3.3875,-3.4035,-3.4528,-3.4579,-3.4579,-3.4705,-3.4705,-3.4705,-3.4705,-3.4614,-3.4564,-3.4564,-3.4151,-3.4033,-3.435,-3.3933,-3.389,-3.4157,-3.4157,-3.4106,-3.4132,-3.4132,0.0,0.0,0.0,0.0,0.0,0.0,-3.5291,-3.5798,-3.5798,-3.6351,-3.7325,-3.8205,-3.9439,-4.0733,-4.1675,-4.2425,-4.2974,-4.2974,-4.2974,-4.2974,-4.2974,-4.2974,-4.2974,-4.2974,-4.2974,-4.2974,-4.2974,-4.2974,-4.2974,-4.2974,-4.2974,-4.2974,-4.2974,-4.2974,-4.2974,-4.2974,-4.2974,-4.2974,-4.2974,-4.2974,-4.2974,-4.2974,-4.2974,-4.2974,-4.2974,-4.2974,-4.2811,-4.2439,-4.2389,-4.212,-4.1568,0.0,0.0,0.0,0.0,-4.0049,-4.0049,-4.0463,-4.0739,0.0,0.0,-4.2263,-4.2389,0.0,-4.2974,-4.2974,-4.2974,-4.2974,-4.2974,-4.2974,-4.2974,-4.2974,-4.2974,-4.2974,-4.2974,-4.2974,-4.2974,-4.2974,-4.2974,-4.2974,-4.2974,-4.2974,-4.2974,-4.3098,0.0,0.0,0.0,0.0,0.0,0.0,-3.3301,-3.3691,-3.4019,-3.4083,-3.4083,-3.4369,-3.5052,-3.5101,-3.5221,-3.5545,-3.5545,-3.5545,-3.5545,-3.5248,-3.5027,-3.5027,-3.4604,-3.4363,-3.4363,-3.4322,-3.4297,-3.4268,-3.4268,-3.4235,-3.4132,-3.4132,0.0,0.0,0.0,0.0,-3.5355,-3.5355,-3.5387,-3.5418,-3.5418,-3.586,-3.6606,-3.7555,-3.8896,-4.035,-4.1308,-4.2231,-4.2974,-4.2974,-4.2974,-4.2974,-4.2974,-4.2974,-4.2974,-4.2974,-4.2974,-4.2974,-4.2974,-4.2974,-4.2974,-4.2974,-4.2974,-4.2974,-4.2974,-4.2974,-4.2974,-4.2974,-4.2974,-4.2974,-4.2974,-4.2974,-4.2974,-4.2974,-4.2974,-4.2974,-4.2974,-4.2974,-4.2961,-4.2898,-4.2898,-4.2685,-4.2187,-4.2137,0.0,0.0,-4.1125,-4.1125,-4.1125,-4.1175,-4.1492,-4.2037,-4.215,-4.2451,-4.2898,-4.2949,-4.2974,-4.2974,-4.2974,-4.2974,-4.2974,-4.2974,-4.2974,-4.2974,-4.2974,-4.2974,-4.2974,-4.2974,-4.2974,-4.2974,-4.2974,-4.2974,-4.2974,-4.2974,-4.2974,-4.303,0.0,0.0,0.0,0.0,0.0,0.0,0.0,-3.4336,-3.4551,-3.4834,-3.4619,-3.4577,-3.4874,-3.4894,-3.4959,-3.509,-3.509,-3.509,-3.509,-3.4932,-3.4833,-3.4833,-3.4418,-3.4318,-3.4509,-3.425,-3.4218,-3.4347,-3.4347,-3.4441,-3.4574,-3.4574,-3.4667,-3.4851,-3.4666,-3.4758,-3.5108,-3.5108,-3.5232,-3.5418,-3.5418,-3.5798,-3.6484,-3.7435,-3.8659,-4.0106,-4.1543,-4.2553,-4.3312,-4.3808,-4.374,-4.3476,-4.3476,-4.3702,-4.3966,-4.3966,-4.3966,-4.3966,-4.3966,-4.3966,-4.3966,-4.3966,-4.3966,-4.3966,-4.3966,-4.3714,-4.3476,-4.3476,-4.3212,-4.2974,-4.2974,-4.2974,-4.2974,-4.2974,-4.2974,-4.2974,-4.2974,-4.2974,-4.2974,-4.2974,-4.2974,-4.2942,-4.2728,-4.2703,0.0,0.0,0.0,-4.1288,-4.1288,-4.1643,-4.1932,-4.22,0.0,-4.2748,-4.2974,-4.2974,-4.2974,-4.2974,-4.2974,-4.2974,-4.2974,-4.2974,-4.2974,-4.2974,-4.2974,-4.2974,-4.2974,-4.2974,-4.2974,-4.2974,-4.2974,-4.2974,-4.2974,-4.2974,-4.2974,-4.2974,-3.3086,0.0,-3.3545,0.0,-3.4258,-3.4404,-3.4834,-3.4902,-3.5068,-3.5517,-3.5293,-3.5088,-3.5088,-3.5088,-3.5088,-3.5088,-3.5088,-3.5088,-3.5088,-3.4971,-3.4902,-3.4902,-3.4492,0.0,-3.4635,-3.4211,-3.411,-3.4425,-3.4295,-3.4423,-3.4735,-3.4735,-3.4735,-3.4735,-3.4485,-3.4548,-3.4735,-3.4859,-3.5046,-3.5232,-3.5356,-3.5737,-3.6372,-3.7345,-3.8526,-3.9893,-4.1555,-4.271,-4.3437,-4.4099,-4.4249,-4.4152,-4.4034,-4.4317,-4.4618,-4.4618,-4.4618,-4.4618,-4.4618,-4.4618,-4.4618,-4.4618,-4.4618,-4.4618,-4.4618,-4.4317,-4.4003,-4.3827,-4.3489,-4.3175,-4.3011,-4.2974,-4.2974,-4.2974,-4.2974,-4.2974,-4.2974,-4.2974,-4.2974,-4.2974,-4.2974,-4.2974,-4.2974,-4.2974,0.0,0.0,0.0,-4.1819,-4.1819,-4.2183,-4.2451,0.0,0.0,0.0,-4.2974,-4.2974,-4.2974,-4.2974,-4.2974,-4.2974,-4.2974,-4.2974,-4.2974,-4.2974,-4.2974,-4.2974,-4.2974,-4.2974,-4.2974,-4.2974,-4.2974,-4.2974,-4.2974,-4.2974,-4.2974,-4.2974,-3.3975,-3.4394,-3.4678,-3.4687,-3.4687,-3.4853,-3.5312,-3.5391,-3.5537,-3.5957,-3.6006,-3.6006,-3.6006,-3.6006,-3.6006,-3.6006,-3.6006,-3.6006,-3.6006,-3.5615,-3.5391,0.0,0.0,-3.4687,-3.4687,-3.4277,-3.4255,-3.4576,-3.413,-3.411,-3.4423,-3.4423,-3.4423,-3.4423,-3.4423,-3.4423,-3.4423,-3.4735,-3.4922,-3.4922,-3.5294,-3.5613,-3.6025,-3.716,-3.8369,-3.9693,-4.1201,-4.2377,-4.3235,-4.3603,-4.4302,-4.4945,-4.4678,-4.4618,-4.4618,-4.4618,-4.4618,-4.4618,-4.4618,-4.4618,-4.4618,-4.4618,-4.4618,-4.4618,-4.4618,-4.4618,-4.4455,-4.3915,-4.379,-4.3627,-4.3074,-4.2974,-4.2974,-4.2974,-4.2974,-4.2974,-4.2974,-4.2974,-4.2974,-4.2974,-4.2974,-4.2974,-4.2974,-4.2974,0.0,0.0,0.0,0.0,0.0,0.0,0.0,-4.2974,-4.2974,0.0,-4.2974,-4.2974,-4.2974,-4.2974,-4.2974,-4.2974,-4.2974,-4.2974,-4.2974,-4.2974,-4.2974,-4.2974,-4.2974,-4.2974,-4.2974,-4.2974,-4.2974,-4.2974,-4.2974,-4.2974,-4.2974,-4.2974,-3.4473,-3.4609,-3.4795,-3.5117,-3.5176,-3.5322,-3.5752,-3.582,-3.5869,-3.6006,-3.6016,-3.6016,-3.6016,-3.6016,-3.6016,0.0,-3.6016,-3.6016,0.0,-3.5898,-3.582,-3.582,-3.54,-3.5176,-3.5176,-3.4726,-3.4567,-3.4687,-3.4265,-3.4029,-3.4047,-3.4047,-3.4047,-3.4047,-3.3796,-3.3859,-3.411,-3.4423,-3.4855,-3.5381,-3.5768,-3.6269,-3.6887,-3.7518,-3.8377,-3.9562,-4.079,-4.1715,-4.2522,-4.3441,-4.411,-4.4585,-4.4947,-4.539,-4.5773,-4.5773,-4.5773,-4.5773,-4.5773,-4.5773,-4.5773,-4.5773,-4.5773,-4.5773,-4.5773,-4.5485,-4.5045,-4.448,-4.4066,-4.374,-4.3576,-4.3237,-4.2974,-4.2974,-4.2974,-4.2974,-4.2974,-4.2974,-4.2974,-4.2974,-4.2974,-4.2974,-4.2974,-4.2974,0.0,0.0,0.0,0.0,0.0,0.0,0.0,0.0,-4.2974,0.0,-4.2974,-4.2974,-4.2974,-4.2974,-4.2974,-4.2974,-4.2974,-4.2974,-4.2974,-4.2974,-4.2974,-4.2974,-4.2974,-4.2974,-4.2974,-4.2974,-4.2974,-4.2974,-4.2974,-4.2974,-4.2974,-4.2974,-3.4961,-3.5088,-3.5283,-3.5576,-3.5625,-3.5723,-3.5976,-3.6016,-3.6016,-3.6016,-3.6016,-3.6016,-3.6016,-3.6016,0.0,-3.6016,-3.6016,-3.6016,-3.6016,-3.6016,-3.6016,-3.6016,-3.5771,-3.5625,-3.5625,-3.5185,-3.4961,-3.4961,-3.4521,-3.4299,-3.4216,-3.4216,-3.4216,-3.4216,-3.396,-3.4024,-3.4216,-3.4736,-3.5214,-3.5733,-3.6052,-3.6482,-3.6954,-3.7495,-3.8189,-3.9006,-4.024,-4.1054,-4.1668,-4.2695,-4.324,-4.3666,-4.436,-4.4988,-4.5623,-4.612,-4.6313,-4.6313,-4.6313,-4.6313,-4.6313,-4.6313,-4.6313,-4.6313,-4.6313,-4.605,-4.5635,-4.507,-4.4669,-4.4305,-4.3878,-4.3526,-4.3212,-4.3011,-4.2974,-4.2974,-4.2974,-4.2974,-4.2974,-4.2974,-4.2974,-4.2974,-4.2974,-4.2974,-4.2974,0.0,0.0,0.0,0.0,0.0,-4.2974,-4.2974,-4.2974,-4.2974,-4.2974,-4.2974,-4.2974,-4.2974,-4.2974,-4.2974,-4.2974,-4.2974,-4.2974,-4.2974,-4.2974,-4.2974,-4.2974,-4.2974,-4.2974,-4.2974,-4.2974,-4.2974,-4.2974,-4.2974,-4.2974,-4.2974,-3.5439,-3.5752,-3.6016,-3.6016,-3.6016,-3.6035,-3.6064,-3.6035,-3.6035,-3.6064,-3.6035,-3.6016,-3.6016,-3.6016,-3.6016,-3.6016,0.0,0.0,-3.6016,-3.6016,-3.6016,-3.6016,-3.6016,-3.6016,-3.6016,-3.5635,-3.542,-3.5391,-3.4961,-3.4726,-3.4697,-3.4697,-3.4697,-3.4697,-3.4697,-3.4697,-3.4763,-3.5436,-3.5781,-3.5811,-3.62,-3.635,-3.6422,-3.7178,-3.7725,-3.8213,-3.9563,-4.0312,-4.0777,-4.141,-4.1922,-4.2293,-4.3,-4.3689,-4.4484,-4.5805,-4.624,-4.6253,-4.6253,-4.6313,-4.6313,-4.6313,-4.6313,-4.6313,-4.6313,-4.6313,-4.6163,-4.5648,-4.551,-4.5171,-4.4116,-4.3853,-4.3639,-4.3124,-4.2999,-4.2974,-4.2974,-4.2974,-4.2974,-4.2974,-4.2974,-4.2974,-4.2974,-4.2974,-4.2974,0.0,0.0,0.0,0.0,0.0,-4.2974,-4.2974,-4.2974,-4.2974,-4.2974,-4.2974,-4.2974,-4.2974,-4.2974,-4.2974,-4.2974,-4.2974,-4.2974,-4.2974,-4.2974,-4.2974,-4.2974,-4.2974,-4.2974,-4.2974,-4.2974,-4.2974,-4.2974,-4.2974,-4.2974,-4.2974,0.0,0.0,-3.6016,-3.6016,-3.6016,-3.6133,-3.6465,-3.623,-3.6142,-3.6475,-3.623,-3.6016,-3.6016,-3.6016,-3.6016,-3.6016,-3.6016,-3.6016,-3.6016,-3.6016,-3.6016,-3.6016,-3.6016,-3.6016,-3.6016,-3.5928,-3.5713,-3.5391,-3.5283,-3.5049,-3.4697,-3.4697,-3.4697,-3.4697,-3.4697,-3.4697,-3.4697,-3.5155,-3.555,-3.5924,-3.6254,-3.6597,-3.691,-3.7088,-3.7606,-3.8225,-3.8528,-3.9088,-3.967,-4.004,-4.0625,-4.1282,-4.1922,-4.261,-4.3416,-4.4792,-4.5501,-4.5951,-4.5951,-4.6132,-4.6313,-4.6313,-4.6313,-4.6313,-4.6313,-4.6313,-4.6276,-4.615,-4.5786,-4.5409,-4.5146,-4.438,-4.3765,-4.3627,-4.325,-4.2974,-4.2974,-4.2974,-4.2974,-4.2974,-4.2974,-4.2974,-4.2974,-4.2974,-4.2974,-4.2974,0.0,-4.2974,-4.2974,-4.2974,-4.2974,-4.2974,-4.2974,-4.2974,-4.2974,-4.2974,-4.2974,-4.2974,-4.2974,-4.2974,-4.2974,-4.2974,-4.2974,-4.2974,-4.2974,-4.2974,-4.2974,-4.2974,-4.2974,-4.2974,-4.2974,-4.2974,-4.2974,-4.2974,-4.2974,-4.2974,-3.6279,-3.6318,-3.6377,-3.6572,-3.6601,-3.668,-3.6924,-3.6758,-3.6689,-3.6924,-3.6748,-3.6533,-3.6338,-3.6318,-3.624,-3.6035,-3.6016,-3.6016,-3.6016,-3.6016,-3.6016,-3.6016,-3.6016,-3.6016,-3.6016,-3.6016,-3.5908,-3.5674,-3.5674,-3.5547,-3.5303,-3.5303,-3.5303,-3.5303,-3.5303,-3.5303,-3.5303,-3.5682,-3.5954,-3.6172,-3.6373,-3.6579,-3.6799,-3.6799,-3.7069,-3.7492,-3.7827,-3.816,-3.8549,-3.9067,-3.9528,-3.9986,-4.0625,-4.1206,-4.1836,-4.2914,-4.4113,-4.5184,-4.5489,-4.5805,-4.612,-4.6253,-4.6313,-4.6313,-4.6313,-4.6313,-4.6313,-4.6313,-4.6075,-4.5786,-4.5535,-4.4982,-4.4405,-4.3878,-4.3551,-4.3263,-4.3011,-4.2974,-4.2974,-4.2974,-4.2974,-4.2974,-4.2974,-4.2974,-4.2974,-4.2974,-4.2974,0.0,-4.2974,-4.2974,-4.2974,-4.2974,-4.2974,-4.2974,-4.2974,-4.2974,-4.2974,-4.2974,-4.2974,-4.2974,-4.2974,-4.2974,-4.2974,-4.2974,-4.2974,-4.2974,-4.2974,-4.2974,-4.2974,-4.2974,-4.2974,-4.2974,-4.2974,-4.2974,-4.2974,-4.2974,-3.6601,-3.6719,-3.6875,-3.7236,-3.7295,-3.7324,-3.7383,-3.7334,-3.7324,-3.7383,-3.7334,-3.7158,-3.6807,-3.6709,-3.6523,-3.6152,-3.6055,-3.6016,-3.6016,-3.6016,-3.6016,-3.6016,-3.6016,-3.6016,-3.6016,-3.6016,-3.6016,-3.6016,-3.6016,-3.6016,-3.6016,-3.6016,-3.6016,-3.6016,-3.6016,-3.6016,-3.6025,-3.6336,-3.6451,-3.6451,-3.6451,-3.6451,-3.6451,-3.6451,-3.6451,-3.6586,-3.7203,-3.7482,-3.7683,-3.835,-3.8615,-3.8803,-3.9386,-3.979,-4.0181,-4.0917,-4.2495,-4.4113,-4.4915,-4.5489,-4.5939,-4.6253,-4.6313,-4.6313,-4.6313,-4.6313,-4.6313,-4.6313,-4.6313,-4.6175,-4.5698,-4.5547,-4.5171,-4.4217,-4.3915,-4.3639,-4.3162,-4.3024,-4.2974,-4.2974,-4.2974,-4.2974,-4.2974,-4.2974,-4.2974,-4.2974,-4.2974,-4.2974,-4.2974,-4.2974,-4.2974,-4.2974,-4.2974,-4.2974,-4.2974,-4.3062,-4.3099,-4.3099,-4.3099,-4.3099,-4.3099,-4.3024,-4.2974,-4.2974,-4.2974,-4.2974,-4.2974,-4.2974,-4.2974,-4.2974,-4.2974,-4.2974,-4.2974,-4.2974,-4.2974,-4.2974,-3.666,-3.6953,-3.7226,-3.7285,-3.7295,-3.7412,-3.7773,-3.7529,-3.7422,-3.7783,-3.7519,-3.7275,-3.7207,-3.6885,-3.6641,-3.6572,-3.623,-3.6016,-3.6016,-3.6016,-3.6016,-3.6016,-3.6016,-3.6016,-3.6016,-3.6016,-3.6016,-3.6016,-3.6016,-3.6016,-3.6016,-3.6016,-3.6016,-3.6016,-3.6016,-3.6016,-3.6016,-3.6084,-3.6084,-3.6084,-3.6084,-3.6084,-3.6084,-3.6084,-3.6268,-3.6509,-3.6654,-3.7069,-3.7616,-3.775,-3.815,-3.8747,-3.8803,-3.9078,-3.9483,-4.0203,-4.1293,-4.2546,-4.4051,-4.5306,-4.624,-4.6313,-4.6313,-4.6313,-4.6313,-4.6313,-4.6313,-4.6313,-4.6313,-4.6288,-4.62,-4.5799,-4.5434,-4.5246,-4.443,-4.3765,-4.3689,-4.3275,-4.2974,-4.2974,-4.2974,-4.2974,-4.2974,-4.2974,-4.2974,-4.2974,-4.2974,-4.2974,-4.2974,-4.2974,-4.2974,-4.2974,-4.2974,-4.2974,-4.2974,-4.3438,-4.3677,-4.3677,-4.3677,-4.3677,-4.3664,-4.3187,-4.2974,-4.2974,-4.2974,-4.2974,-4.2974,-4.2974,-4.2974,-4.2974,-4.2974,-4.2974,-4.2974,-4.2974,-4.2974,-4.2974,-3.7256,-3.75,-3.7705,-3.7949,-3.7988,-3.8047,-3.8242,-3.8105,-3.8057,-3.8252,-3.8105,-3.7891,-3.7666,-3.7256,-3.6914,-3.6689,-3.6269,-3.6016,-3.6016,-3.6016,-3.6016,-3.6016,-3.6016,-3.6016,-3.6016,-3.6016,-3.6016,-3.6016,-3.6016,-3.6016,-3.6016,-3.6016,-3.6016,-3.6016,-3.6016,-3.6016,-3.6016,-3.6016,-3.6016,-3.6016,-3.6016,-3.6016,-3.6016,-3.6016,-3.6074,-3.6268,-3.6451,-3.6722,-3.7069,-3.7482,-3.7816,-3.815,-3.836,-3.857,-3.8835,-3.9483,-4.1206,-4.3177,-4.4496,-4.5562,-4.6313,-4.6313,-4.6313,-4.6313,-4.6313,-4.6313,-4.6313,-4.6313,-4.6313,-4.6313,-4.6313,-4.61,-4.5836,-4.5535,-4.5045,-4.4593,-4.4292,-4.3765,-4.3426,-4.3426,-4.3162,-4.2974,-4.2974,-4.2974,-4.2974,-4.2974,-4.2974,-4.2974,-4.2974,-4.3263,-4.3426,-4.3426,-4.3426,-4.3426,-4.3426,-4.3966,-4.4242,-4.4242,-4.4242,-4.4242,-4.4229,-4.3677,-4.3426,-4.3401,-4.3112,-4.2974,-4.2974,-4.2974,-4.2974,-4.2974,-4.2974,-4.2974,-4.2974,-4.2974,-4.2974,-4.2974,-3.7803,-3.8008,-3.8184,-3.8516,-3.8574,-3.8574,-3.8574,-3.8574,-3.8574,-3.8574,-3.8574,-3.8447,-3.8115,-3.7607,-3.7168,-3.6846,-3.6328,-3.6016,-3.6016,-3.6016,-3.6016,-3.6016,-3.6016,-3.6016,-3.6016,-3.6016,-3.6016,-3.6016,-3.6016,-3.6016,-3.6016,-3.6016,-3.6016,-3.6016,-3.6016,-3.6016,-3.6016,-3.6016,-3.6016,-3.6016,-3.6016,-3.6016,-3.6016,-3.6016,-3.6016,-3.6016,-3.6268,-3.6451,-3.6586,-3.7136,-3.7415,-3.7549,-3.7971,-3.8048,-3.8237,-3.8956,-4.1259,-4.3802,-4.5012,-4.5757,-4.6313,-4.6313,-4.6313,-4.6313,-4.6313,-4.6313,-4.6313,-4.6313,-4.6313,-4.6313,-4.6313,-4.6313,-4.6175,-4.5748,-4.5573,-4.5334,-4.4882,-4.4342,-4.3991,-4.3991,-4.3614,-4.3363,-4.3363,-4.3363,-4.3363,-4.3363,-4.3363,-4.3363,-4.3363,-4.3765,-4.3991,-4.3991,-4.3991,-4.3991,-4.3991,-4.4543,-4.4819,-4.4819,-4.4819,-4.4819,-4.4794,-4.4116,-4.3802,-4.3765,-4.3212,-4.2974,-4.2974,-4.2974,-4.2974,-4.2974,-4.2974,-4.2974,-4.2974,-4.2974,-4.2974,-4.2974,-3.791,-3.8252,-3.8535,-3.8564,-3.8574,-3.8574,-3.8574,-3.8574,-3.8574,-3.8574,-3.8574,-3.8564,-3.8525,-3.7793,-3.7285,-3.7256,-3.6494,-3.6016,-3.6016,-3.6016,-3.6016,-3.6016,-3.6016,-3.6016,-3.6016,-3.6016,-3.6016,-3.6016,-3.6016,-3.6016,-3.6016,-3.6016,-3.6016,-3.6016,-3.6016,-3.6016,-3.6016,-3.6016,-3.6016,-3.6016,-3.6016,-3.6016,-3.6016,-3.6016,-3.6016,-3.6016,-3.6016,-3.6268,-3.6519,-3.6586,-3.6799,-3.7213,-3.7549,-3.7616,-3.7816,-3.888,-4.0937,-4.3228,-4.489,-4.5757,-4.6313,-4.6313,-4.6313,-4.6313,-4.6313,-4.6313,-4.6313,-4.6313,-4.6313,-4.6313,-4.6313,-4.6313,-4.6301,-4.625,-4.5824,-4.5472,-4.5434,-4.4932,-4.4568,-4.4568,-4.4531,-4.4505,-4.4505,-4.4505,-4.4505,-4.4505,-4.4505,-4.4505,-4.4505,-4.4543,-4.4568,-4.4568,-4.4568,-4.4568,-4.4568,-4.5133,-4.5422,-4.5422,-4.5422,-4.5422,-4.5384,-4.4292,-4.3802,-4.3765,-4.3212,-4.2974,-4.2974,-4.2974,-4.2974,-4.2974,-4.2974,-4.2974,-4.2974,-4.2974,-4.2974,-4.2974,-3.8271,-3.8467,-3.8574,-3.8574,-3.8574,-3.8574,-3.8574,-3.8574,-3.8574,-3.8574,-3.8574,-3.8476,-3.8203,-3.7646,-3.7197,-3.6934,-3.6367,-3.6016,-3.6016,-3.6016,-3.6016,-3.6016,-3.6016,-3.6016,-3.6016,-3.6016,-3.6016,-3.6016,-3.6016,-3.6016,-3.6016,-3.6016,-3.6016,-3.6016,-3.6016,-3.6016,-3.6016,-3.6016,-3.6016,-3.6016,-3.6016,-3.6016,-3.6016,-3.6016,-3.6016,-3.6016,-3.6016,-3.6074,-3.62,-3.6451,-3.6586,-3.6799,-3.7146,-3.728,-3.7606,-3.9309,-4.1237,-4.3091,-4.4607,-4.5501,-4.6072,-4.6253,-4.6313,-4.6313,-4.6313,-4.6313,-4.6313,-4.6313,-4.6313,-4.6313,-4.6313,-4.6313,-4.6313,-4.6313,-4.6137,-4.5999,-4.5999,-4.551,-4.5158,-4.5158,-4.4844,-4.4618,-4.4618,-4.4618,-4.4618,-4.4618,-4.4618,-4.4618,-4.4618,-4.4957,-4.5321,-4.566,-4.5673,-4.5497,-4.5158,-4.5723,-4.5999,-4.5999,-4.5999,-4.5999,-4.5974,-4.5196,-4.4644,-4.4279,-4.3727,-4.3288,-4.2974,-4.2974,-4.2974,-4.2974,-4.2974,-4.2974,-4.2974,-4.2974,-4.2974,-4.2974,-3.8516,-3.8574,-3.8574,-3.8574,-3.8574,-3.8574,-3.8574,-3.8574,-3.8525,-3.8389,-3.8369,-3.8203,-3.7773,-3.7353,-3.6982,-3.6689,-3.6269,-3.6016,-3.6016,-3.6016,-3.6016,-3.6016,-3.6016,-3.6016,-3.6016,-3.6016,-3.6016,-3.6016,-3.6016,-3.6016,-3.6016,-3.6016,-3.6016,-3.6016,-3.6016,-3.6016,-3.6016,-3.6016,-3.6016,-3.6016,-3.6016,-3.6016,-3.6016,-3.6016,-3.6016,-3.6016,-3.6016,-3.6016,-3.6016,-3.6268,-3.6326,-3.6393,-3.6799,-3.7146,-3.775,-3.9441,-4.1066,-4.2598,-4.3977,-4.4865,-4.5623,-4.618,-4.6313,-4.6313,-4.6313,-4.6313,-4.6313,-4.6313,-4.6313,-4.6313,-4.6313,-4.6313,-4.6313,-4.6313,-4.6313,-4.6313,-4.6313,-4.5987,-4.5748,-4.5748,-4.5397,-4.5158,-4.5158,-4.5158,-4.5158,-4.5158,-4.5158,-4.5158,-4.5158,-4.5535,-4.5912,-4.6301,-4.6313,-4.6125,-4.5748,-4.6125,-4.6313,-4.6313,-4.6313,-4.6313,-4.6288,-4.5736,-4.5271,-4.4844,-4.4116,-4.3589,-4.3225,-4.3049,-4.2974,-4.2974,-4.2974,-4.2974,-4.2974,-4.2974,-4.2974,-4.2974,-3.8574,-3.8574,-3.8574,-3.8574,-3.8574,-3.8574,-3.8574,-3.8564,-3.8418,-3.7978,-3.792,-3.7754,-3.7334,-3.6924,-3.667,-3.666,-3.6269,-3.6016,-3.6016,-3.6016,-3.6016,-3.6016,-3.6016,-3.6016,-3.6016,-3.6016,-3.6016,-3.6016,-3.6016,-3.6016,-3.6016,-3.6016,-3.6016,-3.6016,-3.6016,-3.6016,-3.6016,-3.6016,-3.6016,-3.6016,-3.6016,-3.6016,-3.6016,-3.6016,-3.6016,-3.6016,-3.6016,-3.6016,-3.6016,-3.6016,-3.6016,-3.6084,-3.6393,-3.728,-3.8314,-3.9022,-4.0203,-4.1625,-4.2937,-4.4051,-4.5049,-4.6059,-4.6313,-4.6313,-4.6313,-4.6313,-4.6313,-4.6313,-4.6313,-4.6313,-4.6313,-4.6313,-4.6313,-4.6313,-4.6313,-4.6313,-4.6313,-4.6313,-4.6313,-4.6313,-4.6313,-4.6313,-4.6313,-4.6313,-4.6313,-4.6313,-4.6313,-4.6313,-4.6313,-4.6313,-4.6313,-4.6313,-4.6313,-4.6313,-4.6313,-4.6313,-4.6313,-4.6313,-4.6313,-4.6313,-4.6288,-4.5748,-4.5485,-4.5434,-4.4292,-4.3815,-4.3765,-4.3212,-4.2974,-4.2974,-4.2974,-4.2974,-4.2974,-4.2974,-4.2974,-4.2974,-3.8574,-3.8574,-3.8574,-3.8574,-3.8574,-3.8476,-3.8164,-3.8115,-3.7969,-3.7539,-3.749,-3.7324,-3.6904,-3.6748,-3.6553,-3.624,-3.6094,-3.6016,-3.6016,-3.6016,-3.6016,-3.6016,-3.6016,-3.6016,-3.6016,-3.6016,-3.6016,-3.6016,-3.6016,-3.6016,-3.6016,-3.6016,-3.6016,-3.6016,-3.6016,-3.6016,-3.6016,-3.6016,-3.6016,-3.6016,-3.6016,-3.6016,-3.6016,-3.6016,-3.6016,-3.6016,-3.6016,-3.6016,-3.6016,-3.6016,-3.6016,-3.6025,-3.6152,-3.6886,-3.7893,-3.8615,-3.9997,-4.1625,-4.2937,-4.3864,-4.4669,-4.5684,-4.6132,-4.6313,-4.6313,-4.6313,-4.6313,-4.6313,-4.6313,-4.6313,-4.6313,-4.6313,-4.6313,-4.6313,-4.6313,-4.6313,-4.6313,-4.6313,-4.6313,-4.6313,-4.6313,-4.6313,-4.6313,-4.6313,-4.6313,-4.6313,-4.6313,-4.6313,-4.6313,-4.6313,-4.6313,-4.6313,-4.6313,-4.6313,-4.6313,-4.6313,-4.6313,-4.6313,-4.6313,-4.6313,-4.6301,-4.6137,-4.5849,-4.5472,-4.5133,-4.4531,-4.379,-4.3627,-4.3325,-4.2974,-4.2974,-4.2974,-4.2974,-4.2974,-4.2974,-4.2974,-3.8574,-3.8437,-3.831,-3.831,-3.8174,-3.7978,-3.7715,-3.7676,-3.7529,-3.7109,-3.7051,-3.6885,-3.6465,-3.6406,-3.6309,-3.6045,-3.6016,-3.6016,-3.6016,-3.6016,-3.6016,-3.6016,-3.6016,-3.6016,-3.6016,-3.6016,-3.6016,-3.6016,-3.6016,-3.6016,-3.6016,-3.6016,-3.6016,-3.6016,-3.6016,-3.6016,-3.6016,-3.6016,-3.6016,-3.6016,-3.6016,-3.6016,-3.6016,-3.6016,-3.6016,-3.6016,-3.6016,-3.6016,-3.6016,-3.6016,-3.6016,-3.6016,-3.6016,-3.6549,-3.7337,-3.8083,-3.9331,-4.0712,-4.1986,-4.2988,-4.3876,-4.4631,-4.544,-4.6132,-4.6253,-4.6313,-4.6313,-4.6313,-4.6313,-4.6313,-4.6313,-4.6313,-4.6313,-4.6313,-4.6313,-4.6313,-4.6313,-4.6313,-4.6313,-4.6313,-4.6313,-4.6313,-4.6313,-4.6313,-4.6313,-4.6313,-4.6313,-4.6313,-4.6313,-4.6313,-4.6313,-4.6313,-4.6313,-4.6313,-4.6313,-4.6313,-4.6313,-4.6313,-4.6313,-4.6313,-4.6313,-4.6313,-4.6125,-4.5799,-4.5585,-4.497,-4.4104,-4.389,-4.3476,-4.2974,-4.2974,-4.2974,-4.2974,-4.2974,-4.2974,-4.2974,-3.8457,-3.8144,-3.7871,-3.7871,-3.7549,-3.7285,-3.7246,-3.7246,-3.709,-3.667,-3.6611,-3.6465,-3.6064,-3.6016,-3.6016,-3.6016,-3.6016,-3.6016,-3.6016,-3.6016,-3.6016,-3.6016,-3.6016,-3.6016,-3.6016,-3.6016,-3.6016,-3.6016,-3.6016,-3.6016,-3.6016,-3.6016,-3.6016,-3.6016,-3.6016,-3.6016,-3.6016,-3.6016,-3.6016,-3.6016,-3.6016,-3.6016,-3.6016,-3.6016,-3.6016,-3.6016,-3.6016,-3.6016,-3.6016,-3.6016,-3.6016,-3.6016,-3.6016,-3.62,-3.6654,-3.7348,-3.8283,-3.9407,-4.0442,-4.1667,-4.2759,-4.3137,-4.4385,-4.5696,-4.612,-4.624,-4.6253,-4.6301,-4.6313,-4.6313,-4.6313,-4.6313,-4.6313,-4.6313,-4.6313,-4.6313,-4.6313,-4.6313,-4.6313,-4.6313,-4.6313,-4.6313,-4.6313,-4.6313,-4.6313,-4.6313,-4.6313,-4.6313,-4.6313,-4.6313,-4.6313,-4.6313,-4.6313,-4.6313,-4.6313,-4.6313,-4.6313,-4.6313,-4.6313,-4.6313,-4.6313,-4.6313,-4.6313,-4.6288,-4.5773,-4.5234,-4.4656,-4.4104,-4.3551,-4.3049,-4.2999,-4.2974,-4.2974,-4.2974,-4.2974,-4.2974,-3.7578,-3.75,-3.7432,-3.7432,-3.7363,-3.7187,-3.6855,-3.6807,-3.665,-3.6221,-3.6162,-3.6123,-3.6035,-3.6016,-3.6016,-3.6016,-3.6016,-3.6016,-3.6016,-3.6016,-3.6016,-3.6016,-3.6016,-3.6016,-3.6016,-3.6016,-3.6016,-3.6016,-3.6016,-3.6016,-3.6016,-3.6016,-3.6016,-3.6016,-3.6016,-3.6016,-3.6016,-3.6016,-3.6016,-3.6016,-3.6016,-3.6016,-3.6016,-3.6016,-3.6016,-3.6016,-3.6016,-3.6016,-3.6016,-3.6016,-3.6016,-3.6016,-3.6016,-3.62,-3.6586,-3.7079,-3.795,-3.8935,-3.9713,-4.0766,-4.1753,-4.2368,-4.3177,-4.4125,-4.5294,-4.5744,-4.5999,-4.6253,-4.6313,-4.6313,-4.6313,-4.6313,-4.6313,-4.6313,-4.6313,-4.6313,-4.6313,-4.6313,-4.6313,-4.6313,-4.6313,-4.6313,-4.6313,-4.6313,-4.6313,-4.6313,-4.6313,-4.6313,-4.6313,-4.6313,-4.6313,-4.6313,-4.6313,-4.6313,-4.6313,-4.6313,-4.6313,-4.6313,-4.6313,-4.6313,-4.6313,-4.6313,-4.6313,-4.6301,-4.6188,-4.5811,-4.5259,-4.4681,-4.4116,-4.3576,-4.315,-4.2974,-4.2974,-4.2974,-4.2974,-4.2974,-3.7295,-3.7139,-3.7002,-3.7002,-3.6826,-3.6611,-3.6396,-3.6367,-3.6279,-3.6045,-3.6016,-3.6016,-3.6016,-3.6016,-3.6016,-3.6016,-3.6016,-3.6016,-3.6016,-3.6016,-3.6016,-3.6016,-3.6016,-3.6016,-3.6016,-3.6016,-3.6016,-3.6016,-3.6016,-3.6016,-3.6016,-3.6016,-3.6016,-3.6016,-3.6016,-3.6016,-3.6016,-3.6016,-3.6016,-3.6016,-3.6016,-3.6016,-3.6016,-3.6016,-3.6016,-3.6016,-3.6016,-3.6016,-3.6016,-3.6016,-3.6016,-3.6016,-3.6016,-3.6142,-3.6336,-3.6732,-3.7337,-3.8083,-3.8814,-3.9604,-4.0453,-4.0937,-4.1719,-4.2748,-4.4237,-4.4988,-4.5367,-4.555,-4.5684,-4.5878,-4.5999,-4.6059,-4.612,-4.6253,-4.6313,-4.6313,-4.6313,-4.6313,-4.6313,-4.6313,-4.6313,-4.6313,-4.6313,-4.6313,-4.6313,-4.6313,-4.6313,-4.6313,-4.6313,-4.6313,-4.6313,-4.6313,-4.6313,-4.6313,-4.6313,-4.6313,-4.6313,-4.6313,-4.6313,-4.6313,-4.6313,-4.6313,-4.6313,-4.6313,-4.6313,-4.5999,-4.546,-4.5158,-4.4543,-4.3777,-4.3476,-4.3212,-4.2974,-4.2974,-4.2974,-4.2974,-3.708,-3.6797,-3.6562,-3.6562,-3.626,-3.6016,-3.6016,-3.6016,-3.6016,-3.6016,-3.6016,-3.6016,-3.6016,-3.6016,-3.6016,-3.6016,-3.6016,-3.6016,-3.6016,-3.6016,-3.6016,-3.6016,-3.6016,-3.6016,-3.6016,-3.6016,-3.6016,-3.6016,-3.6016,-3.6016,-3.6016,-3.6016,-3.6016,-3.6016,-3.6016,-3.6016,-3.6016,-3.6016,-3.6016,-3.6016,-3.6016,-3.6016,-3.6016,-3.6016,-3.6016,-3.6016,-3.6016,-3.6016,-3.6016,-3.6016,-3.6016,-3.6016,-3.6016,-3.6016,-3.6084,-3.6326,-3.6664,-3.7146,-3.776,-3.8426,-3.9012,-3.9331,-4.0181,-4.1293,-4.2799,-4.379,-4.4472,-4.4534,-4.4804,-4.5135,-4.5501,-4.5623,-4.5817,-4.6193,-4.6253,-4.6313,-4.6313,-4.6313,-4.6313,-4.6313,-4.6313,-4.6313,-4.6313,-4.6313,-4.6313,-4.6313,-4.6313,-4.6313,-4.6313,-4.6313,-4.6313,-4.6313,-4.6313,-4.6313,-4.6313,-4.6313,-4.6313,-4.6313,-4.6313,-4.6313,-4.6313,-4.6313,-4.6313,-4.6313,-4.6313,-4.605,-4.5623,-4.5535,-4.4932,-4.4079,-4.3978,-4.3601,-4.3112,-4.3011,-4.2974,-4.2974,-3.6191,-3.6152,-3.6103,-3.6103,-3.6064,-3.6016,-3.6016,-3.6016,-3.6016,-3.6016,-3.6016,-3.6016,-3.6016,-3.6016,-3.6016,-3.6016,-3.6016,-3.6016,-3.6016,-3.6016,-3.6016,-3.6016,-3.6016,-3.6016,-3.6016,-3.6016,-3.6016,-3.6016,-3.6016,-3.6016,-3.6016,-3.6016,-3.6016,-3.6016,-3.6016,-3.6016,-3.6016,-3.6016,-3.6016,-3.6016,-3.6016,-3.6016,-3.6016,-3.6016,-3.6016,-3.6016,-3.6016,-3.6016,-3.6016,-3.6016,-3.6016,-3.6016,-3.6016,-3.6016,-3.6016,-3.6084,-3.6336,-3.6586,-3.6722,-3.727,-3.7883,-3.8304,-3.8956,-3.9604,-4.016,-4.1685,-4.3153,-4.3467,-4.379,-4.4125,-4.4422,-4.4976,-4.5477,-4.5817,-4.612,-4.6313,-4.6313,-4.6313,-4.6313,-4.6313,-4.6313,-4.6313,-4.6313,-4.6313,-4.6313,-4.6313,-4.6313,-4.6313,-4.6313,-4.6313,-4.6313,-4.6313,-4.6313,-4.6313,-4.6313,-4.6313,-4.6313,-4.6313,-4.6313,-4.6313,-4.6313,-4.6313,-4.6313,-4.6313,-4.6313,-4.6276,-4.6163,-4.5686,-4.5397,-4.5208,-4.4706,-4.4179,-4.3627,-4.315,-4.2974,-4.2974,-3.6016,-3.6016,-3.6016,-3.6016,-3.6016,-3.6016,-3.6016,-3.6016,-3.6016,-3.6016,-3.6016,-3.6016,-3.6016,-3.6016,-3.6016,-3.6016,-3.6016,-3.6016,-3.6016,-3.6016,-3.6016,-3.6016,-3.6016,-3.6016,-3.6016,-3.6016,-3.6016,-3.6016,-3.6016,-3.6016,-3.6016,-3.6016,-3.6016,-3.6016,-3.6016,-3.6016,-3.6016,-3.6016,-3.6016,-3.6016,-3.6016,-3.6016,-3.6016,-3.6016,-3.6016,-3.6016,-3.6016,-3.6016,-3.6016,-3.6016,-3.6016,-3.6016,-3.6016,-3.6016,-3.6016,-3.6016,-3.6074,-3.6268,-3.6451,-3.6722,-3.7069,-3.7492,-3.796,-3.8416,-3.8758,-3.9713,-4.0797,-4.1697,-4.2356,-4.2925,-4.3603,-4.4287,-4.4976,-4.5684,-4.6059,-4.6313,-4.6313,-4.6313,-4.6313,-4.6313,-4.6313,-4.6313,-4.6313,-4.6313,-4.6313,-4.6313,-4.6313,-4.6313,-4.6313,-4.6313,-4.6313,-4.6313,-4.6313,-4.6313,-4.6313,-4.6313,-4.6313,-4.6313,-4.6313,-4.6313,-4.6313,-4.6313,-4.6313,-4.6313,-4.6313,-4.6313,-4.6288,-4.605,-4.5761,-4.546,-4.5208,-4.4568,-4.374,-4.3187,-4.2974,-4.2974]}]]